GFSMA_500_spd_000.txt.gz
Wind_Speed
7 8 9 11 13 12 10 11 11 10 10 11 11 11 9 10 11 11 11 11 11 12 16 17 16 15 16 13 11 10 9 10 10 9 6 6 6 7 7 6 4 3 4
7 7 8 10 12 13 13 12 12 11 11 10 11 13 13 12 12 13 11 12 13 13 15 18 19 17 17 16 15 13 11 11 11 12 10 8 7 6 7 7 7 6 5
6 5 6 7 9 10 11 12 13 13 12 13 12 13 15 15 13 11 13 14 14 15 16 19 22 21 20 18 16 16 14 14 13 13 12 11 9 7 7 8 7 7 7
7 8 7 7 8 9 10 11 12 13 15 15 14 14 15 15 16 14 12 14 15 17 16 20 21 24 23 21 19 18 18 17 16 15 14 13 13 11 9 9 7 7 8
6 8 8 9 9 9 11 11 13 14 16 17 17 16 16 17 17 16 15 15 14 15 18 20 23 24 25 26 24 22 21 20 19 19 17 17 16 15 13 12 10 9 8
9 10 10 11 11 11 12 13 14 14 16 18 19 18 17 18 17 17 17 16 16 14 15 20 23 26 25 26 28 27 24 25 23 22 22 20 19 18 16 15 14 12 11
9 11 11 12 13 13 14 15 15 14 15 18 20 19 19 19 19 19 19 17 17 18 16 15 20 24 28 30 30 30 29 29 28 27 26 25 23 21 21 19 16 16 15
12 14 15 16 16 17 17 16 15 13 14 16 19 22 20 20 20 22 22 20 18 17 17 18 17 20 27 31 33 35 32 32 32 31 31 30 27 25 23 23 21 19 18
16 16 18 18 18 18 17 18 18 18 17 17 18 20 23 23 23 21 21 22 21 19 18 17 20 20 23 28 33 35 35 35 33 35 36 35 33 30 28 25 24 23 21
21 21 19 18 17 18 19 19 20 19 19 20 21 20 19 22 25 27 24 22 22 21 20 20 22 25 25 26 29 34 37 37 38 39 38 40 38 36 34 32 28 25 25
25 23 21 19 18 18 18 19 20 20 21 23 24 24 24 23 22 25 28 27 24 21 22 24 25 25 28 29 30 33 34 38 40 41 42 42 43 42 40 38 35 32 27
27 24 22 19 19 18 18 20 21 23 24 25 27 29 29 28 24 22 24 26 26 25 24 25 26 27 28 33 34 33 36 38 40 43 44 45 45 46 46 44 41 38 35
25 25 22 20 21 19 19 22 24 26 27 28 30 31 32 32 31 28 24 22 25 28 30 31 34 33 34 33 35 36 39 40 41 42 44 46 48 49 49 49 47 44 41
26 25 22 22 23 23 23 24 26 26 29 31 32 33 34 34 32 31 30 27 29 28 31 35 39 37 36 38 37 38 39 41 45 46 44 45 48 52 52 52 52 49 46
27 25 23 21 23 25 26 26 27 28 30 33 35 35 36 38 37 38 39 37 41 38 31 37 38 41 38 38 40 40 41 43 43 46 49 49 47 51 54 55 54 54 50
25 25 25 25 26 27 29 28 27 28 31 34 34 36 38 37 40 43 46 44 43 41 35 34 39 40 40 41 43 43 42 44 47 46 47 52 53 51 54 55 57 55 55
26 25 27 27 27 28 29 26 25 26 31 33 34 33 36 39 44 43 46 44 42 42 38 35 38 42 40 42 43 44 44 44 43 44 48 50 54 57 54 56 57 58 57
31 28 29 29 30 29 29 27 26 28 33 36 35 33 40 44 43 40 47 43 41 43 45 44 42 40 40 41 41 42 45 47 47 48 48 47 53 57 60 57 59 59 60
33 34 30 31 32 31 31 28 27 31 32 34 35 36 45 40 40 45 43 41 43 46 48 50 44 35 35 39 39 40 41 43 46 49 51 52 50 57 60 62 59 61 60
38 38 37 36 36 35 34 30 30 31 26 33 31 40 42 40 41 42 43 45 45 46 46 46 41 38 37 38 38 39 39 44 45 50 52 53 53 52 60 62 63 61 62
41 39 38 40 39 40 39 33 31 34 39 44 41 46 40 43 42 45 46 46 47 45 46 44 45 41 38 41 40 39 39 39 44 52 56 53 51 52 53 61 64 65 63
39 39 41 42 42 43 43 35 33 38 37 37 42 45 43 43 45 45 46 47 47 47 44 43 40 40 35 35 38 40 39 38 40 48 53 51 56 50 52 56 63 67 64
37 41 40 42 47 46 45 40 35 40 38 43 49 47 45 44 47 47 47 46 43 43 39 39 42 37 34 34 38 41 43 41 42 46 52 50 57 53 52 54 61 65 65
35 38 40 42 48 53 51 41 36 43 45 49 50 45 45 45 47 45 46 46 42 37 39 38 35 35 33 35 38 39 40 38 36 42 46 54 53 48 52 54 57 63 67
33 36 29 37 46 48 51 50 43 45 43 50 44 42 44 43 44 45 44 41 38 35 33 31 33 34 34 37 40 45 49 36 32 34 42 52 46 41 45 49 55 60 64
41 41 37 41 39 41 39 41 43 39 39 42 43 43 44 44 44 43 40 38 36 33 30 29 31 33 36 38 44 47 54 41 38 32 31 42 40 39 45 44 52 57 62

GFSMA_500_spd_003.txt.gz
Wind_Speed
6 8 10 11 12 12 13 14 13 12 12 12 13 12 12 12 12 10 9 9 11 13 16 18 17 16 20 16 13 11 10 10 10 9 5 4 5 8 8 6 5 5 4
6 6 8 9 10 12 12 12 12 12 11 11 11 13 13 13 11 11 9 8 8 12 14 16 18 19 18 19 17 14 13 11 11 11 10 7 7 7 9 8 7 6 6
4 5 5 6 9 10 10 10 10 11 11 10 11 12 12 14 14 12 12 11 11 11 13 15 17 19 21 19 20 19 16 14 12 11 12 11 10 8 9 9 8 7 7
6 7 5 6 7 9 9 9 9 10 12 11 11 13 14 14 15 13 14 13 13 12 14 17 18 19 19 23 20 22 19 18 16 14 13 13 12 11 10 10 9 8 9
9 11 11 10 9 9 8 8 8 9 11 12 13 13 15 16 15 15 15 15 14 14 13 14 19 20 22 23 23 24 24 21 20 18 16 15 15 14 13 12 11 9 8
8 10 10 11 12 12 11 12 11 11 13 13 13 13 14 14 15 15 15 15 16 15 14 13 13 18 21 24 27 28 25 26 23 21 20 19 18 17 16 16 15 13 11
8 9 11 13 14 14 14 13 12 13 14 16 15 14 14 16 15 16 17 17 16 16 15 13 12 14 17 22 26 30 31 24 28 26 25 24 23 21 20 19 18 17 16
11 13 14 15 16 15 14 14 12 13 14 15 16 16 15 15 15 15 16 19 19 18 17 15 13 12 15 17 22 27 31 31 31 31 29 28 27 26 25 23 23 21 19
16 16 18 18 17 15 14 13 13 14 14 13 15 18 19 17 16 17 17 17 17 18 18 17 17 15 15 17 21 24 28 31 33 32 32 34 31 31 30 28 26 24 22
20 20 20 20 17 15 14 13 13 13 13 13 15 17 19 21 22 20 19 19 19 19 19 21 20 20 19 19 20 23 28 30 33 34 34 34 37 36 35 34 32 29 26
22 21 21 20 19 17 17 16 14 14 13 15 17 18 20 21 22 23 23 23 22 21 19 19 21 24 24 24 24 26 27 31 33 34 36 38 38 39 41 40 38 35 32
21 21 22 24 22 20 18 16 16 16 17 18 19 21 22 21 21 20 22 25 25 24 24 27 26 27 28 29 30 32 33 32 35 36 38 39 40 41 43 45 44 42 39
21 22 24 25 23 21 18 17 18 19 20 20 22 23 26 26 25 23 21 21 23 27 33 37 39 36 35 36 34 34 38 38 38 38 39 41 42 44 46 47 48 48 45
26 24 24 24 23 23 22 20 21 24 24 22 23 25 27 27 28 27 30 30 29 27 32 38 41 36 35 36 38 37 37 39 39 41 42 42 44 45 48 50 50 51 51
26 27 25 25 25 25 25 23 24 27 27 24 24 26 29 28 28 29 34 35 37 37 31 33 36 40 41 42 42 41 40 40 41 41 43 45 45 46 49 51 53 53 54
25 25 26 28 28 28 27 25 28 28 28 25 26 27 27 29 28 33 31 32 33 37 40 37 34 39 43 45 47 46 44 45 45 45 45 46 48 49 50 52 53 56 56
31 30 26 26 28 28 29 29 29 28 30 27 25 29 28 30 29 33 36 32 34 36 36 38 39 41 44 49 48 48 48 48 49 49 49 48 48 51 52 53 55 56 59
24 33 31 30 29 29 31 32 31 30 29 28 26 24 21 23 28 33 34 36 36 40 43 47 45 45 46 48 48 45 43 42 44 49 51 52 51 51 53 55 55 58 59
38 31 35 34 35 35 35 34 34 32 31 30 30 30 26 33 37 38 40 38 37 41 45 52 48 48 46 48 46 45 44 42 44 46 49 51 53 53 54 53 56 58 61
40 30 29 34 38 36 36 35 37 35 35 34 32 33 34 32 40 45 40 40 38 42 50 51 49 48 45 48 48 47 43 44 45 44 45 49 50 51 54 57 55 57 61
49 27 21 37 41 35 35 40 37 35 35 34 34 35 36 40 46 52 47 42 40 44 49 48 46 46 49 49 48 45 41 39 41 45 46 49 51 54 55 56 55 55 59
47 35 26 24 35 35 38 37 35 35 37 39 34 35 45 43 52 53 47 40 42 45 46 47 45 45 49 45 41 36 36 35 33 39 44 48 56 53 54 52 51 54 57
44 38 33 27 30 41 39 37 41 43 43 45 41 45 44 41 48 44 42 43 43 47 45 45 44 45 46 35 33 34 35 35 36 39 46 45 58 57 55 51 47 51 54
36 36 38 32 35 38 24 30 35 35 42 49 48 40 33 38 39 40 41 44 46 47 47 45 43 43 42 34 34 34 33 35 36 43 50 48 53 55 55 52 49 47 52
39 36 34 36 40 37 31 31 37 31 32 35 32 27 32 31 40 42 41 41 46 45 46 43 42 43 39 35 35 34 36 40 42 45 41 38 46 49 50 50 52 50 52
42 34 33 30 28 25 27 22 23 27 28 41 43 48 35 39 39 40 41 43 43 44 42 44 43 42 38 37 38 39 40 41 47 41 37 35 29 36 40 44 46 49 53

GFSMA_500_spd_006.txt.gz
Wind_Speed
8 9 10 12 12 12 13 13 12 11 10 11 12 12 13 12 12 10 9 8 7 8 9 12 13 16 19 20 18 15 14 13 11 10 7 6 4 7 8 6 5 4 4
6 7 7 8 8 9 10 11 11 11 11 11 11 11 11 12 12 12 11 10 9 9 10 12 14 16 16 17 23 19 16 15 13 12 11 8 7 6 8 9 8 6 5
4 4 5 6 6 7 8 8 9 10 10 10 10 11 12 11 10 10 10 10 11 11 11 13 15 17 17 18 15 24 20 17 16 14 13 13 10 9 9 9 10 10 8
4 5 4 5 6 7 7 8 11 12 13 12 11 12 12 12 12 11 11 10 9 9 11 10 13 15 17 18 18 16 26 22 19 17 15 14 13 12 11 9 10 10 9
4 5 6 7 9 9 8 9 11 13 14 13 14 13 12 12 12 12 13 14 13 10 8 10 11 12 14 17 19 20 16 29 24 21 19 17 16 15 14 12 11 11 10
7 6 7 9 10 10 11 10 13 13 13 13 14 14 13 13 13 13 12 14 15 13 12 11 14 13 11 13 17 19 21 22 28 25 23 22 20 19 17 16 15 14 13
10 11 11 12 13 14 12 12 13 12 12 13 13 15 13 13 13 12 13 15 16 15 14 13 11 13 14 14 14 16 19 21 23 27 31 26 25 23 20 19 18 18 17
13 15 15 15 15 15 14 13 13 11 11 13 13 13 13 13 13 12 13 14 17 15 17 17 15 14 15 15 13 16 19 20 21 23 24 32 30 28 26 24 22 20 19
22 23 22 19 18 17 17 15 15 14 13 13 13 12 13 14 12 12 13 14 16 16 17 21 19 19 17 17 18 18 19 21 23 23 24 28 31 34 32 29 26 25 23
22 21 21 21 19 18 19 18 18 18 15 15 14 13 14 16 16 15 14 13 15 17 19 18 19 22 23 22 20 21 22 24 26 26 27 27 30 32 37 35 32 30 28
21 20 21 20 19 18 18 18 18 20 18 16 15 16 16 19 20 19 18 14 15 16 16 18 20 21 25 27 27 26 26 27 29 30 30 31 32 33 33 39 38 35 33
19 19 20 21 21 21 19 17 19 20 20 19 18 19 19 19 23 22 21 21 20 20 23 23 24 26 28 31 33 33 32 33 34 35 36 35 35 36 37 36 41 41 39
19 20 22 24 23 21 19 18 20 24 23 21 21 22 23 21 21 22 22 21 22 25 25 27 29 30 31 31 31 33 37 38 39 40 41 41 40 39 40 41 41 44 44
22 25 27 27 28 24 22 22 24 26 25 25 26 26 26 25 23 22 20 20 24 26 28 30 31 34 34 33 34 37 38 41 41 40 44 46 46 44 43 44 45 46 47
23 25 27 28 27 28 25 25 27 29 29 27 27 29 27 27 26 24 22 24 26 26 29 32 31 32 33 37 42 47 47 44 40 43 43 46 48 48 46 45 47 49 51
22 29 30 29 31 32 30 27 27 28 29 27 28 30 29 29 29 26 26 22 25 27 28 31 33 36 38 43 48 49 53 52 48 42 45 45 48 50 51 50 49 50 52
25 37 30 28 29 27 30 32 30 30 29 28 27 30 30 29 27 23 22 24 28 30 31 35 35 37 40 47 52 54 56 53 44 41 43 49 50 51 53 53 53 53 53
38 35 26 41 40 32 37 33 32 35 32 30 30 30 31 32 30 26 33 32 32 35 37 36 37 38 44 49 53 56 54 52 47 45 41 43 47 48 51 53 53 56 57
39 40 44 36 38 33 34 35 33 33 33 31 32 32 34 35 35 37 33 32 38 39 41 40 37 40 48 52 55 53 50 49 50 50 47 46 48 48 49 51 55 56 59
43 40 33 37 16 26 28 33 37 35 33 35 36 32 32 35 39 37 36 41 47 48 49 40 38 44 50 54 55 50 48 47 50 49 47 45 47 51 51 49 51 56 59
45 37 37 31 20 26 29 35 37 34 34 37 39 35 35 36 39 41 39 38 41 38 40 39 43 47 52 55 52 49 44 50 45 44 44 43 44 45 49 50 50 53 58
44 34 30 34 35 30 26 32 33 37 39 38 40 43 43 41 43 44 45 47 46 50 44 45 43 50 52 51 49 48 46 46 40 41 40 36 38 40 43 49 56 55 54
44 42 39 39 40 36 29 35 32 33 33 35 41 39 40 43 44 40 38 37 44 45 46 45 43 50 50 49 49 49 47 43 40 40 38 36 40 38 45 53 60 55 47
48 44 42 42 42 38 34 34 29 27 22 35 39 37 34 25 33 37 40 40 44 46 45 47 48 50 51 51 50 48 43 39 40 39 37 38 43 49 56 58 59 56 51
45 47 44 45 45 39 29 29 26 32 24 22 23 32 34 37 41 45 41 44 48 48 48 49 51 51 52 50 50 42 40 39 40 40 39 40 45 50 50 49 53 55 54
50 49 46 41 41 37 32 31 33 33 28 30 33 33 39 43 41 48 46 49 51 50 50 53 53 52 48 47 46 42 43 41 39 36 38 43 45 46 30 28 41 43 42

GFSMA_500_spd_009.txt.gz
Wind_Speed
9 8 8 10 10 8 10 10 10 9 8 8 9 10 10 11 11 11 10 9 9 7 7 8 10 12 13 13 16 19 15 14 11 12 11 7 5 5 5 6 4 2 2
6 5 5 5 6 6 6 7 8 8 10 10 11 10 11 11 10 9 10 11 10 9 8 8 10 11 15 15 16 21 18 16 14 12 13 11 7 5 6 7 7 6 4
4 3 3 4 5 6 6 7 8 8 10 11 12 12 12 12 11 11 9 8 10 10 10 9 10 11 13 15 15 16 20 18 16 14 13 13 13 9 8 8 9 9 9
3 4 4 4 6 7 8 9 10 12 13 13 14 14 14 13 13 13 12 10 9 9 9 9 9 9 10 11 13 14 16 23 19 18 17 15 15 15 12 10 9 9 9
2 3 5 7 9 11 11 11 13 13 14 14 15 15 13 13 14 13 12 12 9 9 9 12 11 10 11 11 10 12 12 13 19 22 21 19 17 17 16 13 11 10 10
4 4 6 8 10 12 14 14 15 14 14 14 15 15 15 13 13 14 14 13 13 12 9 9 12 14 12 11 11 10 10 12 13 13 28 25 22 20 18 17 15 13 12
8 9 11 13 13 14 16 16 15 14 14 14 14 15 14 14 13 13 14 16 15 15 15 14 14 15 14 12 11 12 12 11 12 15 18 19 28 24 22 21 20 18 16
11 16 18 17 17 16 16 16 17 15 15 15 15 15 14 12 14 13 14 16 17 16 15 13 15 17 14 16 16 14 13 13 14 14 15 18 17 30 26 25 24 23 21
17 22 19 17 18 19 17 16 18 17 17 17 18 17 16 15 13 13 15 16 17 19 17 14 15 16 15 15 17 18 18 17 16 17 17 17 20 20 30 29 29 27 26
22 22 20 19 18 20 18 18 18 19 20 19 20 20 19 18 17 15 14 14 15 17 19 17 17 17 18 17 18 20 21 23 24 23 22 22 22 22 27 29 35 32 31
21 20 19 19 19 20 21 21 21 19 19 20 22 22 22 22 21 20 20 17 14 15 16 18 20 19 20 18 18 26 26 27 27 28 27 27 28 28 27 29 33 39 37
20 19 19 20 21 22 23 24 24 23 20 21 23 24 24 25 26 25 24 22 20 16 15 16 19 23 24 25 25 25 27 29 30 30 31 31 32 33 34 33 32 36 39
21 22 24 24 25 25 24 25 26 25 24 23 24 25 27 27 28 28 27 26 23 21 18 18 20 22 25 26 25 27 27 28 32 33 34 35 35 35 37 38 38 37 38
18 20 25 24 29 32 30 25 26 26 26 27 26 27 28 28 28 29 30 29 28 26 26 22 24 28 28 30 26 27 29 35 38 40 39 37 36 39 40 43 42 43 42
19 26 29 29 32 35 32 38 29 27 28 31 31 31 31 29 28 29 31 31 31 32 32 32 30 31 28 29 29 32 33 32 43 46 48 48 41 38 40 43 48 47 46
22 18 27 30 34 29 30 35 34 29 30 29 31 31 32 31 29 29 31 30 31 28 26 30 30 33 34 34 35 36 41 41 45 48 50 51 49 43 40 46 48 52 50
20 22 30 32 30 35 36 36 36 33 33 32 31 33 33 32 31 31 30 30 27 27 32 32 32 34 35 38 39 39 42 43 49 53 55 53 51 42 40 46 53 53 53
19 25 28 28 24 28 22 22 25 37 39 34 31 33 34 32 33 34 34 34 39 41 39 36 36 39 41 41 41 43 46 51 53 55 57 50 45 42 41 42 49 53 54
21 27 30 27 27 26 25 25 29 36 37 35 38 34 33 33 34 34 37 39 40 42 43 42 45 46 44 44 44 48 52 52 55 54 51 48 43 45 46 49 48 49 48
28 32 32 30 29 32 30 32 36 36 36 36 35 40 36 35 33 35 36 36 39 42 44 44 41 38 49 53 54 54 54 56 58 52 47 45 44 44 46 47 48 50 52
33 35 37 35 32 34 36 38 40 37 38 34 35 39 44 38 35 40 42 44 45 45 42 46 50 48 54 60 57 57 52 55 54 48 47 46 46 45 43 41 44 46 50
39 42 45 44 46 42 41 41 37 40 40 37 37 38 42 41 41 41 41 43 42 42 40 45 42 43 49 59 56 56 54 52 49 47 48 45 46 43 41 40 39 41 46
45 50 53 51 50 48 38 42 42 40 43 41 38 34 33 37 42 39 33 35 34 36 44 45 44 50 53 56 57 56 55 53 49 46 48 45 45 43 39 38 40 44 47
49 50 55 50 49 45 41 44 43 40 38 37 37 35 35 38 31 35 34 40 43 42 46 51 48 52 53 55 56 56 52 52 48 47 48 46 44 43 43 41 43 48 55
54 47 46 51 52 51 50 45 42 41 38 38 38 40 38 33 35 37 41 44 46 46 51 53 54 54 55 56 57 56 53 50 46 44 47 45 44 43 44 40 43 56 64
53 50 48 51 55 53 48 41 38 36 37 43 40 39 40 41 44 49 53 46 43 47 50 55 57 56 58 56 52 48 44 43 40 39 37 35 37 38 40 36 49 56 49

GFSMA_500_spd_012.txt.gz
Wind_Speed
8 13 8 8 7 7 8 11 11 9 9 9 9 11 10 10 10 11 12 13 12 9 6 4 6 8 9 10 11 12 15 14 11 10 8 6 8 5 4 3 2 2 2
5 5 5 5 5 7 9 9 7 8 9 11 11 11 11 12 11 10 10 10 11 11 11 8 6 7 8 11 10 9 17 26 18 12 9 9 7 7 4 5 5 4 4
3 4 4 6 7 8 8 8 9 10 10 12 13 13 13 12 11 11 10 10 10 11 12 11 9 9 9 9 10 11 11 13 16 13 11 10 10 9 8 7 7 8 7
2 3 3 5 6 9 9 11 11 11 12 11 12 12 12 12 12 12 12 11 10 11 12 11 10 11 10 11 9 9 11 12 14 16 13 12 12 13 11 10 9 9 9
3 3 6 7 7 10 12 13 13 15 15 16 14 13 12 12 12 13 12 11 10 9 13 12 12 10 10 10 10 8 8 10 11 12 15 14 14 15 15 13 12 11 10
3 4 6 9 12 13 14 14 15 15 15 17 15 15 15 12 12 13 12 12 11 11 11 13 12 14 13 9 9 9 7 7 8 10 11 12 19 18 18 17 16 14 13
7 8 10 15 16 16 16 17 14 15 16 16 16 16 16 15 13 12 12 11 11 11 12 10 10 13 14 12 9 11 11 9 8 8 9 10 9 19 23 22 20 18 17
11 14 18 19 18 17 18 18 17 16 15 17 16 16 15 14 16 14 15 14 12 10 11 11 11 11 14 13 14 13 13 13 12 12 11 11 14 17 16 28 24 22 20
17 19 21 20 20 19 20 20 20 20 17 17 18 17 17 18 17 14 16 19 17 14 11 11 14 10 10 13 14 12 13 15 16 15 16 16 15 16 17 18 29 27 24
20 20 19 18 19 19 19 19 19 22 23 21 19 21 19 20 21 20 17 17 19 24 19 13 15 14 11 10 13 15 15 17 18 19 20 20 20 19 19 20 21 27 29
18 19 18 19 19 22 23 24 24 24 25 25 24 21 23 22 23 23 24 21 21 16 19 26 19 16 19 13 16 20 18 18 18 18 18 19 20 22 23 23 24 25 26
17 14 15 17 18 18 20 23 24 25 26 26 26 26 26 24 24 26 26 26 25 25 21 19 21 21 20 22 19 19 21 21 19 17 17 18 18 19 20 25 28 29 30
13 11 15 17 19 24 28 30 30 24 23 24 25 27 28 29 29 27 27 27 27 27 26 25 25 22 23 26 24 22 22 24 22 23 26 27 29 28 23 24 26 31 33
11 13 12 14 19 24 25 24 26 27 28 24 24 26 28 28 30 29 29 29 29 28 28 30 31 31 29 28 28 27 27 26 27 26 29 30 35 37 42 39 34 33 33
8 11 14 18 22 16 29 27 30 32 29 26 24 25 28 30 31 33 32 32 30 29 30 33 32 32 28 29 31 27 29 33 33 32 33 35 39 41 42 47 48 44 35
8 13 16 18 22 20 19 26 27 29 26 17 26 29 29 31 32 34 34 35 34 32 31 32 31 31 34 33 35 35 32 32 35 39 35 36 40 43 48 49 51 54 47
11 13 16 19 18 22 25 28 29 29 26 29 33 30 33 33 31 32 34 34 37 37 33 32 32 37 40 41 43 41 42 40 41 39 43 48 49 50 52 51 54 52 49
9 13 17 19 22 22 25 26 30 34 32 32 31 31 31 33 36 31 33 35 37 39 39 39 41 41 42 45 45 45 44 44 45 45 48 53 52 54 53 56 56 50 43
11 15 20 28 34 30 27 34 37 40 39 37 35 35 35 32 31 33 33 36 37 38 42 44 45 44 44 47 45 43 42 48 52 54 55 57 57 55 55 59 57 48 47
15 20 26 31 37 41 39 39 38 40 40 39 38 37 37 37 34 38 41 40 38 37 40 45 44 46 46 43 45 48 46 50 49 53 56 53 51 52 52 54 47 46 49
22 26 30 37 39 42 43 40 39 38 38 40 40 41 40 42 40 39 34 35 36 41 46 38 36 34 34 39 39 42 47 48 52 57 55 57 53 53 52 51 45 46 49
26 31 34 42 45 45 36 41 42 44 43 46 42 40 39 41 40 33 29 36 39 36 35 34 40 38 45 49 50 53 53 52 54 53 57 55 52 55 53 48 46 46 46
27 33 39 47 52 49 46 45 44 46 46 47 40 38 39 38 35 38 40 41 34 33 33 37 45 48 49 52 53 54 53 56 55 53 53 51 45 46 45 45 46 45 44
31 35 41 46 53 57 50 50 48 49 50 45 40 38 40 41 34 37 41 43 41 45 46 47 50 52 49 52 54 55 58 58 54 48 45 49 44 41 43 44 46 46 45
35 39 43 48 53 52 55 55 53 51 47 42 40 38 39 37 39 42 43 44 44 50 53 51 50 48 50 53 58 60 59 55 49 45 43 42 40 39 40 40 39 40 41
40 42 45 49 54 55 56 54 52 44 44 43 40 41 37 38 41 46 47 45 44 49 51 50 52 53 55 58 54 51 46 45 42 38 41 40 38 40 39 38 36 36 40

GFSMA_500_spd_015.txt.gz
Wind_Speed
10 8 11 12 9 8 11 9 11 12 11 10 10 11 11 11 12 12 12 12 12 11 11 8 6 5 6 8 9 8 8 9 8 10 7 6 3 2 2 2 1 0 2
7 7 7 6 7 10 12 13 12 10 9 10 11 12 11 11 12 10 10 10 11 10 9 9 8 7 7 9 8 6 6 6 15 21 14 8 5 3 1 2 4 3 2
5 5 6 8 11 13 13 12 11 10 10 10 9 9 9 9 10 10 10 8 8 8 8 8 8 8 9 9 8 5 7 7 15 15 15 11 8 7 4 4 5 6 6
4 5 6 7 8 9 11 13 13 14 14 11 10 8 8 8 8 9 7 9 8 8 9 9 8 7 9 9 9 8 6 9 6 14 14 12 9 8 9 7 7 7 7
3 4 6 7 9 10 12 12 13 14 15 16 13 12 10 8 7 6 7 5 7 10 9 9 9 8 9 9 8 9 9 6 5 7 14 11 11 11 10 10 10 9 8
4 6 7 10 13 15 15 15 14 15 14 16 16 15 11 10 8 7 6 5 6 8 8 9 7 7 9 10 7 7 9 10 8 4 2 3 14 14 14 14 13 13 12
6 9 12 16 17 17 16 16 16 17 17 15 14 17 16 13 11 9 8 8 6 6 5 9 10 9 8 9 8 8 8 7 9 8 6 6 8 7 15 19 17 17 17
11 14 16 19 18 18 18 17 16 17 17 17 15 15 14 15 14 16 15 12 9 10 7 6 9 10 10 9 10 9 8 7 9 10 10 10 9 9 9 11 19 21 20
13 15 15 15 15 15 14 15 15 15 16 18 18 18 16 16 15 13 16 16 16 13 12 12 8 10 14 14 9 9 10 11 10 12 14 14 14 13 12 11 13 13 27
13 14 14 11 12 12 14 15 18 19 18 18 19 21 20 19 19 18 16 16 18 20 16 18 16 10 13 16 17 13 14 13 13 13 13 14 14 15 16 16 16 14 12
11 12 11 10 12 12 13 17 20 22 22 20 19 19 21 22 23 23 20 20 19 18 21 22 17 19 14 15 17 17 16 17 15 16 14 13 11 9 10 13 15 17 18
8 8 8 7 9 14 19 21 23 25 26 21 19 18 19 22 23 24 25 25 25 23 23 20 20 21 22 21 21 21 18 17 18 16 16 14 11 11 11 13 13 14 17
4 7 9 11 13 15 15 20 25 29 31 22 18 17 19 21 21 23 25 27 27 28 28 27 24 23 23 26 26 24 23 23 22 21 21 21 20 19 18 19 19 20 19
5 6 8 8 9 13 15 20 24 27 33 29 19 19 16 20 22 25 27 25 26 29 31 31 29 28 28 25 24 24 23 25 28 27 27 26 24 24 26 28 28 29 29
5 5 9 11 15 15 16 18 20 23 28 28 26 22 22 25 29 26 25 27 28 29 32 32 31 31 30 28 23 24 26 27 28 30 29 27 28 29 28 28 29 33 40
7 11 9 10 11 14 17 19 19 22 25 27 26 27 27 26 28 27 26 28 29 28 28 31 34 34 34 32 32 30 29 32 35 34 33 34 33 32 33 35 37 42 44
5 9 9 11 10 14 19 24 21 27 27 30 30 28 30 31 28 28 26 28 30 31 31 32 34 37 37 38 38 40 42 42 39 37 36 36 37 38 42 41 42 44 48
5 6 10 13 15 17 26 30 29 30 32 32 31 31 34 34 35 32 28 28 31 35 37 33 35 35 37 41 45 46 48 50 49 47 41 41 42 43 46 50 50 53 52
10 11 10 9 16 23 31 32 33 28 29 30 31 32 35 38 37 37 33 30 29 34 34 33 33 33 34 43 45 50 49 48 46 42 44 41 46 46 48 48 50 50 51
11 11 13 16 23 28 29 34 39 37 34 34 34 37 39 40 34 38 34 32 32 32 30 31 32 32 32 27 30 38 33 36 34 40 41 45 49 52 54 54 55 53 54
10 15 18 21 24 29 34 34 38 38 39 40 38 41 42 40 35 37 34 32 32 32 34 34 33 32 32 34 35 38 39 41 43 48 50 50 52 53 55 57 58 52 48
20 21 21 21 25 30 36 36 40 40 43 41 44 42 40 36 34 35 33 34 33 34 36 38 39 32 36 42 44 47 49 51 46 49 51 51 54 56 58 56 50 48 48
15 19 23 24 28 31 38 42 42 42 45 45 47 40 36 36 35 34 34 33 31 35 34 41 42 45 46 49 52 50 47 47 50 52 53 52 54 51 42 40 43 45 45
17 21 25 28 31 36 39 44 48 52 46 49 43 35 35 37 37 38 35 30 36 37 42 44 45 44 48 50 49 49 51 51 52 51 49 47 43 40 39 41 43 44 46
22 24 27 32 36 40 45 48 52 56 52 46 42 40 37 36 38 36 43 33 38 44 46 46 47 50 49 49 52 53 52 50 46 42 41 40 35 35 37 39 41 42 44
34 24 30 35 38 42 50 53 54 54 46 41 41 39 39 39 41 43 39 39 52 47 47 48 52 52 50 54 55 51 44 42 42 34 35 36 36 37 35 38 40 40 41

GFSMA_500_spd_021.txt.gz
Wind_Speed
9 9 10 11 9 8 9 9 11 12 11 10 9 9 9 8 7 7 8 7 7 6 5 2 3 3 2 4 5 4 4 6 11 7 5 6 4 2 3 5 4 3 3
8 8 8 9 9 9 11 11 10 9 7 7 8 10 9 10 8 7 7 7 7 6 6 5 4 2 2 2 4 3 3 2 9 8 9 14 10 7 4 7 6 4 2
9 6 7 7 8 11 11 11 10 10 7 5 6 6 7 8 10 10 9 7 6 4 3 4 4 5 5 6 6 3 3 1 2 9 10 10 14 10 8 6 8 6 5
6 4 4 7 11 12 11 11 11 10 8 8 5 3 3 5 7 9 9 9 7 7 7 6 3 4 6 7 7 7 6 9 8 6 12 9 12 10 10 9 7 6 6
4 4 4 7 10 12 10 11 10 10 10 8 6 3 3 3 4 6 8 8 9 9 8 8 7 6 7 8 8 9 6 5 4 4 8 11 11 10 10 10 10 8 7
2 2 4 9 12 12 11 12 12 13 14 14 11 7 5 4 3 3 6 6 7 7 8 9 9 10 10 9 9 8 10 8 6 6 5 8 3 10 11 11 12 12 11
1 5 8 11 11 11 13 15 16 17 16 15 14 13 12 8 6 5 6 7 8 8 8 9 9 10 11 12 12 11 8 9 10 8 7 5 5 2 8 17 14 16 14
4 8 11 12 13 13 13 15 16 17 20 21 18 13 12 13 10 8 7 7 7 8 10 10 12 12 12 13 13 14 13 11 10 12 12 12 10 8 7 8 7 8 13
7 9 13 12 13 13 13 12 15 19 22 21 22 15 11 11 13 10 8 10 10 10 11 12 14 14 15 14 15 14 15 14 14 13 13 14 15 15 14 13 12 11 12
10 14 13 12 13 11 10 12 13 18 24 22 16 10 10 9 9 10 10 10 11 12 14 15 16 16 16 17 17 17 16 16 16 17 17 15 17 17 18 17 16 16 15
14 16 13 12 9 7 10 12 15 13 20 20 15 11 8 9 9 8 9 12 13 16 16 17 18 18 20 20 19 19 19 19 18 16 16 16 16 18 20 19 18 16 16
16 15 14 8 7 9 10 11 15 14 14 16 16 15 12 10 11 12 12 12 12 15 18 20 20 21 19 20 22 21 21 22 22 22 20 17 18 17 18 19 20 18 15
18 15 12 7 6 7 9 12 12 13 14 16 16 15 12 11 11 11 12 13 16 18 18 18 19 21 23 22 21 23 23 21 21 22 22 22 23 22 21 22 22 22 21
19 16 9 7 8 11 11 10 11 13 15 15 17 16 14 12 12 14 14 15 15 16 18 20 19 17 18 21 24 24 23 23 23 22 24 25 25 26 26 25 24 25 27
20 15 11 9 8 9 10 10 11 11 14 16 18 19 16 17 18 21 23 24 22 19 17 17 22 24 21 18 20 24 24 25 25 25 27 28 27 27 28 28 28 28 28
19 16 12 9 10 11 9 10 12 12 14 16 20 22 21 19 21 24 28 29 27 25 24 24 24 23 26 25 24 23 24 26 29 30 32 34 35 36 37 37 36 36 36
19 17 14 10 11 12 12 12 14 13 14 16 20 23 25 24 22 25 31 32 30 28 27 28 29 27 27 29 26 22 24 27 28 30 33 34 33 36 39 40 41 42 44
21 18 15 12 12 12 12 15 14 12 12 15 17 22 28 31 29 28 29 27 27 28 27 29 30 30 29 27 23 21 23 23 25 28 28 27 30 29 28 30 33 35 38
23 19 18 15 14 13 14 16 13 10 13 17 21 27 31 33 32 31 28 28 28 29 27 28 31 35 32 34 28 24 24 28 28 29 30 31 32 34 36 38 39 39 39
23 21 20 18 16 16 17 15 15 15 16 19 22 26 32 33 29 27 26 30 27 27 29 30 31 35 34 32 25 23 27 32 30 33 38 42 45 43 43 44 44 47 48
25 24 24 22 21 21 21 20 20 17 17 19 25 27 31 29 28 28 26 27 29 27 30 33 33 32 30 31 29 33 33 35 38 40 42 45 47 46 47 44 42 42 44
27 28 27 28 27 26 21 19 21 19 19 21 26 27 31 30 29 29 31 32 35 32 32 35 33 34 36 35 35 34 38 41 45 48 49 48 52 53 50 51 49 46 46
30 31 29 29 27 25 20 22 21 29 23 25 30 30 31 31 32 35 36 38 39 39 36 32 39 36 38 36 43 41 46 49 45 43 47 49 55 58 53 51 50 51 49
32 33 32 34 30 25 24 24 27 26 25 27 29 32 33 33 37 39 39 39 41 40 41 36 39 39 36 39 42 53 56 57 51 52 52 53 50 49 47 47 47 47 46
31 37 37 35 33 31 31 30 31 27 26 27 30 34 34 35 39 41 40 40 40 39 39 38 38 42 40 42 47 52 52 51 52 49 47 46 44 43 44 45 45 44 43
32 37 41 39 39 36 39 41 26 22 28 27 32 34 36 41 43 43 42 42 42 39 41 44 46 48 44 46 48 49 50 49 46 43 43 42 42 42 40 41 44 44 44

GFSMA_500_spd_027.txt.gz
Wind_Speed
13 13 12 12 11 10 8 7 5 5 5 5 6 6 7 7 10 9 8 7 6 4 3 3 3 4 2 1 3 5 8 10 10 13 11 7 6 6 5 6 6 5 5
11 11 11 12 9 7 5 5 6 5 5 5 4 5 5 6 7 9 9 8 7 5 3 3 1 1 2 3 6 8 12 8 11 11 13 9 8 10 8 7 7 6 5
10 9 8 8 8 8 6 7 7 7 7 5 6 5 4 4 4 7 8 8 7 6 5 3 3 2 4 6 7 7 6 8 6 9 11 13 13 13 13 10 8 8 7
7 6 6 7 10 10 9 8 7 7 6 6 5 6 5 4 5 2 4 6 6 7 7 6 6 5 4 5 8 8 8 7 5 9 2 10 17 17 19 15 12 11 9
4 3 5 8 11 9 8 9 8 9 8 7 6 5 6 6 6 5 3 1 2 3 3 4 5 6 7 7 7 7 8 9 7 9 3 9 10 13 20 17 14 11 10
1 3 6 10 10 9 8 7 8 8 9 10 8 5 5 6 8 8 7 6 6 4 4 5 5 6 7 8 8 9 9 9 9 9 9 9 8 12 16 13 13 15 15
2 6 9 10 10 9 9 9 11 11 11 12 8 6 6 5 7 8 9 10 9 10 8 7 7 8 10 11 12 12 13 12 11 10 10 12 8 5 7 13 16 18 19
5 8 11 10 9 9 8 9 11 15 17 14 8 2 4 4 5 7 9 10 11 11 11 11 11 11 11 11 13 13 14 14 14 14 12 11 11 12 10 10 13 12 21
4 8 10 10 9 9 8 10 13 16 18 19 15 8 3 2 4 4 4 7 9 10 11 13 14 14 15 15 15 14 15 15 14 13 13 12 12 12 13 12 11 15 18
3 6 8 10 8 8 9 11 12 13 15 17 18 14 9 6 3 4 5 4 5 6 8 10 12 15 18 20 20 19 17 17 17 16 16 15 15 15 15 15 14 13 13
5 5 8 12 9 7 7 8 11 10 10 12 13 12 11 10 8 8 9 10 10 9 11 12 13 13 15 17 18 19 21 20 19 20 20 19 20 20 19 17 17 17 14
9 6 7 11 9 7 5 8 9 8 7 7 8 9 10 9 8 8 8 9 10 12 12 11 12 14 15 17 18 20 20 22 22 21 21 22 23 23 21 21 20 19 18
12 8 7 11 10 6 5 6 7 8 8 7 7 8 8 9 8 8 8 10 13 16 16 16 15 15 15 17 19 21 24 24 23 24 25 23 25 25 24 23 22 22 22
16 10 10 11 11 8 6 4 5 6 8 8 8 9 10 10 10 10 10 12 15 17 16 18 18 19 19 20 21 20 21 23 25 25 26 27 25 27 27 29 28 27 26
18 14 13 12 11 9 8 4 4 6 9 10 10 9 9 10 9 12 16 16 15 16 16 17 17 18 19 21 22 22 23 23 23 25 29 30 31 31 31 33 34 34 34
21 18 16 15 12 11 11 6 5 6 9 12 12 10 10 11 14 14 10 11 13 13 13 15 15 17 19 22 24 26 27 27 26 26 29 33 34 33 33 33 35 37 39
25 22 19 19 15 14 11 7 6 8 10 15 11 12 10 11 15 14 14 10 10 13 16 17 18 20 23 25 27 30 30 29 28 31 31 29 32 35 34 33 35 36 37
29 27 22 22 20 17 13 11 9 9 12 10 12 14 12 15 15 14 7 9 11 15 18 20 22 23 24 24 25 29 29 31 30 33 36 36 37 35 35 37 39 38 37
25 28 24 23 22 20 17 16 12 12 13 13 14 14 15 15 15 15 12 15 16 17 19 22 24 28 29 29 27 28 23 28 32 36 37 38 37 38 42 45 42 39 43
17 23 26 25 25 25 22 19 16 15 16 18 15 14 15 17 17 13 13 16 17 18 21 23 24 26 28 28 28 26 29 34 35 37 39 42 45 47 44 44 42 40 37
16 18 21 26 27 28 24 21 19 19 18 18 18 17 17 20 20 18 15 18 20 22 23 24 25 27 28 29 31 32 34 36 40 42 42 43 46 49 49 51 53 44 43
16 19 18 21 25 26 25 24 24 23 20 18 20 19 16 20 22 22 23 24 25 25 26 28 28 29 31 31 33 35 37 39 41 44 45 42 46 50 56 53 47 46 43
25 21 21 21 21 25 27 27 28 27 21 18 21 23 28 26 26 26 25 27 28 29 31 31 30 32 33 35 36 36 38 39 39 41 40 38 40 41 43 44 45 47 49
25 28 23 22 23 23 27 30 32 33 26 23 25 28 28 32 36 30 28 30 32 31 32 34 34 33 34 36 35 35 36 38 39 39 38 36 38 38 38 42 45 47 49
28 28 28 24 23 22 26 32 36 36 32 32 31 35 34 29 38 34 32 34 36 35 33 37 36 35 36 37 35 35 37 36 34 36 38 38 38 38 41 45 45 46 48
32 32 30 32 30 26 28 35 38 39 34 38 38 39 39 37 33 33 35 33 40 40 37 40 37 34 36 35 35 34 33 31 33 35 35 36 37 38 40 41 40 41 41

GFSMA_500_spd_030.txt.gz
Wind_Speed
12 10 9 9 8 8 6 5 5 6 5 7 7 7 8 8 9 10 10 9 7 5 3 3 2 2 1 2 5 7 9 10 11 11 14 13 10 9 7 6 6 7 8
11 10 8 7 7 5 3 4 3 3 4 5 5 6 7 6 7 9 8 9 8 6 4 2 1 2 3 5 7 7 7 8 7 10 11 13 12 12 12 9 9 9 10
11 8 6 6 6 5 3 5 5 3 2 2 3 3 4 6 7 5 7 7 7 6 5 4 3 1 3 4 6 7 8 8 8 8 7 10 14 17 16 16 12 12 11
9 4 5 6 7 6 6 5 4 4 4 5 3 3 3 3 4 6 5 5 4 4 4 3 2 2 4 6 6 6 8 9 9 8 6 7 10 18 23 20 17 14 13
5 3 5 7 7 7 6 6 6 7 7 7 6 4 4 4 4 4 6 6 6 6 6 6 7 7 8 8 8 8 7 8 9 8 8 10 11 12 9 20 20 16 14
4 4 7 7 7 8 9 8 10 9 7 7 5 5 5 5 5 5 5 7 8 9 10 10 10 11 11 12 11 13 13 12 11 9 8 10 13 14 11 16 21 17 17
4 6 7 5 6 7 7 7 9 12 11 6 5 4 5 5 4 5 5 6 7 9 10 10 11 12 13 14 16 16 15 16 14 12 11 10 10 12 14 11 16 16 17
6 7 6 7 7 7 7 9 11 15 14 11 8 3 1 1 2 3 4 5 7 8 10 10 10 11 11 12 13 15 17 18 18 16 14 13 13 13 13 14 17 14 17
5 6 6 7 7 5 6 8 10 13 13 16 16 12 8 5 4 3 4 4 5 6 8 9 10 11 13 15 17 17 16 16 18 19 18 17 16 15 16 17 17 18 19
1 2 4 8 9 6 5 6 9 8 10 13 14 15 14 11 8 5 5 5 5 5 6 8 9 11 12 13 15 17 17 17 16 18 21 20 21 20 20 21 21 21 19
4 3 3 5 9 7 5 7 7 8 9 10 11 11 11 10 9 8 7 7 8 9 9 9 10 11 13 14 15 16 18 17 18 19 20 22 24 24 24 24 25 24 23
8 7 7 4 6 6 2 3 5 7 8 7 7 8 8 7 7 6 5 6 6 8 9 9 10 11 12 15 16 17 18 20 20 19 19 21 23 26 28 28 28 26 26
12 9 9 9 6 6 4 1 3 5 6 7 8 7 6 7 6 7 7 7 9 10 10 12 12 12 11 11 13 15 15 15 19 22 22 22 24 25 27 29 30 30 29
14 12 13 13 10 7 6 3 1 2 5 4 6 9 9 11 12 13 12 9 9 11 13 12 13 11 12 16 18 19 19 18 18 20 22 24 25 27 30 31 33 34 33
18 16 16 15 15 11 7 7 3 1 1 3 5 6 7 7 9 11 13 13 9 10 10 12 13 15 16 18 21 22 23 23 23 22 21 22 25 31 36 34 34 36 38
21 19 19 18 17 16 11 9 7 4 3 2 4 5 7 8 10 10 10 9 7 8 10 12 15 18 21 22 24 25 28 28 24 25 25 26 27 27 29 33 33 34 38
23 22 23 22 20 18 16 12 11 7 5 4 4 6 8 8 10 8 6 4 6 9 12 14 18 19 21 22 23 26 28 28 21 27 29 31 34 37 36 35 38 39 36
26 26 27 26 25 21 20 16 14 10 8 7 7 9 11 10 9 10 6 6 9 13 17 20 20 20 22 24 24 23 25 26 28 28 31 35 39 43 44 42 41 40 41
20 20 20 24 26 25 22 21 17 15 12 9 9 12 12 14 12 10 10 12 13 17 20 23 25 26 25 26 25 24 25 25 30 33 35 39 43 46 45 41 44 48 47
12 13 14 19 23 26 25 24 20 18 17 12 12 14 14 16 15 13 12 14 16 20 23 25 27 30 30 30 28 28 28 31 32 35 38 42 45 46 44 44 43 48 47
7 9 13 15 19 24 25 23 22 21 20 18 14 15 17 18 14 17 16 17 19 22 23 27 30 32 33 32 32 32 34 36 34 38 41 43 44 43 41 43 43 45 45
12 14 16 17 17 18 19 22 24 23 22 19 18 19 20 19 19 18 22 25 23 26 28 30 32 35 36 37 34 35 36 38 37 39 43 42 41 40 41 43 43 42 40
20 19 17 19 18 18 18 18 22 24 24 23 22 23 23 23 23 24 26 25 27 32 34 34 35 38 39 39 38 38 38 35 37 39 40 40 41 39 39 40 40 41 42
25 24 25 23 22 19 19 21 22 27 28 27 28 29 29 29 29 33 32 31 33 33 34 37 40 41 39 40 39 38 38 37 38 41 38 39 39 37 38 40 41 41 42
31 29 29 29 26 23 21 23 26 30 30 29 27 31 31 34 33 34 36 33 29 33 36 40 45 47 46 42 38 38 37 37 40 41 36 36 37 38 39 41 42 40 39
38 38 33 35 32 32 30 29 29 33 33 30 26 28 31 34 37 39 40 40 38 41 41 44 43 45 45 42 36 36 37 37 39 39 34 36 36 39 39 40 40 39 38

GFSMA_500_spd_033.txt.gz
Wind_Speed
9 9 7 6 5 7 7 7 7 8 9 9 8 8 9 10 10 10 10 10 9 6 4 4 4 5 6 7 8 9 9 14 8 11 11 13 13 12 11 11 10 10 9
8 7 6 4 5 5 5 4 5 5 6 6 6 6 7 9 9 9 10 10 9 8 6 5 4 4 6 8 9 9 10 11 11 12 9 9 11 12 13 13 14 13 11
7 6 3 5 5 4 4 4 4 4 4 5 6 5 5 6 7 9 10 9 9 7 6 5 5 6 6 7 8 8 10 10 11 11 12 8 10 14 19 21 18 15 14
4 3 3 4 4 4 4 5 6 5 6 6 5 3 3 3 4 6 7 9 10 9 9 8 8 8 7 8 7 8 10 11 12 12 8 11 10 13 17 20 23 19 16
2 2 2 3 4 4 5 6 6 6 6 6 4 3 2 1 1 2 4 6 7 8 9 9 9 8 9 9 10 11 12 11 11 11 11 11 11 15 17 19 17 21 15
2 1 2 3 6 7 8 9 10 8 7 7 7 3 4 3 2 3 3 3 5 5 6 8 10 11 12 13 13 14 15 15 13 12 11 12 12 13 16 18 19 18 20
4 2 4 5 7 7 9 11 12 13 10 8 4 2 3 2 3 3 4 5 6 7 8 8 9 11 12 14 15 16 17 19 19 16 14 13 14 14 14 14 15 15 15
4 3 5 5 6 7 8 11 11 16 17 15 12 7 5 4 3 1 2 3 4 5 7 8 10 9 10 13 14 15 16 16 18 19 18 17 17 17 17 15 14 14 13
4 3 5 6 7 7 6 9 10 12 13 16 16 13 10 7 6 4 6 6 7 7 7 8 9 11 12 13 15 16 17 16 15 16 19 19 18 19 18 19 19 18 16
3 1 2 5 6 7 6 7 8 9 8 10 12 14 13 11 8 7 8 9 8 9 10 10 12 13 15 16 16 16 16 18 17 15 16 18 21 22 23 24 24 23 22
5 4 2 3 5 6 5 6 6 8 7 7 8 9 8 7 6 6 7 7 9 11 11 12 11 12 12 13 14 15 18 19 21 21 21 20 18 19 22 25 26 28 29
7 6 5 5 5 3 2 5 3 5 5 6 6 7 6 6 7 8 8 7 6 8 9 10 11 12 12 13 15 17 20 21 22 22 25 25 24 25 25 24 25 27 28
10 9 8 6 6 8 1 4 3 2 3 5 6 6 6 7 9 11 11 9 8 7 10 8 8 10 12 15 17 19 20 21 21 22 22 23 23 26 27 29 31 32 31
12 11 12 10 8 8 8 3 5 3 1 1 3 4 6 8 11 13 12 7 4 6 5 6 9 11 14 17 19 22 22 22 24 23 21 21 23 24 26 29 31 33 37
14 14 13 13 12 10 10 9 8 6 4 2 1 1 4 5 5 8 10 6 2 3 2 8 11 15 17 19 21 24 26 25 26 22 19 24 26 28 32 36 38 35 33
17 16 15 14 14 14 12 11 11 9 9 6 6 4 3 4 7 8 6 3 4 6 9 10 14 18 19 18 21 24 26 27 27 25 23 27 31 34 37 41 45 45 37
19 17 17 17 18 17 17 14 14 13 12 10 9 6 4 4 7 7 9 8 9 11 14 17 19 20 20 21 23 25 26 25 26 28 31 33 33 37 41 46 49 50 45
21 20 19 20 20 20 20 18 16 15 16 14 12 9 7 7 7 11 13 11 14 15 17 20 22 19 22 24 25 26 29 29 29 28 31 34 35 39 43 45 46 44 39
17 17 15 16 18 20 20 20 20 17 19 17 14 12 10 10 10 11 13 12 15 17 20 22 24 24 25 28 28 29 29 30 31 32 32 35 39 40 42 43 43 43 43
10 9 8 9 10 13 16 18 20 18 19 19 16 15 15 14 13 14 15 17 16 18 20 23 25 26 28 29 32 35 34 33 31 33 34 36 35 40 43 44 44 43 45
10 6 2 5 9 10 10 12 13 16 19 21 19 19 18 19 18 16 15 17 20 22 25 24 25 28 32 33 36 37 39 39 40 35 35 39 39 40 41 41 40 41 45
14 12 11 9 7 9 10 10 13 17 21 24 24 23 24 24 22 19 18 20 17 20 25 29 30 29 32 37 41 44 41 38 40 38 36 38 39 41 42 43 40 42 42
19 18 16 15 13 11 14 14 16 19 21 25 25 27 27 28 26 26 26 28 28 28 30 30 29 31 33 37 41 44 44 40 41 41 39 40 41 41 40 44 42 43 45
23 24 24 22 20 16 18 20 22 24 23 23 27 27 30 32 32 31 32 35 33 32 32 34 34 35 39 42 41 42 41 40 40 40 39 39 42 39 38 41 41 41 44
29 27 28 28 26 25 23 26 27 30 32 29 29 29 30 34 35 35 35 40 36 36 38 41 42 39 43 42 44 45 43 42 44 42 39 38 38 40 39 40 40 40 41
32 35 33 33 33 30 31 32 33 36 38 39 36 38 34 30 32 35 34 39 41 40 45 44 50 49 44 45 46 49 48 43 44 43 40 41 40 41 39 41 39 40 41

GFSMA_500_spd_036.txt.gz
Wind_Speed
10 11 9 10 10 10 9 8 10 11 14 12 11 11 11 12 14 14 12 12 9 7 5 4 4 6 8 9 10 10 11 13 14 16 11 9 9 9 11 13 15 16 14
8 9 10 10 9 9 9 12 12 11 10 9 9 8 9 10 11 11 12 10 9 7 5 5 7 7 8 10 10 11 12 13 14 14 13 10 8 8 11 16 18 17 15
6 6 7 7 8 8 10 10 9 8 7 7 6 6 5 5 7 9 11 10 8 8 7 8 9 10 11 10 11 12 13 14 15 16 14 14 14 11 15 18 24 18 15
2 5 7 8 8 8 8 8 8 7 5 4 5 3 2 3 4 5 6 7 8 8 10 9 10 11 12 13 15 15 15 16 16 16 15 14 12 13 14 16 20 22 15
3 4 6 7 8 9 8 8 11 8 6 3 2 2 1 2 2 3 4 6 7 9 10 11 12 12 13 13 15 16 17 16 16 15 15 15 14 13 14 14 15 16 13
3 4 6 8 8 8 10 11 10 10 8 4 2 1 2 2 2 3 4 5 6 8 9 9 10 12 14 14 15 17 18 19 18 16 16 14 14 14 16 18 18 18 16
4 5 6 8 10 11 13 12 13 16 15 10 5 5 4 5 5 6 6 9 8 6 6 9 9 11 13 14 16 15 15 14 16 17 16 16 16 15 14 15 16 17 17
4 6 7 7 9 9 11 13 12 15 17 16 13 9 10 9 8 9 9 9 10 9 11 10 12 11 13 14 14 13 13 15 15 17 19 19 18 19 20 18 18 17 17
6 5 5 6 7 6 8 10 10 10 12 15 14 13 12 11 12 10 9 10 10 11 11 11 10 9 11 12 13 16 17 17 20 19 18 18 20 20 19 19 19 19 18
5 4 4 6 6 5 6 8 7 7 7 8 10 11 13 12 12 8 6 6 8 10 11 11 12 11 11 11 11 15 17 18 20 22 22 23 22 19 20 21 22 22 24
4 1 2 4 5 4 2 4 5 5 4 7 6 6 6 6 6 3 4 5 7 11 10 10 11 10 10 12 13 16 18 17 17 17 18 18 18 20 21 22 23 24 25
4 3 2 3 4 4 3 3 3 4 3 4 5 5 6 5 5 3 4 4 4 5 9 9 7 10 14 16 18 18 20 21 20 21 16 16 17 18 20 21 22 22 24
8 6 6 3 4 6 5 5 3 4 2 1 4 5 6 8 7 9 8 6 4 5 7 5 9 12 14 16 18 20 22 24 23 23 20 18 21 23 23 25 27 30 33
10 10 9 7 5 5 5 5 6 5 4 3 1 2 5 7 8 10 12 8 7 5 3 7 8 13 19 18 19 22 24 25 22 22 21 21 26 30 29 31 34 37 39
12 12 13 11 8 8 8 7 6 8 8 7 5 3 4 5 5 8 9 8 5 4 6 8 13 14 16 17 19 23 25 27 28 26 24 25 27 29 32 38 41 43 43
17 15 16 14 11 11 11 10 8 8 10 10 8 6 4 4 4 6 7 10 11 10 10 14 18 18 15 18 21 24 25 27 29 28 31 31 31 31 35 37 41 44 44
19 18 18 16 15 13 12 12 12 11 12 12 11 8 8 8 8 8 8 11 14 14 16 17 19 20 20 16 21 24 25 28 28 30 32 34 33 33 35 37 40 42 42
13 15 16 17 17 17 16 15 15 13 13 13 12 12 12 13 12 11 11 12 13 17 19 20 19 17 20 26 25 26 28 29 30 29 28 33 34 33 35 38 39 40 43
9 10 11 14 15 15 15 14 14 14 13 14 15 16 16 15 16 13 12 13 15 19 19 20 22 21 20 21 26 30 31 34 35 32 32 32 33 33 35 38 41 40 43
8 8 7 8 10 10 9 9 11 13 14 16 17 17 20 17 19 18 14 18 16 17 22 23 24 26 26 24 24 28 34 35 35 31 29 30 31 36 36 38 38 38 41
8 7 6 7 7 5 6 7 9 11 12 15 19 20 22 23 21 21 20 20 20 18 18 23 27 29 24 25 26 29 35 32 34 36 36 35 33 35 36 37 39 40 41
10 9 10 10 8 5 6 8 10 11 14 17 19 19 23 25 24 26 27 27 24 26 26 28 30 32 29 30 32 34 36 37 36 38 37 36 38 38 39 36 36 41 45
11 13 15 15 12 11 11 12 11 12 14 17 20 22 24 26 28 28 29 31 34 31 31 33 35 38 39 36 38 41 40 40 41 40 41 41 38 39 39 38 38 40 42
13 13 12 16 18 16 15 15 17 19 18 18 21 22 26 29 29 30 32 35 39 40 38 36 37 41 46 45 41 43 47 45 41 42 41 43 41 40 41 37 34 37 40
16 15 17 18 18 16 19 21 24 26 24 24 28 26 29 30 32 32 33 32 36 39 40 40 44 43 46 49 50 54 52 50 49 44 43 41 43 40 39 37 33 37 41
23 25 22 20 22 22 21 21 24 32 33 31 32 30 31 32 35 38 39 39 38 37 43 47 50 50 54 53 56 61 64 56 53 41 41 41 39 40 39 38 33 36 40

GFSMA_500_spd_042.txt.gz
Wind_Speed
11 11 10 11 12 14 13 14 12 11 12 9 11 13 15 14 15 16 15 15 13 12 11 11 10 10 10 10 12 12 12 13 14 14 13 13 11 11 10 12 15 17 11
13 12 13 13 14 11 10 9 9 10 10 10 8 11 11 13 13 14 13 15 11 11 10 9 10 10 10 11 12 12 13 13 13 14 13 14 14 14 16 18 20 23 15
11 11 10 10 10 9 8 7 6 3 7 11 10 6 9 9 11 12 12 13 12 10 9 9 10 11 11 12 12 13 12 12 13 13 14 15 14 14 15 17 21 24 25
10 10 9 11 9 9 10 9 7 4 6 9 10 6 8 8 8 10 8 9 10 10 9 10 11 10 12 13 14 13 15 14 13 13 14 14 13 14 16 17 19 21 22
10 11 9 10 10 10 13 14 10 7 5 8 9 8 9 7 7 7 6 7 9 9 9 11 10 10 13 13 11 12 14 14 13 13 13 15 15 15 14 14 15 17 18
8 10 10 12 14 16 16 14 15 11 10 11 9 10 8 8 8 8 8 6 10 9 9 11 9 9 11 11 12 13 13 13 13 14 14 11 11 12 14 14 15 15 16
8 10 10 12 13 16 15 14 18 13 15 14 10 12 9 10 10 10 9 8 10 9 9 10 8 8 8 11 15 15 15 14 12 11 11 11 10 11 12 11 12 13 13
8 8 9 10 12 14 14 13 17 16 15 16 11 13 11 9 10 11 11 9 8 10 10 8 8 9 10 10 12 13 13 12 11 8 9 11 11 12 12 12 11 12 12
6 7 9 9 10 11 12 12 12 12 15 16 13 13 13 10 9 9 7 8 8 9 10 8 8 10 11 12 14 14 12 13 12 11 11 12 12 10 8 8 11 13 15
5 6 6 8 8 8 9 9 10 9 8 9 11 10 7 5 6 3 4 9 8 9 8 7 9 12 13 14 17 19 18 16 15 13 8 8 9 10 11 13 15 17 20
6 4 4 4 6 5 6 7 8 9 8 7 6 5 4 4 5 7 8 6 5 5 6 8 9 12 13 15 17 19 21 21 22 19 17 15 15 16 15 18 18 21 24
5 4 2 2 4 4 4 5 6 7 6 5 3 5 4 5 8 10 9 7 5 8 9 9 11 12 12 15 17 19 19 20 21 21 20 19 19 19 18 18 20 22 24
5 4 2 1 3 5 5 4 4 4 4 2 3 3 3 4 6 10 10 9 9 9 10 12 12 14 13 14 17 19 20 20 20 20 19 20 20 21 23 23 22 22 24
8 6 4 3 1 2 4 5 6 5 3 3 3 1 2 2 5 6 7 8 8 9 8 7 11 17 18 17 18 19 20 21 23 24 21 18 21 22 23 22 23 25 26
11 9 8 7 6 6 6 6 7 7 6 6 5 5 4 3 4 4 4 6 8 8 7 10 12 12 14 17 20 22 23 22 24 24 24 22 20 22 24 24 24 26 28
12 11 13 11 10 10 9 9 10 11 10 8 9 7 7 6 6 5 8 9 9 10 10 10 11 11 14 16 19 22 24 23 24 25 24 25 26 26 24 26 26 27 29
13 15 16 15 13 13 13 11 11 13 13 10 9 10 9 10 11 12 12 13 13 11 10 12 11 13 15 19 21 22 23 25 26 27 27 27 28 28 28 26 27 28 29
15 16 17 16 16 15 13 14 13 13 15 15 12 9 10 10 11 14 14 15 18 18 18 16 16 16 16 19 23 23 23 24 27 30 31 31 29 30 32 31 30 29 29
8 8 6 9 12 13 12 11 11 12 13 13 11 9 10 8 11 13 14 16 17 19 22 24 22 21 21 22 24 25 28 29 30 32 36 38 36 41 38 39 36 34 30
7 8 8 9 9 7 6 6 6 6 6 5 5 5 8 9 11 14 16 17 20 21 23 24 26 26 27 29 30 31 33 35 36 38 40 42 46 46 45 37 38 33 31
10 10 9 8 6 6 4 4 3 2 3 4 3 4 2 5 9 11 10 13 15 18 21 24 26 28 30 33 35 35 35 38 38 45 46 48 51 53 50 46 33 27 30
11 10 8 5 4 4 3 3 2 4 7 7 4 3 2 2 4 7 9 13 16 15 16 20 23 25 29 34 37 37 37 40 43 47 48 51 53 57 48 44 42 26 25
11 9 8 8 6 4 3 3 3 6 7 5 5 3 2 5 9 11 13 15 18 21 24 25 27 27 28 32 39 41 41 43 45 49 49 51 55 53 49 42 37 25 29
13 11 9 8 7 6 7 10 12 10 8 9 9 12 11 13 13 15 18 20 22 24 27 33 33 33 36 37 40 42 41 45 42 47 52 52 54 56 48 42 37 32 33
12 11 13 12 10 12 13 13 14 17 16 16 16 16 18 18 21 24 25 26 26 25 31 33 35 38 38 42 45 48 48 50 51 51 54 59 52 48 50 38 42 31 38
14 15 13 14 15 15 16 18 20 20 18 22 23 21 21 23 24 26 29 31 33 31 35 35 36 40 44 48 50 51 49 53 57 61 59 63 58 54 54 46 43 30 23

GFSMA_500_spd_045.txt.gz
Wind_Speed
11 12 11 10 9 10 11 12 11 11 13 14 13 13 14 13 12 12 12 11 11 10 8 8 10 10 11 12 13 14 15 16 16 16 17 17 16 17 19 21 24 25 17
12 11 10 9 10 9 7 8 10 9 10 12 12 13 11 12 11 10 9 9 11 7 7 9 11 11 11 11 13 15 14 14 15 15 15 14 14 16 17 17 21 25 26
10 10 10 9 8 6 5 4 7 8 6 9 11 12 9 9 8 9 7 8 8 9 9 10 11 11 10 12 14 15 15 14 12 12 13 13 14 13 13 15 18 19 21
9 10 8 8 6 8 8 6 6 10 8 9 9 9 7 7 6 6 6 7 8 11 8 11 12 10 11 11 12 13 13 12 12 11 11 12 12 11 12 14 15 17 18
10 9 9 7 8 11 14 11 9 12 12 11 12 9 6 5 5 5 7 7 9 10 9 9 8 9 12 13 13 12 12 12 10 10 10 11 12 12 13 15 17 19 19
8 8 10 12 12 15 19 16 14 14 14 11 9 9 8 7 7 7 10 9 10 11 8 7 8 11 14 15 15 14 12 12 10 10 9 9 10 11 12 12 13 14 16
8 8 10 14 14 16 20 19 16 17 13 10 10 9 9 9 8 9 10 9 9 9 8 8 9 10 12 16 15 15 14 12 11 11 9 9 8 9 8 8 10 11 11
8 9 10 12 14 15 18 18 16 15 12 13 10 10 10 11 10 10 11 10 10 8 7 8 10 10 12 14 16 14 14 14 12 11 11 10 9 7 5 6 9 10 13
7 8 10 11 12 13 16 17 13 13 11 13 11 12 10 8 8 9 8 10 9 8 8 9 10 11 13 15 17 17 15 15 15 11 8 9 7 7 6 9 11 15 17
6 7 7 9 9 11 12 13 10 9 8 6 8 9 7 5 7 8 7 8 8 8 8 10 12 13 13 15 16 17 17 17 15 14 11 9 9 10 11 14 14 17 18
4 4 6 6 7 8 9 9 6 7 7 7 6 7 8 9 9 8 7 9 8 9 9 9 12 15 14 15 16 17 17 19 18 17 16 15 15 13 14 15 16 18 20
5 2 4 4 6 7 6 5 4 5 6 5 4 6 8 9 10 11 11 10 7 7 8 10 12 15 15 14 16 18 19 18 17 17 16 14 14 14 16 17 17 17 20
6 3 0 1 3 5 5 5 4 4 4 3 4 5 5 6 8 10 10 9 6 5 4 8 12 14 15 16 17 20 21 22 22 21 20 18 18 20 21 20 18 19 21
7 5 4 2 2 2 3 4 7 7 6 3 3 4 4 4 6 7 8 8 7 7 8 8 9 11 15 17 18 18 19 21 22 20 20 21 23 24 24 24 23 23 24
9 8 8 8 6 7 6 5 7 7 7 8 5 5 5 4 5 6 6 6 7 9 8 9 10 11 14 18 20 21 20 19 20 22 24 24 23 24 27 25 24 26 25
12 11 11 11 10 10 10 8 8 8 8 8 7 6 4 5 7 7 8 9 8 6 6 7 8 9 11 13 18 19 21 21 22 23 24 25 25 26 29 30 25 25 27
13 14 16 16 15 14 13 12 12 10 9 9 7 5 4 3 3 5 6 6 7 7 8 10 12 12 13 17 18 18 19 22 24 24 27 29 32 33 35 37 33 29 28
13 17 17 17 16 15 17 15 13 12 11 11 10 6 5 6 4 4 5 7 9 10 9 10 11 13 17 18 21 23 26 28 30 31 33 37 40 41 45 42 39 34 30
14 13 13 15 17 17 16 15 13 12 14 12 9 7 5 5 7 7 8 9 11 11 12 14 16 16 19 22 24 27 26 27 31 35 37 39 41 44 44 47 47 43 43
10 11 11 12 11 11 11 10 11 11 10 8 4 5 4 4 4 5 6 7 7 9 12 15 18 22 23 26 27 29 29 29 32 37 39 41 41 43 45 47 47 44 44
14 14 13 10 10 10 10 10 8 8 8 7 7 6 4 3 2 3 5 8 7 9 11 14 16 19 22 26 29 31 33 33 33 37 39 40 42 44 49 49 51 46 34
17 17 16 12 11 12 9 9 8 9 10 9 8 7 5 3 4 6 8 11 12 13 16 20 19 20 23 27 30 35 35 33 34 38 42 39 47 51 54 54 54 47 45
17 17 16 15 14 13 11 9 9 11 13 10 9 8 8 9 11 13 15 15 17 18 22 25 24 25 26 28 32 34 39 41 41 38 43 43 47 54 58 61 61 60 51
17 15 13 14 14 14 12 11 12 12 13 13 13 13 12 13 14 18 22 22 22 22 26 29 32 32 35 37 38 41 44 46 45 44 46 50 51 55 60 60 62 66 61
17 16 15 16 14 15 14 14 16 18 18 17 18 16 19 19 21 24 25 26 25 22 28 33 37 38 38 39 41 46 48 53 53 51 51 55 57 60 73 54 53 63 68
22 21 19 18 17 18 18 16 16 17 17 20 22 22 22 24 25 27 30 32 31 30 34 34 35 39 42 44 47 51 54 59 59 58 52 59 60 61 66 65 68 71 52

GFSMA_500_spd_048.txt.gz
Wind_Speed
9 11 11 10 11 11 10 9 9 13 11 12 12 12 13 13 12 11 9 8 8 9 10 11 13 13 15 17 15 15 15 15 14 12 13 13 13 12 16 18 21 22 19
9 9 10 10 8 9 9 9 8 11 10 11 11 10 10 12 10 9 9 8 8 10 13 12 15 14 14 15 15 15 14 13 13 12 13 12 11 13 15 17 21 21 23
8 8 8 9 8 7 6 4 6 10 9 10 9 10 8 8 8 8 8 8 9 12 14 13 14 13 14 14 15 14 14 14 12 11 10 10 11 12 15 19 23 25 24
7 9 11 12 12 9 6 6 6 9 10 8 8 8 6 7 6 7 9 9 9 12 13 13 14 13 13 13 13 14 15 13 10 9 9 10 11 13 14 18 18 19 18
10 11 11 14 14 11 8 9 10 9 12 10 8 9 7 7 8 10 9 9 8 11 10 12 13 14 15 15 13 14 14 14 12 9 8 7 9 11 11 13 14 15 16
10 11 11 15 17 16 16 14 13 13 10 10 11 11 10 11 11 11 9 9 8 9 11 12 15 16 17 16 14 12 13 12 12 10 8 7 8 9 8 8 8 10 12
12 12 12 13 17 17 17 19 17 12 10 10 11 11 12 12 12 11 9 9 8 9 11 14 14 15 17 18 16 14 13 12 13 13 11 9 6 5 5 6 7 9 12
10 12 12 15 16 16 15 15 13 11 13 11 11 11 12 12 11 11 10 9 8 9 11 13 14 15 16 18 18 16 15 12 7 7 9 5 5 3 4 5 8 8 10
10 11 12 12 14 11 12 13 14 12 11 11 12 12 11 9 8 8 10 11 11 11 11 14 15 14 15 16 16 16 15 13 13 11 7 7 6 4 7 8 8 9 11
8 11 10 10 10 9 10 11 11 9 8 7 6 8 8 8 8 9 10 10 8 10 12 14 15 15 15 16 16 17 16 15 15 13 11 12 11 10 10 10 9 10 13
8 10 10 9 8 7 6 6 6 7 8 7 7 8 11 10 8 10 9 8 10 10 11 11 12 13 14 13 14 17 18 18 15 14 14 13 14 13 14 12 12 13 14
9 8 9 8 7 6 6 3 5 4 5 5 6 8 10 11 11 12 11 8 8 9 9 10 11 13 14 14 14 14 16 17 16 17 16 16 17 18 21 20 18 18 18
10 8 7 7 4 4 6 7 7 6 3 3 4 5 6 8 10 12 11 10 8 6 8 9 10 12 14 16 16 14 14 15 16 16 15 16 17 18 21 20 18 17 19
11 8 6 4 1 2 4 5 7 9 8 3 4 5 4 6 8 10 9 7 6 4 4 5 6 9 12 14 17 18 17 17 18 20 20 23 25 24 26 28 23 20 19
12 8 5 3 4 4 2 3 4 6 6 6 5 3 7 7 8 10 10 8 7 7 8 7 6 7 10 13 16 18 18 19 22 23 26 26 26 29 30 29 30 25 24
11 9 7 6 8 8 6 5 5 4 5 5 6 5 3 6 7 7 9 8 8 9 9 8 8 8 9 13 16 19 20 21 22 23 25 29 31 32 35 34 36 42 33
12 10 11 12 13 12 11 8 8 7 8 5 5 5 1 2 4 6 7 6 5 6 8 9 9 12 13 14 16 18 20 21 22 23 27 29 32 32 35 38 38 38 41
15 14 15 15 16 16 14 11 11 10 10 8 6 7 5 4 3 3 3 2 3 4 6 8 10 12 15 16 17 20 20 21 25 26 28 30 31 33 37 41 43 44 45
16 17 15 16 17 17 15 13 12 14 13 11 8 8 6 6 5 3 2 1 0 2 6 8 10 10 12 14 16 20 23 23 24 25 28 32 35 36 41 45 47 48 46
17 16 16 17 15 15 15 13 14 14 14 11 8 9 8 7 3 2 2 2 1 2 3 6 12 15 17 21 22 24 24 26 26 29 32 34 36 39 41 44 44 47 49
17 16 15 13 10 11 14 14 14 13 11 11 11 11 9 6 4 4 3 5 5 7 9 11 12 14 17 21 25 28 28 30 29 36 38 35 38 40 44 53 54 58 58
19 17 16 15 13 16 16 14 12 10 10 12 13 11 9 5 6 8 8 9 10 11 14 14 14 15 17 22 27 29 32 34 32 33 39 42 46 46 47 52 53 60 60
21 20 19 16 16 17 15 15 13 12 14 13 13 13 10 9 9 12 14 13 12 15 19 19 20 22 24 27 29 32 36 39 40 39 44 43 47 51 53 54 55 61 59
20 19 18 18 18 17 17 16 14 12 13 13 13 12 10 13 15 17 18 18 19 22 24 28 29 26 30 31 36 39 42 45 45 47 49 50 51 51 54 55 57 63 66
22 20 20 19 19 19 19 18 16 14 15 16 16 15 16 17 19 23 25 25 23 24 29 32 35 37 37 38 43 47 47 48 48 47 47 51 52 56 58 58 59 62 67
25 23 21 19 19 20 20 19 14 9 6 12 19 21 20 21 23 27 29 28 28 31 35 36 36 37 41 43 48 51 50 53 55 57 55 57 55 57 57 55 56 60 65

GFSMA_500_spd_051.txt.gz
Wind_Speed
10 9 9 9 8 8 10 10 11 11 13 12 12 13 12 12 12 10 12 13 8 11 13 16 15 14 14 15 14 14 14 15 13 11 12 11 12 13 16 18 21 22 21
11 8 7 7 7 8 9 11 9 10 12 12 11 11 11 10 10 9 12 12 8 13 13 14 15 14 15 15 15 15 14 13 11 11 11 12 13 12 13 14 14 16 14
10 7 6 6 6 6 8 10 9 9 10 10 10 10 10 9 10 11 13 14 12 14 14 14 13 11 12 15 16 16 15 12 11 11 12 11 11 12 12 13 14 13 12
11 9 8 7 6 7 9 11 10 9 9 8 7 9 9 9 10 11 12 13 12 12 14 12 13 12 12 14 15 17 16 14 12 11 10 10 10 10 11 11 9 9 8
13 12 11 9 8 9 9 11 12 10 9 8 9 10 10 11 11 12 13 13 11 13 14 12 16 16 14 14 15 13 14 11 9 8 9 7 7 7 7 6 8 8 9
13 13 13 14 13 12 11 13 13 12 13 11 11 13 12 13 12 12 12 12 12 12 14 17 18 20 16 14 13 13 14 10 8 6 6 5 4 5 6 9 8 7 7
14 13 16 19 18 17 14 14 13 13 12 11 12 12 13 13 12 11 10 11 11 13 15 17 19 22 24 22 15 12 10 11 10 8 5 4 6 6 7 9 8 6 8
14 16 17 19 17 15 14 13 12 12 11 10 11 13 13 12 10 9 8 9 12 14 14 15 17 18 18 18 20 19 16 9 7 7 7 6 6 7 9 8 8 9 9
13 14 15 15 16 15 14 15 14 12 11 10 10 10 9 8 8 9 8 10 12 14 16 15 14 14 15 16 14 13 13 11 11 11 9 7 9 10 11 12 12 12 13
13 12 13 14 13 13 12 11 11 11 11 7 5 6 8 8 7 9 9 9 9 11 12 12 12 12 12 12 13 13 11 8 8 10 11 13 14 15 15 14 13 14 16
12 12 11 11 9 8 9 7 7 8 9 7 6 7 9 9 8 8 10 10 8 8 8 9 9 10 11 11 11 12 11 12 14 14 14 16 15 17 21 21 19 18 16
12 12 11 10 8 6 6 6 4 5 7 8 8 9 10 10 10 10 9 9 9 9 8 9 12 11 10 9 9 9 11 13 13 13 14 15 15 18 21 21 21 20 21
13 12 12 11 10 8 9 7 5 4 4 4 5 7 10 10 10 11 10 8 7 6 6 10 11 12 13 15 14 14 15 14 14 17 16 17 19 21 24 23 28 27 21
14 13 12 9 9 9 8 8 8 7 6 4 4 6 9 10 10 10 8 7 5 3 2 6 7 9 11 13 16 14 14 14 14 14 16 20 22 24 24 27 27 23 25
16 13 12 10 8 7 6 5 4 4 4 5 4 6 8 10 11 9 8 8 7 5 5 7 7 9 9 11 11 10 11 12 14 16 18 19 23 24 25 27 29 29 32
17 14 13 11 9 7 6 5 3 3 2 2 3 5 8 9 10 10 11 11 11 9 9 8 7 7 7 9 10 11 11 13 16 16 18 22 25 25 27 30 30 34 39
18 15 13 11 10 10 7 5 6 6 5 2 1 2 7 9 8 9 9 10 9 7 7 5 4 5 7 9 11 13 13 15 16 18 19 24 26 28 30 33 35 39 42
21 19 16 15 13 12 9 8 8 8 8 5 5 2 6 9 8 7 7 6 5 3 2 4 6 7 10 12 12 14 15 18 20 22 23 24 27 29 33 38 41 44 47
24 21 18 16 16 13 11 10 10 10 9 9 9 6 7 11 10 8 6 4 2 0 2 6 8 9 11 12 14 16 19 22 25 27 27 32 32 31 36 39 44 47 50
26 23 20 18 16 15 13 12 12 12 12 11 11 9 10 12 11 8 5 2 3 1 3 5 10 11 12 15 17 19 20 24 25 30 30 33 36 40 42 44 46 48 50
27 25 21 19 16 14 13 13 15 15 13 13 13 13 13 13 10 8 6 2 3 4 6 7 9 10 14 18 21 25 25 25 28 31 34 38 40 41 45 47 48 49 51
28 24 21 19 15 16 16 15 14 14 13 14 15 15 14 12 9 6 5 6 6 7 9 10 12 13 16 20 26 27 29 32 32 38 38 36 43 43 45 49 49 51 54
28 24 23 20 17 19 18 16 16 13 12 12 13 14 15 13 8 7 7 9 11 13 15 15 15 18 19 25 27 30 33 35 36 41 46 42 44 45 45 49 50 51 54
28 27 25 23 18 21 18 18 16 13 11 13 15 16 15 13 12 13 12 13 16 18 18 19 19 21 25 28 32 34 36 37 35 36 44 44 45 46 45 44 48 50 50
30 28 28 24 20 20 18 17 15 12 11 13 15 16 16 16 17 18 18 19 19 21 24 24 26 27 29 33 37 39 41 42 40 39 45 50 47 46 44 45 45 48 52
32 29 27 22 21 20 18 18 15 9 8 13 18 16 17 17 20 22 21 21 20 23 25 26 26 29 31 35 40 45 45 47 49 48 50 54 51 51 48 44 40 47 51

GFSMA_500_spd_054.txt.gz
Wind_Speed
11 9 7 8 8 10 11 11 14 15 14 14 13 13 11 11 12 9 10 12 13 13 12 11 11 12 13 13 13 13 12 11 9 8 9 9 9 11 12 11 10 10 8
9 8 6 7 8 7 8 10 11 13 13 13 12 11 10 11 13 10 11 12 12 13 12 11 10 11 13 15 15 15 14 14 13 14 13 11 9 10 10 11 10 10 8
9 6 5 5 5 7 8 8 9 10 11 11 10 10 10 11 13 12 14 14 14 13 13 12 10 8 12 15 16 16 14 13 13 13 11 10 9 9 9 9 9 9 9
10 8 6 5 7 8 9 9 9 9 10 9 8 9 10 11 12 13 13 14 13 12 12 12 11 9 9 11 13 14 12 11 10 10 8 8 9 9 8 9 9 10 11
11 10 7 7 9 11 12 11 10 10 10 9 7 9 10 11 13 14 14 14 13 13 15 15 14 12 11 11 12 10 9 8 8 6 7 7 7 8 10 14 14 12 11
15 12 12 12 12 13 13 14 12 12 13 12 10 11 12 12 11 13 13 14 14 15 17 21 22 19 15 11 11 10 8 8 7 6 6 8 10 11 15 17 15 15 14
15 15 18 16 16 14 13 15 14 13 13 13 11 11 11 10 10 10 12 12 14 15 18 19 21 20 19 17 14 9 7 10 10 10 10 11 11 10 13 14 14 15 15
17 18 18 16 15 15 14 13 14 12 11 11 11 10 8 8 7 9 10 11 12 14 15 17 16 15 14 15 15 15 15 13 11 11 11 12 12 11 12 13 14 15 16
17 18 18 16 15 13 12 12 12 11 11 10 8 6 5 6 7 9 9 10 11 11 11 12 13 12 11 10 8 7 7 6 6 8 9 11 13 14 14 15 16 17 19
16 16 16 15 16 14 13 12 12 11 10 8 5 3 4 6 6 8 8 9 8 8 9 9 9 9 9 9 8 8 8 10 11 11 11 12 14 17 18 21 20 20 23
13 13 13 13 12 11 10 9 8 8 8 7 6 6 5 7 7 7 7 8 7 7 7 7 7 7 7 7 7 8 9 9 9 10 11 13 16 17 18 20 23 23 23
13 12 11 11 10 9 8 7 6 6 6 6 7 8 8 7 7 8 8 9 8 7 7 7 7 6 4 4 5 6 7 10 8 9 12 15 17 17 17 21 23 24 29
13 11 10 8 8 8 9 7 6 5 5 5 6 8 10 9 7 7 7 6 7 6 7 5 6 8 10 11 9 8 7 7 8 11 13 17 17 17 19 20 23 25 30
13 12 11 8 7 8 9 9 8 7 5 4 5 7 9 9 8 8 7 5 4 3 2 4 6 8 10 10 8 6 5 9 11 13 14 19 22 22 22 20 23 28 34
15 14 13 11 9 8 8 8 6 5 6 5 6 8 10 10 9 8 7 6 5 4 3 4 7 7 5 4 4 6 8 10 11 14 16 18 21 23 24 26 30 31 37
19 16 15 14 11 9 7 6 5 4 4 4 4 7 9 10 8 8 8 7 7 7 6 5 5 4 3 5 7 7 8 10 12 14 15 17 23 23 24 30 34 37 40
21 18 17 15 13 11 10 9 8 7 5 3 2 5 10 10 10 10 10 9 8 7 5 3 2 3 6 6 6 7 9 12 16 17 17 19 23 25 28 34 37 40 43
24 22 20 18 16 15 13 13 11 10 8 6 4 5 11 12 11 11 11 10 8 6 4 4 3 3 4 6 9 10 14 16 17 19 23 27 29 32 34 36 39 42 43
25 23 22 20 20 17 16 15 14 13 11 9 8 7 11 16 15 12 9 8 7 5 4 1 2 6 8 8 10 13 15 17 21 24 26 30 34 38 41 41 43 43 45
26 25 25 24 22 18 17 16 16 15 13 11 11 9 11 16 15 12 8 8 7 6 4 3 7 9 11 13 14 17 20 22 24 27 29 32 36 37 39 43 46 46 47
28 28 27 26 22 18 17 18 18 16 13 11 12 11 13 18 17 15 11 7 5 4 4 6 8 10 13 15 17 18 19 22 26 29 28 32 35 38 42 39 42 49 51
30 30 29 28 23 19 19 19 18 15 12 11 13 13 14 17 17 15 10 7 5 6 6 6 9 10 12 15 16 20 22 24 23 31 32 32 40 40 44 44 46 44 45
32 32 31 28 24 21 21 20 16 15 13 12 13 14 15 18 17 15 10 6 4 6 9 10 10 13 13 18 19 20 23 26 28 30 33 31 38 39 42 44 45 46 48
32 33 31 28 26 21 22 21 17 15 12 11 12 13 15 18 18 15 11 8 7 10 13 13 13 13 14 17 21 24 27 27 31 34 37 36 39 41 40 40 44 46 47
32 31 30 29 26 23 22 21 17 14 11 11 11 12 16 18 18 16 12 11 12 13 16 16 15 16 20 24 28 28 33 34 31 33 41 45 45 46 43 42 46 47 46
33 33 32 31 28 26 23 19 17 14 12 12 13 15 18 18 18 18 15 12 9 11 16 16 18 19 22 27 34 39 39 39 38 33 40 47 47 51 44 41 45 49 49

GFSMA_500_spd_057.txt.gz
Wind_Speed
11 11 11 8 10 12 12 14 13 12 13 12 11 13 9 10 11 12 11 12 12 12 11 10 10 10 11 13 15 16 16 17 17 16 15 13 14 15 15 14 13 15 14
10 9 11 9 9 9 11 11 12 13 13 11 10 12 9 10 11 11 11 12 11 11 11 11 10 9 11 13 16 17 17 19 18 16 15 13 13 13 13 13 14 14 14
8 7 7 8 8 9 10 10 10 10 9 9 9 11 10 10 12 13 12 12 12 11 11 11 9 9 12 14 15 16 16 17 16 13 12 12 14 14 14 15 14 15 16
7 7 6 5 7 8 8 9 9 9 8 8 8 9 11 11 12 13 12 12 12 12 12 12 10 10 12 13 15 15 15 16 14 14 14 12 12 13 15 19 19 17 17
8 8 8 8 8 9 9 8 7 6 6 7 7 8 10 12 13 13 14 14 15 17 16 16 15 13 13 12 12 12 11 11 11 11 11 12 14 15 17 18 18 19 20
9 11 10 12 12 12 10 9 10 8 7 9 9 9 11 10 11 12 13 14 17 19 19 18 17 13 12 11 12 12 13 13 13 12 13 15 15 16 18 19 20 20 21
11 14 14 14 14 13 13 10 10 9 7 9 9 9 10 10 10 10 11 13 14 15 16 16 16 15 13 14 12 10 10 13 13 14 15 15 16 18 19 20 21 22 23
15 15 17 17 16 15 12 11 10 10 9 8 8 8 8 8 9 9 11 10 12 12 12 14 14 14 13 13 13 12 12 13 13 14 14 15 17 18 21 22 22 23 27
16 16 15 15 15 15 14 12 10 9 8 7 6 5 5 6 7 8 11 10 9 9 9 11 11 12 12 12 12 10 11 11 11 13 14 17 18 21 21 24 25 25 30
15 14 14 12 12 11 11 10 8 8 8 5 3 3 4 5 8 7 8 10 9 7 9 9 9 9 10 11 12 13 11 11 10 12 18 19 20 20 22 21 23 26 29
14 13 13 11 9 9 9 9 8 7 5 5 3 3 4 4 5 8 6 8 7 7 6 6 7 7 7 8 9 9 9 12 12 15 16 18 16 17 15 20 20 25 33
12 12 12 10 7 6 5 5 6 5 4 5 5 5 5 5 5 5 5 6 5 5 5 5 5 6 4 4 6 8 11 11 13 15 16 16 16 18 20 22 26 31 33
14 11 10 9 7 3 3 4 4 4 5 6 6 6 6 6 5 5 4 3 2 3 3 4 5 6 7 6 6 8 11 10 11 12 13 16 19 20 22 25 29 32 35
13 12 10 9 7 5 4 2 3 4 5 6 7 7 7 5 5 4 4 3 1 1 3 4 5 6 7 6 6 6 8 10 12 12 15 18 22 23 24 28 31 33 36
16 15 12 9 6 6 6 4 4 4 6 5 7 8 7 6 5 4 3 1 1 1 3 4 4 4 4 4 5 5 8 9 11 12 15 17 20 22 24 28 32 35 38
19 17 14 12 9 8 6 4 3 2 3 4 6 9 9 8 6 5 3 2 4 3 4 4 3 3 3 3 4 5 7 9 12 14 14 16 21 26 29 32 35 37 39
22 20 18 15 13 10 8 7 7 6 4 4 4 8 10 9 8 7 6 6 7 5 4 3 3 3 2 3 5 6 9 11 12 14 18 23 27 30 32 35 37 40 43
25 24 22 19 17 14 12 11 11 11 9 7 7 7 12 12 11 10 9 8 8 7 5 4 2 1 4 4 5 8 10 12 14 18 20 25 30 36 40 42 44 45 45
25 26 24 22 20 17 15 14 14 15 12 11 10 9 12 16 15 13 12 10 9 7 6 3 2 3 3 4 5 6 8 11 16 19 20 22 26 29 33 38 41 45 47
25 26 26 25 23 19 17 15 16 17 15 15 15 13 13 17 17 15 13 12 11 9 7 5 3 4 4 5 6 9 13 16 20 24 25 28 29 31 33 33 36 38 42
25 28 28 27 24 19 17 17 17 17 16 17 16 14 14 18 19 16 14 11 10 9 7 6 5 6 7 8 9 11 12 16 20 24 24 27 30 33 38 40 39 39 40
28 29 28 28 25 22 18 18 18 16 14 14 14 15 14 17 20 19 15 11 9 8 6 6 8 9 9 11 11 13 14 14 17 28 24 26 29 31 36 40 41 40 42
33 30 30 29 27 24 20 19 19 16 13 12 14 15 13 17 21 20 16 13 11 8 6 6 8 10 10 14 13 15 20 21 23 27 30 28 32 33 35 39 40 39 41
35 33 32 31 29 25 22 19 19 16 13 13 13 15 15 18 21 21 18 15 12 8 8 8 9 11 12 14 17 19 22 23 26 29 33 31 35 35 37 41 43 44 48
36 33 34 32 29 27 24 21 20 17 14 15 14 15 15 15 19 22 21 16 11 11 13 12 10 11 14 18 22 25 26 26 26 33 35 33 35 39 40 43 43 43 44
33 34 34 32 31 29 27 22 21 18 17 17 15 16 14 14 17 20 18 16 14 14 15 14 14 15 20 23 26 28 30 31 31 27 36 35 37 41 38 39 45 43 46

GFSMA_500_spd_060.txt.gz
Wind_Speed
7 12 12 12 12 10 12 12 12 10 14 11 11 11 11 12 11 12 12 13 13 13 14 14 13 14 17 18 20 21 23 23 23 21 22 21 19 18 18 18 18 19 21
9 9 10 11 8 9 10 10 11 10 10 10 8 10 10 12 12 11 11 12 12 13 14 14 13 15 18 20 22 22 22 23 21 20 19 18 19 20 21 23 21 20 20
9 11 8 9 9 8 9 9 8 8 7 8 6 8 10 13 13 11 12 12 13 14 14 14 14 17 20 21 20 21 21 20 19 19 18 18 19 19 21 22 21 21 22
8 8 9 6 8 8 7 7 6 6 5 7 8 8 11 12 13 12 12 13 14 15 16 16 17 18 18 18 17 17 16 17 17 16 17 18 18 20 22 22 23 24 25
6 9 4 8 10 10 7 6 5 4 4 6 8 11 9 11 11 12 13 14 16 16 16 16 15 15 15 14 16 16 17 17 16 16 18 19 21 21 22 24 25 27 28
5 10 10 10 12 12 9 7 7 5 6 7 8 11 12 12 13 12 13 14 17 18 19 17 16 14 12 14 14 14 16 16 19 20 20 21 22 23 23 22 24 25 28
9 8 9 11 11 10 10 10 7 8 8 9 10 9 10 11 11 11 12 15 16 16 16 17 18 16 17 17 15 16 17 19 20 20 22 23 24 26 28 27 26 28 28
13 13 12 12 10 9 9 8 6 9 8 9 10 10 8 8 9 11 10 12 13 14 15 17 15 15 15 15 14 16 19 20 21 23 23 23 24 24 23 24 25 28 28
16 15 15 14 12 9 8 7 6 6 8 7 8 8 8 8 8 11 9 10 10 13 12 13 14 14 15 18 16 19 20 19 20 22 21 20 20 22 21 21 25 28 31
14 14 14 14 11 9 7 6 6 4 4 4 5 7 9 7 11 10 8 10 10 10 11 15 11 13 12 16 16 18 17 18 19 19 20 18 17 18 21 27 28 29 33
13 12 12 12 9 8 5 3 5 3 2 3 4 4 7 7 7 9 7 7 8 10 11 11 10 11 12 15 14 15 17 17 17 17 17 15 17 19 23 27 29 30 33
11 11 8 7 7 5 3 1 1 1 2 3 3 3 5 6 7 7 6 7 6 7 9 9 8 9 9 11 14 15 14 14 14 14 15 19 21 23 24 28 30 33 36
10 9 8 5 4 2 1 1 1 1 2 4 4 2 3 4 6 6 6 5 5 6 8 8 9 10 10 10 13 12 12 13 12 14 17 18 20 23 25 28 32 34 35
11 11 9 6 5 2 2 3 2 2 2 3 4 2 1 3 3 5 3 3 4 6 8 9 9 10 9 9 9 9 11 11 12 14 16 17 20 24 28 30 31 33 35
15 13 11 9 7 4 3 5 4 4 4 2 4 4 2 1 1 3 3 3 5 6 7 9 8 6 6 6 8 8 9 12 13 13 14 17 22 26 27 30 32 34 36
17 15 13 10 7 7 6 4 3 2 2 2 2 5 5 4 3 2 2 3 4 5 6 6 6 4 5 6 5 6 8 10 13 15 17 20 23 27 32 35 36 37 39
19 18 15 13 11 10 9 6 3 2 1 1 2 6 7 6 6 5 5 6 5 5 5 5 4 4 4 4 5 6 8 9 11 12 13 17 25 28 31 33 39 40 40
22 22 20 17 15 13 11 9 7 5 5 5 6 5 8 9 9 8 8 8 8 5 5 4 3 2 3 4 4 5 7 9 12 16 19 21 22 25 28 32 33 34 36
23 24 23 21 19 17 15 11 10 9 8 8 9 9 9 12 12 11 11 10 10 9 6 4 2 1 1 1 1 4 6 8 11 13 16 22 24 26 29 30 32 35 36
23 24 25 24 23 20 17 14 13 12 11 11 12 12 12 14 16 14 12 11 10 9 8 5 4 3 3 3 4 5 8 10 14 20 22 25 28 26 29 32 37 39 41
24 24 25 25 25 21 19 17 16 14 13 12 13 14 14 15 18 17 15 15 12 10 10 9 8 8 7 6 5 8 8 10 16 20 21 24 25 26 30 33 35 38 39
26 25 24 24 24 21 21 19 18 16 13 12 13 15 16 16 16 19 18 14 13 13 13 11 10 10 9 10 10 11 11 13 15 23 22 22 26 27 28 32 35 36 37
30 28 26 25 25 24 22 21 20 17 14 13 13 14 16 16 17 20 21 18 16 15 13 12 11 12 12 13 13 14 17 19 19 23 27 23 23 25 28 32 36 38 41
31 31 29 27 27 27 26 23 22 18 15 13 14 15 15 16 18 20 23 20 20 17 15 14 12 13 12 12 14 18 21 23 24 25 28 25 26 26 29 34 38 39 40
30 30 31 30 28 28 28 26 24 19 16 16 16 16 16 16 18 19 21 22 21 18 16 15 13 12 10 12 19 22 24 27 27 27 31 27 28 27 30 34 37 38 39
29 30 31 31 32 31 31 29 27 23 18 18 19 18 18 18 17 17 21 24 22 20 19 17 16 13 15 17 20 24 26 28 28 27 31 26 30 31 26 32 38 39 38

GFSMA_500_spd_063.txt.gz
Wind_Speed
9 11 11 12 11 15 15 14 16 11 12 14 14 9 15 15 14 15 15 16 16 17 17 19 21 24 25 27 29 29 26 24 23 22 22 23 23 23 23 23 23 23 23
8 7 8 9 9 10 13 12 13 12 11 11 12 12 12 13 15 14 15 17 18 18 20 22 24 25 27 27 27 24 22 22 21 21 21 22 22 23 24 23 24 23 23
7 5 7 7 7 7 9 12 12 9 9 10 12 13 12 11 14 13 13 15 18 21 23 24 24 25 24 24 22 21 22 20 19 20 21 21 22 25 24 23 24 25 26
5 5 4 5 6 6 7 8 10 10 10 9 10 11 14 12 11 13 13 13 14 18 20 19 20 21 20 19 17 18 20 20 21 22 23 23 23 23 22 24 25 29 30
6 5 1 6 5 6 4 7 9 9 10 10 10 9 11 13 12 13 16 16 18 19 19 18 19 18 18 19 19 21 23 24 24 24 25 26 25 26 27 27 27 27 27
6 4 5 7 6 6 4 7 8 9 10 11 11 10 11 12 12 15 18 21 22 22 21 21 21 18 18 20 22 23 25 26 26 26 27 27 27 25 24 24 25 26 27
5 7 6 8 8 5 7 10 9 10 11 11 11 10 11 11 12 12 14 18 18 20 19 18 20 20 19 20 23 25 24 26 26 26 26 25 22 22 21 22 23 27 30
12 11 10 9 9 7 8 8 10 9 11 11 9 12 11 10 12 11 12 15 17 17 18 18 19 20 21 24 22 22 22 24 24 23 22 21 22 22 22 24 27 31 34
14 13 12 11 9 9 9 8 9 8 9 10 7 9 11 10 12 10 10 16 14 17 14 17 18 19 20 22 21 20 21 21 22 21 20 20 20 21 23 27 31 33 35
15 15 12 11 11 10 9 8 8 6 8 7 8 6 12 10 10 11 12 12 13 17 13 17 17 17 18 20 21 20 19 19 19 18 19 19 21 23 25 28 30 31 33
14 14 12 10 9 9 8 7 6 6 5 3 7 7 9 9 7 9 10 10 11 13 14 16 16 17 16 18 18 17 16 15 15 15 18 19 20 22 26 28 29 31 34
14 13 10 8 5 6 5 5 4 4 3 3 6 8 8 9 10 9 7 7 13 10 12 13 16 16 16 15 14 13 13 13 14 16 16 17 19 23 27 29 29 31 32
11 10 8 5 3 3 4 4 4 3 3 2 4 7 9 9 8 10 7 10 12 12 13 16 17 16 14 12 10 11 11 11 14 16 15 16 20 25 27 29 30 32 34
11 10 7 5 2 1 2 4 5 5 3 2 3 6 7 9 8 7 8 10 9 12 12 13 14 13 10 9 9 10 10 12 13 12 14 19 23 25 29 30 31 33 36
13 10 8 6 3 1 2 6 6 6 5 3 1 3 4 6 8 8 7 9 9 10 11 10 9 8 7 7 7 8 10 11 13 15 16 20 23 27 30 30 31 34 36
15 12 10 8 7 5 4 4 5 4 3 4 1 0 2 4 5 6 6 7 7 7 8 8 7 6 4 4 5 5 5 8 10 12 15 19 22 24 26 28 31 34 36
17 15 13 11 9 8 8 5 4 2 1 1 0 1 3 3 4 4 5 7 7 7 6 6 5 3 2 2 2 4 5 8 11 14 17 19 21 22 23 26 29 32 34
20 20 17 16 14 12 11 7 5 3 2 3 3 3 5 6 5 6 6 6 6 6 5 5 4 2 1 1 3 6 8 10 12 14 16 18 20 22 23 27 29 32 36
21 22 21 18 16 14 12 10 9 7 5 6 7 7 7 8 10 9 9 10 9 7 5 4 2 2 3 4 4 5 7 10 12 13 17 21 24 26 29 28 30 33 36
22 22 22 21 19 18 15 13 12 10 10 9 10 10 10 10 12 13 12 12 12 11 10 8 6 5 6 6 7 6 9 10 12 16 21 25 26 27 28 29 31 33 34
24 23 23 22 21 19 18 17 15 13 12 12 12 12 12 13 12 14 15 15 15 13 12 12 11 10 9 9 7 8 9 10 14 18 19 25 27 28 29 30 31 31 33
27 25 23 22 21 20 20 20 18 15 13 13 12 12 13 14 15 15 17 17 17 17 16 15 14 14 12 11 9 10 11 14 16 23 19 25 27 28 27 28 30 31 33
30 28 25 23 21 22 21 20 21 18 15 13 13 13 15 16 17 17 18 21 19 18 18 18 17 16 14 13 12 15 15 16 19 23 24 25 26 27 26 29 30 33 35
29 30 29 27 25 24 24 23 22 21 18 15 15 15 17 18 19 20 20 21 22 21 20 19 18 17 12 14 17 18 18 18 20 24 25 24 25 26 29 31 32 33 35
29 28 30 30 28 27 27 26 25 23 21 18 17 18 18 19 20 21 20 20 24 25 24 21 18 16 16 18 19 19 20 21 20 23 29 23 24 23 27 29 31 32 34
28 32 31 31 31 31 31 29 27 26 24 21 20 21 21 21 22 20 19 21 24 28 26 22 19 17 17 18 18 18 22 26 30 29 31 24 26 24 24 27 30 31 32

GFSMA_500_spd_066.txt.gz
Wind_Speed
9 10 11 11 11 13 12 16 14 16 13 16 16 15 16 13 16 17 19 19 20 22 23 26 28 28 29 29 26 25 24 22 22 22 22 21 21 22 21 20 21 24 29
8 10 8 12 9 11 13 14 15 16 14 14 14 14 15 13 16 18 21 23 23 24 25 27 26 26 27 26 24 23 21 21 21 20 20 21 22 22 23 24 26 29 32
7 6 7 9 9 9 11 12 14 14 16 12 12 12 13 16 14 15 16 19 22 23 25 25 24 23 23 21 21 21 21 21 21 20 20 22 24 25 25 25 29 31 30
6 3 5 5 8 7 9 9 12 14 14 12 14 11 12 14 14 16 16 17 18 19 19 20 20 21 22 22 22 22 24 22 22 24 25 26 26 26 26 27 28 28 28
2 5 3 4 5 7 9 10 10 13 13 12 11 11 11 13 15 18 19 19 19 19 19 20 22 22 23 22 23 24 23 25 27 27 26 25 23 24 25 26 26 27 26
5 3 6 7 8 7 9 10 12 14 13 11 11 11 10 12 16 19 21 22 23 22 20 19 21 22 22 25 23 24 27 26 26 25 23 22 23 23 25 25 26 26 28
6 8 11 8 10 12 11 11 12 13 13 11 10 11 10 12 13 15 17 20 20 20 20 20 19 21 25 24 23 23 24 23 23 22 21 20 21 22 24 25 27 31 33
8 11 10 9 12 11 10 11 12 10 12 10 9 11 10 10 11 12 13 15 19 19 19 20 20 23 23 23 22 21 21 21 21 20 19 20 21 23 26 27 30 32 34
10 10 10 10 10 10 11 11 11 9 9 10 11 8 10 10 9 10 11 12 15 18 19 20 21 20 20 21 21 21 20 19 20 19 18 19 23 25 25 28 30 32 33
12 12 12 12 11 10 10 8 9 6 7 11 13 11 11 12 9 8 8 11 13 17 19 19 20 20 20 20 18 18 17 16 15 15 16 19 23 24 27 30 31 32 34
12 12 13 12 10 8 8 7 7 5 7 8 13 12 12 12 10 8 8 8 9 15 18 18 20 19 19 17 15 15 13 12 12 13 15 19 21 25 27 29 31 33 35
12 11 11 10 9 8 7 5 5 5 5 7 11 15 12 10 12 11 10 10 11 13 18 20 19 18 15 13 12 11 11 11 11 12 15 18 21 22 27 29 31 33 36
13 11 8 7 7 6 5 5 5 4 4 5 8 12 16 10 10 13 11 13 15 15 17 18 16 14 11 10 10 9 10 10 11 11 16 20 21 24 26 26 32 33 34
13 9 6 5 4 5 5 6 7 5 4 4 7 10 9 13 10 12 10 13 14 16 15 13 10 9 8 8 8 8 9 8 10 14 17 19 24 26 26 26 29 31 33
13 9 7 4 1 2 5 6 6 6 6 4 5 7 8 9 10 11 12 11 11 14 11 10 7 6 6 6 5 6 7 9 11 13 15 21 22 24 25 27 29 31 33
13 11 10 7 3 1 3 4 4 4 5 5 4 5 5 6 6 9 11 13 10 9 9 7 6 4 3 2 3 5 6 8 10 13 19 22 23 24 26 27 28 31 33
15 14 12 8 6 4 4 4 3 2 3 2 1 3 4 5 5 7 7 8 11 10 9 7 5 4 2 0 2 4 6 9 13 15 18 21 23 24 26 28 30 32 34
18 16 13 12 11 10 9 7 4 3 1 2 3 2 5 6 7 6 7 8 8 10 10 8 6 4 3 2 2 4 7 10 12 13 16 20 22 24 25 27 29 32 33
23 22 19 17 16 14 13 11 9 6 4 4 5 6 6 8 10 9 9 10 9 8 8 8 8 6 5 4 4 6 8 11 13 12 16 20 24 27 29 30 29 32 35
23 23 23 22 20 19 17 15 14 11 7 7 7 8 10 10 10 12 13 13 12 12 11 10 10 9 7 7 7 7 10 9 13 16 20 23 27 29 29 29 29 32 34
25 24 24 23 22 20 20 18 17 16 13 10 9 11 12 14 13 14 16 17 17 17 15 16 15 14 13 11 10 11 12 11 14 15 19 24 27 29 30 31 31 33 33
28 26 24 23 22 21 22 22 21 19 17 14 12 12 14 16 16 16 18 20 20 21 20 19 19 19 17 14 13 14 15 15 15 20 18 24 27 27 28 29 29 30 33
31 29 27 26 23 23 24 24 23 22 22 19 15 14 14 16 18 18 19 21 23 23 23 23 23 23 21 17 17 16 16 17 19 21 21 24 28 31 29 29 30 31 34
31 30 30 29 27 25 25 25 25 25 24 22 19 18 18 18 19 19 20 21 23 25 26 23 23 23 21 20 19 16 17 16 17 22 25 27 28 31 29 28 29 31 33
33 31 32 32 30 29 29 27 27 25 25 25 23 21 20 21 22 21 21 21 22 24 29 27 24 22 23 23 20 17 20 19 17 24 28 24 30 28 28 27 28 29 31
32 35 34 33 33 33 33 32 30 26 25 26 25 23 23 24 25 23 23 22 21 25 27 31 28 26 26 25 23 21 20 19 20 25 25 30 32 28 25 26 27 29 29

GFSMA_500_spd_069.txt.gz
Wind_Speed
12 12 13 13 13 15 14 12 14 15 14 15 14 13 15 11 15 17 17 20 23 25 28 28 26 25 25 24 22 20 21 20 20 20 20 21 22 22 22 25 28 30 31
11 11 11 12 12 13 15 13 14 15 14 14 13 12 12 12 17 19 20 22 25 26 26 26 24 24 23 21 20 20 19 19 19 20 22 24 23 23 27 29 29 29 28
7 9 9 11 11 12 13 14 12 15 15 13 12 11 12 13 13 19 21 22 23 23 23 22 22 21 21 20 20 21 19 20 22 24 24 23 24 25 25 26 27 28 28
4 7 7 7 11 11 12 13 10 13 14 12 11 11 13 15 15 16 19 20 18 19 19 19 20 22 21 21 22 22 23 24 24 22 22 23 24 24 25 26 26 28 28
4 5 7 7 9 10 12 14 12 10 11 11 10 12 14 15 16 16 15 17 17 18 20 21 21 21 23 22 23 24 23 23 21 21 23 23 23 25 26 26 28 29 30
3 5 7 8 10 12 12 14 13 11 11 10 11 14 16 17 18 18 19 19 19 20 20 21 20 22 22 24 23 23 22 21 19 21 22 22 24 24 26 28 29 31 33
4 5 7 9 12 13 12 11 10 11 10 10 9 13 15 15 15 15 15 18 20 20 19 19 22 20 21 21 22 21 20 19 20 21 22 23 24 26 27 29 31 33 35
8 9 10 10 10 12 10 10 9 11 10 9 7 10 12 14 13 13 12 14 16 17 17 20 20 18 19 20 20 20 19 19 18 19 22 23 24 26 27 30 32 35 37
11 11 11 11 11 10 9 8 9 9 9 10 10 9 9 11 11 11 10 11 14 16 18 20 19 18 18 18 17 18 17 14 15 18 21 21 24 27 28 31 33 35 38
11 11 11 12 12 10 10 8 9 8 8 9 12 11 9 12 11 9 8 7 11 14 16 17 18 18 17 15 15 14 13 12 13 17 19 20 22 25 27 32 33 35 37
12 12 10 10 11 9 10 8 8 7 9 8 12 12 10 12 10 9 8 8 8 12 15 16 16 15 14 13 12 11 10 10 12 16 17 20 22 21 24 32 32 34 36
13 11 9 8 8 8 7 6 6 7 10 9 13 14 11 11 10 8 9 12 11 15 16 16 14 12 10 10 9 9 10 11 13 15 19 19 22 21 29 30 31 33 35
14 12 9 8 8 8 7 6 4 7 10 9 11 14 14 10 11 10 11 15 17 18 17 14 11 9 7 7 7 8 10 11 13 16 18 22 26 27 27 29 30 33 35
15 10 8 7 6 7 6 6 5 5 8 10 10 11 13 12 10 11 10 14 17 19 17 13 10 7 6 7 7 7 7 10 14 16 17 23 27 29 29 31 32 34 35
12 11 9 5 5 4 7 7 6 5 8 9 8 11 12 11 9 10 10 11 13 14 12 9 7 6 5 5 6 6 7 10 12 12 18 23 27 27 29 31 31 34 36
14 12 10 7 6 7 7 7 5 5 5 8 9 9 11 10 9 10 10 11 11 10 9 7 6 4 3 3 4 4 5 8 9 12 18 21 23 25 29 30 30 32 35
16 14 12 9 8 7 9 7 6 5 3 3 5 8 9 9 9 8 8 8 9 8 7 7 5 3 2 1 1 3 6 7 10 12 16 19 22 23 26 29 29 30 33
19 18 14 12 11 8 8 8 6 4 3 3 3 3 7 9 9 9 10 9 9 9 8 6 5 3 3 2 3 4 6 8 9 12 16 18 21 24 26 28 29 29 31
23 20 18 16 15 13 11 10 10 9 6 5 4 4 5 7 10 11 12 13 11 10 11 10 9 8 6 6 7 9 9 13 13 14 17 18 21 25 27 28 31 31 32
27 25 23 21 20 17 16 15 14 13 11 8 7 7 8 8 9 13 15 15 16 15 13 12 12 12 11 10 11 11 12 13 16 17 21 22 24 26 27 28 30 31 32
28 27 26 24 23 22 21 19 19 18 16 13 11 10 10 11 12 13 16 19 19 19 18 17 16 16 16 14 14 15 16 16 20 19 22 23 26 28 27 27 28 29 30
31 30 27 26 26 25 24 24 23 22 20 18 16 14 13 13 15 16 17 18 21 22 22 21 20 19 21 18 17 19 18 18 19 21 19 23 27 30 30 28 27 28 28
36 33 32 30 27 25 25 26 26 24 23 21 20 18 16 16 17 17 18 20 20 23 25 25 24 25 24 23 22 21 20 20 20 21 20 23 29 30 31 28 26 26 27
41 39 36 34 32 29 28 27 27 26 25 24 23 22 20 19 19 19 19 20 21 22 25 27 26 29 26 28 25 21 20 19 19 21 21 23 27 31 33 27 26 25 24
45 42 41 40 37 34 33 31 29 26 25 25 25 24 23 22 22 22 21 21 22 23 25 26 29 29 27 28 25 21 21 18 19 21 22 22 27 29 30 30 25 24 23
47 47 45 42 40 38 38 36 33 29 25 25 27 25 25 24 26 26 24 25 23 23 25 25 25 29 32 31 28 24 22 21 22 21 23 23 28 28 29 31 25 23 23

GFSMA_500_spd_072.txt.gz
Wind_Speed
15 14 13 12 13 13 16 15 13 12 14 15 14 13 14 15 14 14 16 21 24 26 25 25 23 22 20 18 18 18 21 22 22 24 24 22 20 22 24 26 26 25 26
13 13 13 12 13 12 12 14 14 14 13 14 14 13 12 14 15 16 18 22 23 23 22 23 21 19 18 18 18 19 20 23 25 24 22 21 21 22 25 26 26 26 26
9 10 11 12 12 12 12 12 13 14 13 15 15 14 12 12 13 17 20 20 21 21 21 20 20 18 18 19 19 20 23 24 23 22 21 20 22 24 25 25 26 27 28
7 8 10 10 10 10 10 13 13 13 13 15 15 12 12 12 14 16 17 17 17 17 17 19 19 18 19 20 23 23 23 23 22 20 21 23 24 25 26 28 28 31 32
8 6 10 11 10 10 10 11 12 12 12 13 15 13 12 10 12 13 14 14 13 16 18 18 19 19 21 22 22 22 22 21 21 21 22 23 24 26 29 30 31 34 35
7 8 9 10 10 12 10 10 11 11 10 11 13 15 16 14 12 12 13 14 16 17 16 18 18 21 22 22 21 21 20 21 21 21 23 24 25 28 30 32 34 37 37
8 12 12 14 13 13 12 9 10 11 10 12 11 13 15 16 15 14 14 15 16 16 15 18 17 19 20 19 19 19 19 20 21 21 23 25 27 29 31 33 35 37 38
8 11 12 13 12 11 11 11 9 8 8 12 11 11 12 14 12 11 13 14 15 12 15 14 15 16 17 16 17 18 18 18 20 21 22 24 26 30 31 34 36 37 38
11 12 11 11 10 10 9 9 8 9 9 9 11 12 9 10 11 10 11 11 11 12 14 12 12 13 13 13 14 13 15 17 19 20 20 21 23 30 31 33 34 36 37
13 13 11 10 9 9 10 9 7 8 10 10 10 12 9 10 9 8 8 9 11 13 13 11 11 11 10 12 12 13 14 16 18 18 19 22 20 28 30 31 33 35 37
14 15 13 11 9 8 10 10 9 8 10 12 12 12 10 10 9 8 8 9 11 12 12 12 11 10 10 10 11 12 13 15 16 19 21 26 27 29 31 33 33 35 37
15 15 14 13 10 7 8 9 9 9 12 13 13 13 11 10 9 7 10 12 12 12 13 12 9 9 8 8 9 11 13 14 16 20 21 24 28 31 31 32 32 34 37
15 14 13 12 10 8 7 7 6 8 11 13 13 14 13 10 10 9 11 13 16 16 15 11 8 6 6 6 7 9 11 12 17 19 21 24 28 30 31 31 31 33 35
15 13 11 9 8 8 7 7 7 8 9 13 14 12 14 11 9 9 10 13 18 17 15 10 7 6 5 5 5 7 9 11 16 17 20 23 27 29 31 30 30 31 34
16 14 11 9 8 8 9 7 6 8 9 11 14 14 12 11 10 10 11 14 17 17 13 9 7 6 5 4 2 5 7 10 12 14 18 20 25 26 28 29 29 31 33
16 14 12 9 8 8 9 9 7 7 8 10 12 13 13 12 12 12 13 15 14 14 12 9 7 5 3 2 1 3 5 8 9 12 15 18 21 24 25 26 28 29 31
16 15 12 10 9 8 10 9 8 6 6 7 9 12 13 13 13 14 14 14 15 13 12 10 8 6 6 5 4 3 4 6 8 11 12 16 19 23 25 26 26 27 29
19 17 13 12 12 11 11 11 10 8 6 5 6 8 10 13 13 12 13 13 13 12 12 10 8 8 8 7 7 6 7 8 8 11 14 17 20 23 26 26 27 28 29
21 19 16 16 15 15 13 12 11 10 8 6 5 5 6 10 13 15 14 14 13 13 12 13 13 13 11 10 10 9 10 11 10 13 16 19 22 24 28 27 26 26 26
25 23 22 21 19 17 16 13 13 13 12 10 9 7 7 9 10 14 16 17 16 16 15 15 16 15 14 12 13 12 15 14 15 15 17 18 21 24 27 29 24 23 24
30 29 28 26 24 22 21 19 17 16 17 15 13 11 11 10 11 12 14 18 19 20 19 18 17 17 17 17 16 16 18 18 18 18 20 21 22 25 26 27 25 22 23
35 33 32 31 30 28 27 24 23 21 20 20 19 17 15 12 13 15 16 18 19 22 23 23 23 21 23 23 20 19 20 20 22 20 17 19 21 24 23 29 27 22 21
39 36 36 34 33 31 29 27 27 25 25 23 23 23 20 17 16 15 17 19 18 20 22 25 26 26 27 27 22 22 23 22 22 23 18 15 19 22 25 26 29 25 22
43 40 39 37 36 33 31 30 30 28 27 27 27 26 24 22 20 19 17 17 19 20 22 24 23 28 30 30 26 25 25 23 22 23 18 17 21 20 24 24 30 29 23
48 46 44 43 40 37 36 34 34 31 28 28 28 28 25 25 24 24 21 20 19 20 23 23 22 24 25 29 29 28 25 21 21 22 21 20 21 20 22 25 28 27 24
48 50 47 46 45 43 41 39 38 33 31 28 28 27 26 26 28 28 25 25 21 23 24 23 21 20 22 26 28 31 30 25 22 19 26 22 21 22 22 24 25 26 25

GFSMA_500_spd_075.txt.gz
Wind_Speed
13 14 13 14 15 15 14 16 16 16 15 15 13 12 14 16 14 14 16 21 22 21 21 20 19 17 17 17 19 21 23 23 22 20 19 21 22 23 25 25 25 25 26
12 11 12 12 15 15 14 16 16 16 16 15 15 14 14 15 16 15 17 19 19 18 17 17 16 16 17 18 19 23 23 22 21 20 22 21 22 24 25 25 27 28 29
11 9 11 10 11 14 15 15 14 15 16 16 16 15 13 13 14 17 17 16 16 15 15 15 15 16 17 21 24 22 21 20 21 21 21 23 24 26 27 29 31 32 31
8 8 9 9 10 11 12 14 14 14 14 15 15 15 12 12 13 13 15 15 14 13 13 14 14 16 21 24 22 21 21 21 21 22 24 25 25 28 30 32 34 35 35
8 8 8 9 10 11 11 12 13 13 14 14 13 13 12 11 10 11 12 10 11 13 13 15 16 20 20 20 20 21 22 22 23 23 24 26 29 30 32 34 36 36 38
7 9 9 9 9 11 11 12 11 12 13 14 14 12 11 10 9 10 9 10 13 14 14 16 18 19 19 19 20 21 22 22 22 23 25 28 29 31 33 35 35 36 38
7 9 10 10 10 10 11 11 12 12 13 14 16 14 13 11 10 10 11 13 13 13 14 16 16 16 18 19 19 19 20 21 21 22 24 28 29 30 31 33 34 34 36
9 10 12 12 9 9 9 9 10 11 11 12 15 13 12 9 9 11 13 12 11 13 13 14 14 15 16 16 17 18 19 19 19 22 21 27 28 29 30 31 33 35 36
11 11 12 10 10 9 8 8 10 10 10 10 12 11 10 8 8 9 12 11 11 14 12 12 13 13 13 13 16 17 17 18 19 22 20 25 28 30 29 30 32 34 37
12 11 12 11 11 9 9 7 8 10 10 12 12 11 10 9 9 9 9 10 12 13 11 12 11 11 11 12 14 15 15 16 18 20 22 27 29 31 32 31 32 34 36
13 12 11 10 10 10 8 7 9 12 12 12 12 10 10 8 8 9 10 10 12 12 11 11 10 8 8 10 11 12 14 15 17 21 22 27 29 31 32 31 32 33 34
13 12 10 9 8 9 9 7 8 13 14 13 13 12 11 9 8 8 11 13 14 12 11 10 8 6 7 8 9 10 13 13 16 20 22 24 26 28 30 31 31 31 32
15 14 11 10 9 9 9 9 8 10 14 14 14 14 12 10 8 8 11 13 15 14 13 10 7 6 5 5 7 9 10 10 14 17 19 21 25 27 28 29 29 30 31
15 14 11 8 8 8 8 8 10 10 13 14 13 14 12 9 8 8 11 13 16 16 13 9 7 6 5 5 5 6 7 7 11 13 16 19 22 25 26 27 28 30 30
16 14 13 10 8 7 8 7 8 10 11 14 14 12 10 9 8 9 11 14 16 15 12 8 7 6 5 4 3 3 4 5 7 10 13 16 19 23 25 26 27 27 27
17 15 12 11 10 8 8 7 6 9 11 13 15 14 12 10 9 10 11 14 15 14 12 10 8 7 6 5 3 1 1 3 6 8 10 14 18 22 26 27 26 25 26
18 17 14 12 11 10 10 9 7 7 10 12 13 14 14 13 12 11 12 12 13 12 11 9 8 7 8 7 5 3 4 4 6 8 10 14 19 21 27 28 27 25 24
21 19 17 14 12 11 11 11 9 7 7 9 11 12 13 14 13 13 12 12 12 12 12 11 10 11 11 10 9 7 7 6 7 9 12 15 18 21 25 27 26 23 22
23 22 20 18 15 13 13 12 11 10 8 6 7 9 11 13 15 15 15 15 14 15 15 15 15 15 14 13 13 11 11 10 10 12 14 17 17 19 21 25 26 22 19
28 25 23 22 18 16 15 14 14 14 12 10 8 7 8 9 11 15 16 16 17 16 16 17 17 17 17 17 16 14 14 14 15 15 15 15 16 18 18 19 25 22 18
30 29 27 26 22 18 18 17 18 18 17 15 13 11 10 9 8 11 14 18 19 20 19 19 19 18 18 19 18 16 16 16 17 16 17 15 15 17 14 18 23 25 20
34 34 31 29 27 24 23 23 22 21 21 19 18 17 15 13 13 13 14 16 17 19 22 23 22 22 23 21 19 16 17 19 21 21 15 19 16 17 15 14 20 25 23
36 35 35 34 31 30 30 29 28 27 27 25 23 21 21 20 19 17 17 17 16 17 19 21 22 26 27 28 24 22 21 21 23 25 20 16 17 17 16 13 18 21 21
40 39 38 37 36 34 33 33 33 33 32 30 28 27 26 25 25 24 22 19 18 17 19 20 21 23 24 26 27 26 26 26 23 23 21 15 17 17 15 13 16 17 19
44 43 42 40 37 36 35 35 36 35 32 31 30 29 28 28 28 29 27 25 22 20 21 20 18 20 21 22 22 21 24 25 26 22 24 17 18 17 17 15 12 15 18
43 45 46 44 44 41 40 39 38 37 34 31 31 30 29 30 31 31 30 29 26 25 26 22 20 18 19 21 23 23 24 22 21 24 26 25 20 20 18 14 17 15 18

GFSMA_500_spd_078.txt.gz
Wind_Speed
14 14 15 15 15 16 15 15 15 15 15 14 14 14 16 16 16 15 17 19 18 17 17 16 16 16 18 19 21 20 19 21 22 21 22 22 24 24 26 27 27 28 29
12 13 15 14 14 15 15 15 15 16 16 17 16 16 18 18 17 16 17 15 14 15 14 13 15 17 19 21 21 21 22 23 22 23 23 25 26 27 28 30 31 32 33
10 12 15 14 13 13 14 15 15 16 16 15 15 16 17 18 17 15 13 12 12 12 11 13 14 18 20 20 20 21 23 24 24 24 26 27 28 29 31 32 33 34 36
8 7 10 13 13 12 13 14 14 15 15 12 14 14 15 14 14 13 12 12 11 11 12 13 15 20 20 19 21 23 25 25 26 26 27 28 29 30 31 33 34 35 35
7 6 6 8 10 11 12 12 12 13 13 12 12 12 13 13 12 12 11 10 11 11 12 14 19 20 20 20 21 23 25 25 25 26 26 27 28 29 31 32 33 34 36
7 7 7 6 8 9 9 11 12 12 11 11 10 9 10 10 9 8 9 10 12 12 13 16 18 18 20 20 21 22 23 23 23 25 26 27 26 27 28 29 32 34 36
7 7 6 7 8 8 8 10 12 12 12 12 11 10 10 9 7 8 9 12 13 13 15 16 18 18 18 19 19 19 20 19 20 24 26 26 26 26 26 28 29 33 36
9 8 7 8 7 8 8 10 10 12 12 13 12 11 10 9 8 8 11 12 13 13 14 15 15 16 17 18 17 17 17 18 19 22 25 27 27 26 26 27 29 32 34
9 10 8 7 8 7 8 8 10 10 11 11 10 9 8 8 8 8 10 9 13 12 13 14 13 13 14 15 14 14 15 18 20 23 25 27 29 28 28 27 28 30 33
9 9 9 7 6 6 7 7 9 10 10 10 10 8 7 8 7 8 9 9 12 11 14 13 11 11 12 12 12 13 14 17 14 23 24 26 27 29 28 28 28 29 31
10 11 10 9 7 6 6 8 10 9 9 10 9 8 8 8 6 7 8 10 12 10 11 10 9 9 10 11 11 11 12 16 17 21 23 24 27 27 29 28 29 29 30
12 11 11 11 8 7 5 5 7 10 10 9 9 8 7 6 5 7 10 10 11 10 10 8 7 7 7 8 10 9 10 11 13 17 21 22 25 27 27 27 28 27 29
13 13 12 11 10 8 6 6 8 10 11 11 10 9 7 5 4 5 9 12 11 10 9 6 5 4 5 7 7 7 7 7 10 14 17 19 23 26 26 24 25 27 27
15 13 11 10 9 8 7 7 7 10 12 11 11 10 8 5 4 4 7 12 13 12 8 5 5 4 5 5 5 5 5 5 6 9 13 16 19 22 25 24 24 24 25
15 14 12 10 9 9 8 9 8 8 11 12 11 9 9 6 4 5 9 12 13 12 9 6 5 4 4 4 5 4 3 2 4 7 10 14 17 20 23 25 23 21 23
18 16 14 11 9 8 9 9 8 10 10 13 13 12 11 9 7 7 9 11 12 11 10 7 6 7 6 6 6 4 2 2 5 7 10 12 16 19 20 24 24 21 20
21 19 15 12 11 10 9 8 9 10 11 12 13 12 11 11 10 9 10 11 11 10 10 8 8 9 9 9 7 6 4 5 5 7 10 11 14 16 17 21 23 22 18
24 22 18 16 14 12 12 10 9 8 7 9 11 14 14 12 11 10 10 11 11 11 11 12 11 11 12 11 9 8 7 7 9 9 11 11 13 14 13 17 20 21 17
27 25 22 20 17 15 14 13 12 10 9 9 9 11 13 14 13 12 13 12 12 13 13 14 14 14 14 13 13 12 12 11 10 10 11 12 13 14 13 14 17 19 17
28 27 25 23 20 17 16 15 14 13 12 10 9 10 10 10 13 15 15 16 16 15 16 17 18 17 17 17 17 16 15 14 13 12 12 14 13 13 13 10 13 17 20
29 29 28 26 23 21 19 17 16 15 15 15 14 12 11 9 9 11 13 16 18 19 19 20 21 21 20 19 18 16 15 17 19 16 13 15 13 13 11 9 12 16 17
31 31 30 29 27 24 23 22 20 18 18 17 17 17 16 15 13 12 12 12 13 16 19 22 24 24 25 23 20 19 17 17 20 20 13 16 18 15 14 12 11 13 15
37 35 33 32 30 28 28 27 26 24 23 22 22 21 21 20 20 18 17 16 15 14 17 19 20 22 23 25 20 21 20 21 21 24 20 18 19 16 15 14 12 13 13
41 39 37 35 34 33 32 32 32 30 28 28 27 26 25 25 25 24 24 22 21 19 18 19 19 20 19 19 19 17 17 20 19 21 22 19 19 18 15 14 13 14 14
41 42 40 38 36 35 34 35 36 34 32 30 31 29 28 28 28 29 28 26 26 24 24 22 20 18 18 18 18 18 19 18 19 16 18 22 21 21 18 18 16 15 14
40 40 40 40 40 38 39 38 38 37 33 31 31 32 30 28 30 32 31 29 27 28 31 28 23 21 20 21 21 20 21 20 18 17 19 19 21 21 21 18 19 19 19

GFSMA_500_spd_081.txt.gz
Wind_Speed
14 14 14 14 14 14 14 14 14 13 13 13 14 15 16 18 20 19 18 17 17 16 16 16 16 18 19 18 18 19 21 23 24 23 24 24 26 27 29 30 31 33 32
12 12 13 14 13 13 12 13 13 15 15 15 17 16 17 18 18 17 16 15 14 14 15 16 16 19 19 18 20 22 23 24 23 23 24 25 27 30 31 32 32 34 33
12 11 11 12 12 12 12 13 13 14 15 17 17 17 18 18 16 15 14 13 12 13 15 15 18 19 18 20 22 24 24 23 23 23 25 26 28 30 32 32 33 34 35
11 11 9 11 11 11 10 11 12 12 14 14 15 16 15 14 13 12 12 11 11 12 15 19 19 17 19 21 23 24 24 22 22 23 24 26 27 29 30 31 33 34 35
7 9 10 10 10 8 8 10 11 11 10 11 11 12 11 12 12 11 10 11 12 13 17 20 17 18 20 22 22 21 23 22 23 24 25 26 26 28 29 30 31 34 35
4 7 9 9 9 8 6 7 8 9 10 10 9 9 8 9 8 8 9 11 13 15 19 18 16 17 19 20 19 19 21 22 23 24 26 25 25 25 27 29 31 33 34
5 6 7 7 8 8 7 6 6 7 8 8 8 8 7 7 8 8 10 10 12 16 18 16 16 16 17 16 16 16 16 19 21 24 26 26 25 25 25 28 30 32 33
6 6 7 7 7 6 7 6 5 6 7 10 11 11 9 10 10 10 11 11 12 14 15 15 15 14 14 14 15 16 16 17 20 22 25 25 25 24 26 27 29 30 32
6 9 8 8 8 6 6 6 5 6 7 8 9 8 8 8 10 12 11 11 11 12 12 13 12 12 12 12 13 15 15 16 18 20 22 23 24 24 26 27 29 30 31
7 8 8 7 7 6 6 6 6 5 6 5 5 6 6 9 7 10 10 12 10 10 9 9 9 9 10 11 11 12 12 12 15 17 20 21 23 24 26 27 28 30 31
6 7 8 8 8 7 6 7 8 7 6 6 4 3 3 6 7 6 6 12 11 11 9 8 8 8 8 9 9 11 12 11 10 12 17 20 22 23 24 26 27 29 30
7 6 7 7 8 6 6 5 7 8 7 6 5 5 3 2 4 6 8 10 8 9 8 7 7 7 7 8 6 8 7 8 10 10 15 18 21 23 23 23 25 26 27
10 9 8 7 7 7 6 5 5 7 7 7 5 4 3 0 2 5 8 9 8 8 6 5 5 5 6 6 5 5 5 4 5 8 13 16 18 20 23 24 22 23 24
12 10 9 8 7 7 7 7 6 6 7 7 6 5 3 1 1 1 5 8 10 10 6 5 4 4 5 5 4 3 3 1 3 7 11 14 16 18 21 23 22 21 22
13 12 10 9 8 8 7 7 7 7 8 7 7 6 4 2 0 1 4 7 9 8 6 4 4 5 4 4 4 4 3 3 6 7 9 12 15 15 18 21 22 20 19
16 12 12 10 8 8 7 7 7 7 10 9 8 8 6 4 3 3 5 6 8 9 8 6 5 4 5 5 5 5 5 6 8 8 10 12 15 15 16 18 21 21 19
19 17 15 11 9 8 7 8 8 9 9 10 10 9 8 8 7 6 7 7 8 8 7 7 7 6 6 6 7 8 9 10 7 11 12 13 14 13 13 14 18 20 20
20 20 17 14 11 9 9 9 8 8 10 10 10 11 10 9 10 9 8 9 9 9 10 11 10 9 9 9 10 10 11 13 14 13 15 14 14 14 14 14 15 18 18
21 21 20 17 15 12 11 10 9 9 10 11 11 11 12 12 11 11 11 10 11 12 12 13 13 12 12 12 12 12 14 16 17 14 14 14 15 15 15 18 14 16 18
21 22 22 21 18 16 14 12 11 11 10 10 9 9 11 11 13 13 13 13 14 14 14 15 15 15 15 15 16 16 16 17 18 18 15 14 13 14 14 17 13 13 15
24 24 24 24 23 20 18 17 15 14 14 12 10 9 9 9 10 12 13 15 16 17 17 17 19 18 19 18 18 16 16 16 19 20 19 15 15 12 15 15 16 15 14
28 27 27 27 26 24 23 22 20 18 17 16 15 14 14 13 13 13 13 12 12 14 17 18 20 21 23 21 20 18 18 19 20 23 16 19 16 17 13 14 15 17 15
36 33 31 31 30 28 27 27 27 24 22 20 19 18 18 18 18 17 18 18 17 16 16 15 16 18 19 19 16 16 16 19 22 24 24 19 18 17 16 16 16 16 18
35 37 37 36 34 32 32 31 32 31 28 26 25 24 22 23 22 22 23 23 23 23 22 21 18 17 15 16 16 14 15 17 17 17 17 19 21 19 20 15 18 17 17
34 35 38 39 38 36 35 35 36 36 33 31 30 30 28 27 27 28 27 26 25 25 27 27 24 21 19 18 17 17 19 14 16 15 17 15 18 18 20 16 17 21 19
41 45 41 39 40 38 37 38 40 39 36 34 33 33 32 31 31 31 30 30 26 27 30 29 25 24 24 22 23 20 20 19 18 16 19 19 19 18 16 19 16 18 20

GFSMA_500_spd_084.txt.gz
Wind_Speed
12 16 15 17 13 16 19 16 23 12 14 16 19 18 18 22 22 20 20 19 19 19 20 20 20 20 19 20 22 22 21 23 22 24 25 26 28 30 31 31 33 34 34
10 10 18 12 14 19 18 15 15 16 16 16 19 18 18 19 19 18 18 18 16 18 19 20 20 19 20 22 22 22 21 22 24 23 24 26 27 29 30 32 33 33 34
6 16 11 13 14 17 16 14 16 19 18 18 19 20 17 17 17 17 16 15 16 16 18 19 18 20 21 21 21 21 22 23 23 24 25 25 26 27 29 32 32 34 35
8 11 11 13 11 17 14 12 16 17 17 17 18 16 15 14 14 13 14 15 16 15 18 19 18 20 21 22 21 21 22 22 23 23 24 25 26 28 29 32 32 33 35
9 7 10 10 9 14 12 11 12 13 13 13 13 13 15 14 13 11 13 14 15 17 18 18 18 19 19 20 20 19 20 21 22 22 23 23 25 27 30 31 33 34 35
8 8 9 8 11 11 10 9 9 11 10 9 8 9 12 11 11 12 12 14 18 19 16 17 18 17 18 17 18 17 17 19 20 21 21 22 24 26 28 31 32 34 35
6 7 8 9 9 8 8 9 7 9 8 7 8 6 8 9 11 12 13 12 15 16 14 15 16 15 14 14 13 13 14 16 17 19 21 21 23 26 28 30 31 34 35
4 5 7 6 8 9 8 7 8 8 9 10 11 9 6 8 11 12 14 14 15 13 12 13 13 12 12 12 11 11 11 13 15 17 19 20 22 24 26 29 32 33 35
5 4 4 3 5 8 6 7 7 7 8 7 9 7 11 7 10 12 14 13 12 11 11 10 10 10 10 11 11 10 9 10 13 15 16 19 21 24 26 29 30 32 33
5 5 3 4 4 5 7 8 7 4 3 3 4 6 6 8 10 6 10 13 10 10 9 9 7 8 8 9 8 8 8 8 10 13 15 17 20 23 26 26 29 31 31
5 6 5 4 4 2 3 4 6 5 5 3 2 3 5 3 6 7 7 11 9 9 7 7 7 7 7 7 5 6 7 5 7 10 14 17 18 22 25 27 27 27 29
7 5 6 4 3 1 2 2 4 5 3 3 2 2 4 5 5 3 6 9 8 9 7 7 6 6 5 5 6 8 4 1 6 11 13 15 18 21 25 28 27 25 26
8 5 4 4 3 2 2 2 2 4 4 4 3 1 4 4 4 3 6 5 6 6 7 7 6 6 6 4 4 4 2 2 6 10 12 15 17 18 22 26 28 25 25
7 8 8 7 3 2 1 3 2 3 4 5 3 1 3 4 4 4 3 6 4 3 4 6 5 5 5 5 3 2 2 3 6 10 12 14 16 17 19 22 26 26 23
11 9 9 8 7 4 4 5 5 5 4 5 5 4 2 2 1 2 3 3 6 7 3 1 3 3 4 4 4 5 4 5 8 10 13 15 16 17 16 20 23 24 20
17 11 11 7 7 6 5 6 7 6 6 4 4 5 5 5 5 3 3 4 4 4 4 4 3 4 5 5 6 7 7 7 10 13 14 16 17 17 15 16 18 22 19
14 11 4 8 9 5 4 5 6 6 5 6 5 5 6 6 5 5 5 6 7 7 6 5 6 5 6 7 8 9 10 10 10 13 15 16 16 16 16 15 15 18 18
16 12 13 12 8 4 5 5 6 6 7 7 8 7 6 6 6 6 7 8 7 8 8 8 8 9 9 10 11 12 12 14 15 14 15 17 16 16 16 15 16 17 18
16 15 13 13 8 7 6 6 7 7 7 8 8 8 9 9 7 8 9 8 10 10 11 10 11 11 12 12 13 14 15 17 19 20 16 14 17 16 16 16 15 16 17
18 19 18 17 16 14 12 11 10 10 10 9 8 9 10 10 9 10 11 11 11 13 13 13 14 13 13 14 14 16 17 17 19 21 20 15 12 15 16 17 14 15 16
20 22 23 22 21 20 19 17 14 13 13 13 11 10 10 8 8 8 9 11 13 15 16 16 16 16 17 17 17 17 16 16 20 21 19 22 15 12 13 17 16 15 16
22 22 23 25 24 22 23 22 20 18 17 16 16 15 14 12 12 11 11 11 10 12 13 13 14 17 19 17 17 16 17 17 19 24 20 21 20 18 13 15 16 13 16
28 24 23 23 24 25 26 27 26 26 23 20 19 20 18 18 17 16 17 17 17 16 16 16 15 15 13 14 15 14 15 16 19 20 18 18 18 19 18 15 17 16 15
26 28 29 30 28 27 29 31 32 32 29 27 25 25 23 23 23 22 22 21 21 21 22 22 21 22 16 15 14 13 15 15 16 16 12 12 16 16 14 15 15 17 17
26 26 27 27 26 27 31 34 35 36 35 33 31 31 30 28 29 30 27 27 25 24 26 26 24 24 23 20 20 17 19 16 17 17 17 11 14 15 14 14 14 15 18
30 31 29 28 29 29 30 35 37 39 37 37 37 37 36 34 34 35 34 31 26 28 30 29 25 25 24 23 25 25 24 20 17 15 21 15 16 17 15 16 14 15 17

GFSMA_500_spd_087.txt.gz
Wind_Speed
14 15 17 19 20 19 19 18 19 15 20 22 25 25 24 25 25 24 22 21 22 23 22 23 21 21 21 22 21 21 23 22 22 24 26 28 29 31 32 33 33 34 35
14 19 17 16 19 21 19 21 21 22 22 22 23 23 22 23 23 22 20 19 20 21 21 21 19 20 21 21 21 22 22 23 24 24 25 26 29 30 32 34 35 36 38
14 19 15 16 19 18 21 24 25 24 22 21 21 20 20 20 18 18 20 19 21 20 20 19 19 19 20 20 21 22 22 23 23 24 26 27 29 30 32 35 36 38 38
15 14 16 16 18 19 20 22 23 23 21 18 18 17 18 16 15 16 16 19 21 20 18 19 18 19 19 20 20 21 21 22 22 24 25 26 27 30 32 35 36 39 38
12 14 13 14 15 15 18 17 18 17 15 15 15 15 14 15 15 14 14 18 20 19 16 18 19 18 17 17 18 19 19 19 20 21 23 25 27 29 32 34 36 38 42
9 12 10 11 13 14 14 15 14 14 12 13 13 10 9 15 17 13 14 18 18 18 16 15 18 15 14 14 14 15 15 16 18 19 20 23 26 28 31 33 35 37 42
8 10 10 10 10 11 13 11 11 12 11 11 10 10 6 11 15 17 16 17 16 16 14 13 16 12 9 11 9 10 11 14 16 17 19 22 24 27 29 32 34 36 40
7 7 9 7 8 10 10 11 10 10 11 12 11 11 7 9 11 13 18 16 14 15 11 11 12 10 8 9 5 6 8 11 14 17 19 21 23 25 27 30 33 34 37
7 8 7 8 8 8 10 9 9 12 11 12 9 8 9 9 10 9 14 16 14 14 11 9 8 8 7 8 5 3 5 9 13 16 18 20 23 25 27 27 30 31 32
5 5 7 7 7 7 8 8 8 9 11 10 9 8 6 6 7 10 11 13 13 11 10 8 8 5 6 6 5 1 3 8 11 15 16 20 22 26 27 28 27 29 29
5 4 3 7 7 8 6 5 7 5 4 7 8 9 8 6 6 7 6 9 12 11 9 6 6 5 3 4 3 3 3 6 10 13 17 19 21 23 27 28 25 25 25
3 4 3 4 5 6 8 6 5 5 4 5 6 8 9 8 3 7 8 5 7 9 9 8 7 6 5 4 3 3 4 8 10 14 16 18 20 20 23 26 25 22 22
4 3 5 1 3 4 7 6 5 5 4 4 5 6 6 7 5 3 8 8 6 7 7 7 7 6 4 3 3 4 5 7 11 15 15 17 18 18 20 23 25 21 21
7 6 3 2 1 1 5 5 5 4 4 3 4 5 5 5 5 5 6 9 9 6 3 2 3 4 3 2 3 3 5 7 11 14 15 16 18 19 17 19 23 21 19
5 4 5 5 3 1 1 3 2 3 3 2 1 2 1 3 4 4 6 6 9 9 6 4 2 4 4 5 3 4 5 7 10 13 13 16 18 18 16 16 19 21 18
9 9 8 7 5 4 4 4 2 0 2 2 2 2 3 2 2 2 5 6 6 6 5 5 5 7 6 6 6 7 7 9 11 13 15 18 17 18 16 14 16 18 19
9 12 10 7 6 5 5 5 4 3 3 4 4 4 5 4 4 4 4 4 6 7 8 8 8 6 6 8 8 9 9 10 12 14 15 17 17 16 16 14 15 14 16
10 12 13 9 10 8 7 7 6 5 4 6 5 6 6 6 6 6 6 6 6 7 8 8 9 10 11 10 10 11 11 12 14 15 16 17 18 17 16 15 13 16 14
12 13 15 14 13 12 11 10 8 7 7 7 7 8 7 8 8 8 9 7 7 9 10 11 12 12 12 12 12 14 14 15 18 19 18 16 16 18 17 18 14 13 13
16 18 18 18 18 17 15 12 11 10 9 8 8 9 9 10 10 11 11 11 10 11 12 13 14 14 14 14 15 14 16 18 20 21 21 17 14 16 18 18 17 13 14
19 18 18 19 19 19 18 16 14 12 11 11 11 10 10 8 9 10 11 12 12 13 14 15 16 17 18 17 16 15 16 19 22 22 20 20 18 16 16 16 18 14 15
22 20 20 20 20 21 22 21 19 16 15 15 15 15 14 13 13 12 12 11 10 11 12 11 12 13 13 12 12 13 14 15 18 22 16 17 14 17 17 14 15 16 15
25 23 21 20 21 22 23 23 23 22 21 19 19 19 20 19 19 18 18 16 15 15 16 16 16 17 15 13 11 13 13 15 16 17 13 14 13 13 13 15 13 14 15
25 26 26 24 23 23 25 26 27 28 27 26 25 25 25 25 25 24 23 21 20 20 20 20 21 22 19 20 17 15 16 15 18 18 11 11 13 12 12 13 12 12 12
24 24 27 29 30 31 32 31 31 30 30 30 31 31 31 30 31 32 30 28 25 25 27 26 25 25 24 22 21 20 23 19 19 21 20 15 15 17 16 16 14 14 13
26 26 26 26 28 30 32 32 31 31 31 31 34 36 37 36 38 39 37 34 29 31 34 31 29 26 26 25 26 25 26 26 23 22 27 19 19 19 19 19 19 16 17

GFSMA_500_spd_090.txt.gz
Wind_Speed
17 22 18 19 19 18 17 19 24 24 27 28 26 27 26 26 26 25 24 24 24 23 21 20 19 20 20 19 20 20 22 23 25 27 29 30 32 33 34 34 35 36 38
19 21 20 21 19 19 19 20 23 25 25 24 23 23 23 23 24 23 24 23 22 21 20 19 19 20 19 18 19 21 22 24 25 28 28 29 31 32 33 35 36 38 39
16 21 19 20 22 22 22 24 25 25 22 22 23 22 20 19 20 20 21 22 21 18 19 18 18 17 17 18 19 21 23 23 25 26 27 28 30 32 34 36 38 38 38
16 18 20 20 21 21 22 23 24 22 21 20 20 19 18 16 16 18 20 21 20 18 18 19 17 16 16 17 17 20 21 21 22 23 25 27 29 32 34 35 37 37 38
16 14 16 18 18 19 17 20 19 18 17 16 17 15 16 15 16 16 16 19 18 17 16 16 17 15 14 15 15 17 19 19 21 22 23 25 27 32 32 33 34 36 38
13 15 13 16 16 16 15 15 16 15 14 15 15 13 14 14 15 15 16 18 15 14 14 14 15 13 12 13 13 15 15 17 19 21 22 25 27 28 30 30 32 34 36
10 13 12 12 14 13 13 13 11 12 12 11 13 13 11 12 15 16 17 16 15 13 12 10 11 9 7 9 9 11 12 15 17 20 23 25 28 26 27 27 28 30 34
7 9 10 11 12 12 12 13 10 9 12 11 9 12 11 10 13 16 16 15 13 13 11 8 7 6 3 5 6 7 9 13 16 19 22 24 26 26 24 24 24 27 31
8 8 7 8 9 11 11 11 13 12 12 11 7 4 10 10 12 14 14 14 13 12 11 8 6 4 3 2 3 4 7 11 15 19 20 24 24 27 24 21 22 24 27
8 7 8 9 8 7 9 9 12 11 10 10 11 6 4 7 7 11 12 12 11 11 9 7 7 5 3 2 1 3 7 10 14 17 20 21 24 25 25 21 22 24 25
6 8 7 8 8 7 7 7 9 10 8 8 11 11 6 5 5 6 10 10 9 10 9 6 6 5 4 4 4 3 5 8 12 16 17 21 22 22 25 22 21 22 24
6 8 7 7 7 5 7 10 8 8 7 8 9 7 10 6 5 6 7 7 6 5 5 7 6 4 2 2 2 2 6 7 11 15 16 18 20 21 23 21 20 20 21
6 6 7 9 9 6 6 6 9 8 8 8 10 7 5 7 7 6 7 6 7 5 3 3 3 3 2 3 4 5 7 8 10 13 15 17 18 19 19 19 18 19 19
7 7 5 6 8 7 4 4 7 8 8 7 7 7 6 5 5 9 9 8 6 5 4 4 4 4 5 5 4 5 6 8 11 13 15 17 17 17 18 18 17 15 15
9 9 9 8 7 9 7 5 5 7 6 7 7 5 4 4 4 5 8 11 10 8 6 5 6 7 6 4 6 7 8 8 11 13 15 17 18 17 16 15 17 13 13
10 10 10 9 7 6 7 7 7 7 7 7 8 7 6 4 4 5 6 9 11 10 7 7 11 7 5 6 8 9 10 11 13 14 15 17 18 18 16 15 14 15 11
14 13 13 11 9 9 8 6 6 7 8 8 8 8 7 6 6 6 6 7 9 11 11 12 11 8 8 11 9 11 11 15 15 15 16 18 18 18 15 14 15 15 12
17 18 17 15 14 13 11 11 9 8 7 9 9 9 8 8 7 7 7 8 9 10 11 12 12 11 12 9 10 13 13 15 16 17 17 18 18 18 18 16 13 15 15
18 17 18 18 17 18 15 15 13 11 9 9 9 9 11 10 10 9 9 9 9 11 12 11 13 13 13 13 14 15 16 17 18 18 18 18 17 16 17 17 16 13 15
20 19 21 22 22 20 19 18 14 14 13 11 10 10 11 13 12 13 12 12 12 12 12 13 14 14 15 15 15 16 17 18 22 21 20 16 18 17 16 16 16 14 13
25 23 21 22 21 23 23 20 17 16 14 13 12 12 12 13 13 14 14 14 15 15 15 15 16 16 16 16 14 14 17 19 23 20 20 19 16 15 14 13 14 15 13
30 28 26 25 23 23 22 21 21 20 17 16 15 15 14 14 13 14 14 14 14 14 14 14 14 15 14 14 10 12 14 16 19 19 14 13 12 12 12 11 10 11 10
30 28 28 27 26 26 27 27 26 24 22 20 19 19 19 19 18 18 17 17 17 17 18 18 18 18 19 19 17 17 16 17 18 19 15 17 10 14 15 14 12 11 10
34 31 30 28 28 27 28 29 28 28 27 25 24 23 23 23 24 23 22 21 21 21 22 22 22 23 23 24 21 20 22 23 23 22 16 16 16 17 18 17 16 15 14
33 36 34 32 29 29 30 30 29 28 28 29 29 29 28 27 29 29 27 26 27 26 28 27 26 26 28 28 29 26 26 26 25 29 27 19 21 21 22 23 20 19 18
28 27 26 26 30 32 35 34 33 33 30 30 32 32 34 34 34 36 34 33 30 32 36 33 30 30 29 30 31 31 31 29 29 26 32 26 24 23 22 25 25 23 21

GFSMA_500_spd_093.txt.gz
Wind_Speed
17 17 17 18 18 19 16 20 23 27 25 25 25 25 24 23 24 26 25 24 22 21 20 20 20 20 20 21 21 22 24 25 26 27 29 30 29 29 31 34 36 36 37
19 18 18 17 18 20 21 24 25 23 22 22 21 22 20 20 22 24 24 22 21 20 20 20 19 19 19 20 21 22 24 25 25 27 28 28 27 29 31 33 36 37 39
16 19 18 19 20 21 22 24 23 21 20 19 18 18 16 16 19 22 22 21 19 18 20 20 18 18 18 19 21 22 24 24 24 25 26 28 26 27 30 32 35 37 39
15 19 19 19 21 23 22 21 20 19 18 16 14 15 14 14 16 20 21 20 19 18 17 18 17 16 17 19 20 21 22 23 24 24 26 24 27 25 27 31 34 37 40
15 16 19 18 20 22 21 20 19 17 17 13 12 14 12 12 12 16 18 18 17 15 16 16 14 14 15 17 17 18 20 21 22 25 27 23 25 24 26 29 32 36 38
15 15 15 16 16 17 16 16 16 17 16 14 11 12 12 11 12 13 14 16 16 14 13 13 12 10 11 14 14 16 17 19 22 25 27 27 25 23 25 27 30 34 36
10 13 14 12 14 13 12 13 14 14 12 11 12 11 9 10 11 13 13 12 13 12 11 10 8 7 7 9 11 13 15 18 20 23 25 26 27 24 25 25 28 30 34
9 9 12 11 11 12 10 10 13 12 10 10 8 10 10 9 10 11 11 9 9 9 8 6 4 2 3 4 8 10 12 16 19 22 24 23 28 26 25 25 26 28 31
10 10 9 9 9 10 10 9 13 11 8 9 7 7 8 7 8 10 9 9 8 6 6 5 3 1 1 2 5 7 11 13 17 20 22 24 25 25 24 23 24 26 29
8 7 8 10 8 8 8 10 11 10 8 7 10 8 7 6 6 8 8 8 7 6 5 4 3 2 2 2 4 5 8 11 15 17 20 23 24 24 22 20 22 24 27
10 9 8 7 9 8 8 9 9 9 9 8 8 10 8 6 5 6 6 6 5 4 3 5 2 3 3 4 3 3 6 10 13 16 18 22 23 22 22 18 20 21 24
10 9 9 9 8 8 7 7 10 9 9 9 5 8 11 7 5 6 7 6 4 3 5 4 2 3 4 5 3 5 7 8 12 16 17 20 21 21 20 17 16 18 20
9 9 9 9 7 8 8 7 6 8 8 9 8 4 6 9 8 7 9 6 7 6 5 4 5 5 5 6 5 6 7 9 11 14 17 18 19 20 18 18 14 14 16
11 11 10 9 10 8 7 8 9 9 9 9 8 6 4 4 6 8 10 10 9 8 5 4 6 7 7 6 7 6 6 8 10 13 15 18 19 18 18 16 16 11 11
14 13 12 12 11 12 11 10 11 10 11 12 12 10 7 6 6 9 11 12 11 10 8 7 9 9 8 8 8 6 7 9 11 14 15 17 19 17 16 16 15 14 10
15 14 14 12 12 13 12 12 12 12 12 13 13 12 11 9 7 7 9 12 12 11 9 9 11 10 9 9 7 8 8 10 12 16 17 17 18 18 16 14 15 15 14
18 15 14 14 14 13 12 12 12 11 11 12 12 12 12 11 10 9 9 8 10 11 11 11 12 11 10 11 8 11 12 13 13 16 18 19 19 19 16 15 14 15 16
18 19 18 18 17 16 14 13 13 13 12 11 12 13 12 12 12 11 10 10 11 10 10 10 12 11 12 11 10 14 15 15 15 16 16 17 17 17 16 15 14 14 15
19 18 21 20 20 18 17 15 14 13 12 13 12 12 11 11 11 12 11 11 11 12 12 13 13 13 14 13 13 15 16 17 17 18 17 16 16 15 17 16 14 12 11
21 21 21 22 22 20 20 18 16 16 15 14 13 13 12 12 11 11 12 11 12 13 12 13 14 14 14 15 15 17 19 19 22 20 19 17 16 15 15 16 16 13 11
26 27 26 26 25 24 22 20 20 18 17 15 15 14 13 12 13 14 13 13 13 13 14 15 16 16 14 16 14 14 17 19 21 19 19 16 17 15 15 15 13 13 11
34 33 31 29 26 26 27 26 24 22 20 18 18 17 16 15 16 16 14 14 14 14 14 13 13 14 13 14 12 15 16 18 21 20 17 18 12 17 14 13 14 15 13
43 40 36 33 28 28 29 28 28 27 25 24 22 21 20 19 18 17 16 15 15 16 16 15 16 18 18 17 16 17 17 20 22 26 20 22 17 19 19 17 16 17 16
34 37 37 34 33 33 30 29 29 29 29 27 27 26 25 23 23 21 20 19 20 20 21 19 19 22 20 22 21 20 20 22 23 27 26 19 24 20 22 22 21 20 19
37 33 36 33 36 34 33 31 30 31 31 31 30 31 30 28 28 27 25 25 25 26 28 27 24 25 27 28 28 26 26 24 24 26 29 26 24 20 24 28 25 22 22
33 34 31 42 42 35 39 34 31 32 31 32 33 32 33 33 33 34 32 30 29 32 33 32 31 31 32 33 35 34 33 31 31 27 33 27 27 26 21 28 31 29 28

GFSMA_500_spd_096.txt.gz
Wind_Speed
16 17 17 16 20 22 23 25 25 23 23 22 21 20 19 21 23 24 23 23 23 22 22 24 24 23 23 22 22 22 23 23 24 23 22 23 26 29 33 36 38 38 39
14 17 15 16 20 24 25 25 24 21 20 20 19 18 17 19 21 22 21 21 21 22 22 23 22 23 22 22 22 22 23 22 21 22 22 23 24 28 31 36 39 40 40
16 15 16 17 21 23 21 22 21 19 18 17 16 15 14 17 19 19 19 21 20 21 21 21 21 22 21 22 21 22 23 23 20 20 20 22 24 26 29 34 38 40 42
16 17 17 19 20 21 20 19 19 17 15 14 14 12 12 13 16 18 18 18 19 19 18 17 18 19 19 20 20 21 22 23 24 23 23 24 27 26 28 31 36 40 41
14 16 19 19 18 17 18 17 16 15 14 13 12 11 11 11 12 14 15 16 16 16 15 14 14 15 16 17 18 19 21 22 25 25 26 25 26 28 29 30 33 39 40
14 14 15 15 15 15 14 14 12 11 10 12 11 10 11 12 12 11 12 13 13 13 12 11 10 12 11 13 15 17 20 22 23 25 27 27 26 27 29 31 32 36 40
10 11 11 12 12 12 12 11 11 11 9 9 11 10 9 11 12 11 10 10 10 10 9 6 6 7 8 9 11 15 18 21 23 25 25 28 25 25 27 29 31 34 37
8 9 8 9 9 10 11 11 10 10 9 7 9 10 10 10 11 10 8 7 7 6 5 3 3 4 6 5 8 13 15 18 21 23 24 26 26 22 24 26 29 32 35
10 8 7 7 7 7 8 10 9 8 7 6 6 8 8 8 10 10 7 6 4 3 1 1 3 6 6 5 6 10 12 16 19 21 23 24 25 22 20 23 25 28 31
11 10 10 9 8 6 6 8 8 7 6 6 6 8 7 7 9 9 7 5 3 2 3 3 4 5 6 6 5 7 11 13 17 18 20 24 24 22 17 19 22 25 27
12 11 12 10 9 8 7 7 6 4 3 5 5 6 8 7 6 7 6 4 3 2 3 5 7 6 6 7 5 6 8 11 14 16 20 22 23 22 20 15 18 20 23
10 10 10 10 11 10 9 9 8 7 5 5 5 7 8 8 6 7 7 5 4 4 3 3 4 5 5 5 4 5 5 8 12 15 18 20 22 21 19 17 13 15 19
11 11 9 8 8 10 11 11 10 10 9 8 6 6 8 9 8 9 9 8 8 6 4 4 4 4 6 5 4 4 5 7 11 14 17 19 22 20 18 16 15 13 15
13 12 10 9 9 10 10 10 11 11 11 10 8 7 7 8 8 10 11 10 9 8 5 6 6 6 8 6 6 5 5 7 10 14 17 19 20 19 17 16 16 15 13
14 13 13 12 12 10 9 11 11 12 11 11 10 8 7 7 8 9 11 12 10 9 8 8 9 8 7 6 6 6 7 8 11 14 17 18 18 17 14 15 16 16 16
18 15 14 13 11 12 12 10 10 11 12 12 11 10 9 8 6 7 8 10 11 9 8 8 8 8 7 7 7 8 10 11 13 15 16 16 18 17 14 13 13 15 15
19 19 18 16 15 15 14 15 13 13 12 12 13 13 12 10 9 8 8 8 9 9 8 8 9 7 7 7 7 9 11 13 13 15 16 17 17 15 14 13 12 13 14
21 22 21 20 18 18 17 16 15 13 13 13 13 14 12 12 12 11 9 10 9 8 8 6 7 7 6 5 7 10 12 13 14 16 16 16 15 13 14 14 13 13 13
22 22 23 22 21 19 19 17 16 15 15 13 13 13 13 12 14 12 11 11 11 11 11 10 9 9 9 7 8 11 15 17 18 18 18 15 15 13 14 14 14 14 13
23 25 24 23 23 20 21 20 18 17 16 14 13 14 14 14 14 14 14 14 13 12 11 11 11 11 11 11 10 10 11 11 14 15 15 13 13 14 14 13 14 15 14
27 26 26 26 25 26 25 23 22 20 18 17 17 16 16 16 16 15 15 14 15 14 13 13 13 12 10 8 7 7 10 12 13 11 14 13 13 13 13 13 13 13 14
32 30 28 29 27 28 28 27 25 24 21 20 19 18 18 18 18 16 15 14 14 14 13 11 11 11 9 8 8 10 12 15 18 14 12 16 12 15 15 13 14 15 15
38 37 34 34 35 31 32 31 30 28 26 25 24 22 19 19 19 18 17 16 16 16 15 14 13 15 14 13 12 15 16 18 20 24 19 19 18 14 16 18 16 16 16
42 40 40 37 34 39 38 33 31 32 32 31 28 26 24 25 21 20 21 21 22 21 22 20 19 20 19 21 19 19 20 20 20 23 23 20 23 18 19 21 21 20 18
44 40 34 36 35 35 31 37 37 35 35 34 32 30 30 29 27 27 26 24 25 26 26 25 24 24 25 27 27 25 26 23 22 24 27 22 25 21 18 21 22 22 22
46 46 38 40 40 36 34 38 39 39 39 32 34 35 33 32 31 32 31 31 29 30 31 31 30 29 30 31 33 32 30 29 29 24 32 27 24 26 21 24 24 23 23

GFSMA_500_spd_099.txt.gz
Wind_Speed
16 16 17 19 21 23 24 23 22 21 21 21 21 22 22 22 21 20 20 20 20 22 23 22 21 21 21 22 21 19 18 19 20 22 24 25 27 30 33 37 37 38 38
15 16 17 20 23 23 22 21 21 20 19 18 18 20 21 20 20 20 20 19 20 21 22 21 20 21 21 22 21 22 21 20 21 22 24 25 27 29 32 37 38 38 39
15 16 18 21 22 21 19 19 18 17 16 16 16 17 18 17 16 17 18 18 19 19 20 20 20 19 20 21 22 23 23 24 25 26 24 24 26 29 30 36 39 39 40
16 16 18 20 18 17 17 16 16 16 14 14 14 15 15 14 13 14 15 15 15 17 18 17 17 17 18 20 22 23 24 25 25 27 25 25 27 30 28 33 38 41 42
16 16 16 16 15 15 14 14 13 13 12 12 12 13 14 12 12 12 13 13 12 13 14 14 14 15 16 18 20 22 24 25 25 26 25 24 26 27 30 32 35 39 42
15 15 14 13 13 12 12 12 12 11 10 10 10 10 12 13 12 12 12 12 11 10 10 10 11 12 14 15 17 19 22 23 24 25 25 24 23 25 28 30 33 36 40
11 11 10 10 10 9 9 9 9 10 10 9 9 9 11 13 12 11 10 10 9 7 7 7 9 8 8 10 12 15 18 20 22 23 25 24 22 22 25 27 30 33 37
10 10 9 7 7 7 6 6 6 5 7 7 8 8 10 12 13 10 9 8 7 5 4 5 7 7 6 6 8 12 14 17 20 22 24 24 23 21 22 23 27 30 34
10 9 8 7 7 7 6 5 5 4 3 5 6 7 9 11 12 10 9 7 5 2 2 3 5 6 5 6 6 9 11 14 18 21 23 25 23 22 20 21 24 27 29
9 9 9 8 7 6 6 6 5 4 3 3 5 7 7 8 9 9 8 6 3 2 2 3 5 5 6 6 5 6 9 11 15 18 22 23 24 22 21 20 21 23 26
11 10 11 10 9 8 7 9 7 4 1 2 4 7 8 8 7 9 7 5 3 1 1 3 5 6 6 4 4 6 7 9 13 16 20 22 22 22 20 20 18 20 22
10 10 9 9 10 9 8 8 7 5 3 3 4 5 8 9 9 8 8 7 5 4 2 1 1 2 4 4 4 5 6 8 11 15 18 20 22 21 19 18 19 18 19
12 11 10 10 10 11 11 10 9 7 6 5 5 4 7 9 9 9 9 9 7 5 4 4 4 4 5 5 4 5 5 7 11 14 17 19 19 19 17 16 17 18 17
12 11 10 9 9 10 10 10 10 10 10 9 7 5 6 8 9 10 11 9 8 7 6 6 5 6 7 5 5 5 5 7 10 14 17 19 18 17 14 14 15 16 17
13 12 11 10 10 9 10 10 10 11 11 10 9 7 6 5 8 10 10 10 8 6 7 6 7 6 5 5 5 5 7 9 11 14 16 16 17 16 13 14 15 15 16
16 15 15 14 12 11 11 10 11 11 11 11 10 9 8 7 6 7 7 9 9 7 6 6 6 6 5 4 3 4 7 9 11 12 15 16 16 14 12 12 13 14 15
17 18 17 17 15 13 12 12 11 10 10 10 12 11 10 10 8 8 7 7 8 7 7 7 7 5 5 4 5 6 7 8 10 12 13 12 13 12 12 12 14 14 15
19 19 18 20 17 17 16 14 13 13 12 13 13 12 12 11 10 10 9 9 9 7 7 7 7 5 6 5 6 8 8 8 8 7 7 8 10 11 12 12 13 13 14
19 20 22 22 21 21 19 17 16 16 15 14 14 14 13 12 13 12 11 10 9 10 9 8 7 5 6 5 5 7 8 9 8 7 8 8 9 10 11 10 11 12 15
22 22 22 23 23 22 23 22 20 19 17 16 16 16 15 14 15 14 13 11 11 9 9 9 9 7 6 5 7 8 6 8 9 9 10 9 9 10 10 9 9 10 11
28 26 25 24 23 23 25 24 22 21 21 20 20 19 17 17 16 15 15 14 13 14 14 12 12 10 6 4 5 7 9 10 10 11 14 11 10 10 11 11 11 11 11
32 32 30 28 26 25 24 27 27 27 26 24 22 22 20 19 18 18 17 17 17 16 16 14 13 11 9 8 8 11 12 14 14 8 12 15 10 9 11 14 13 12 13
35 38 36 33 32 30 28 26 29 28 30 27 27 25 25 21 22 21 21 20 19 17 16 15 15 15 15 13 13 13 14 15 17 19 13 18 16 14 12 13 15 16 15
39 39 40 39 38 36 35 34 36 37 33 34 32 31 29 27 25 25 24 23 22 21 20 19 19 21 19 21 18 17 19 18 19 21 19 16 18 17 18 17 15 15 15
29 27 35 44 41 39 39 39 37 40 42 36 38 35 34 35 31 29 29 26 27 26 25 23 22 24 25 25 26 24 25 23 22 24 26 22 22 20 21 22 20 18 18
21 29 27 37 45 42 39 35 39 34 35 40 31 37 38 39 36 35 33 32 31 31 30 29 29 28 28 29 31 31 31 30 29 27 32 30 27 28 22 26 25 24 22

GFSMA_500_spd_102.txt.gz
Wind_Speed
17 16 18 18 19 20 21 20 20 21 23 24 24 23 22 20 19 18 18 20 21 20 19 18 18 19 22 24 24 24 24 25 24 24 24 26 25 30 35 37 38 38 36
17 18 19 20 20 19 18 19 19 19 20 21 21 21 19 18 17 17 18 19 19 18 19 19 19 20 23 25 25 24 24 26 26 24 25 25 27 30 33 36 40 41 39
16 19 20 20 19 18 17 17 17 17 17 18 19 18 17 16 15 15 16 17 17 17 17 18 20 20 22 24 25 25 26 25 26 25 24 24 27 29 32 37 40 43 42
16 17 18 17 17 16 15 14 15 15 16 17 18 16 15 14 14 14 15 14 14 15 16 16 18 19 20 21 22 23 24 25 25 24 23 23 24 27 30 34 38 42 44
15 15 14 13 13 13 12 12 12 12 13 14 16 16 14 13 13 13 13 13 13 13 13 14 14 15 16 16 17 20 21 23 25 24 23 22 23 25 28 32 36 40 43
13 12 12 12 11 10 10 9 9 10 12 12 12 14 13 12 12 12 11 11 11 11 11 10 10 10 11 12 14 17 19 21 23 24 24 23 22 24 26 28 32 37 40
12 10 10 9 8 8 7 8 8 9 10 10 10 11 13 12 11 11 10 8 7 7 8 7 7 7 7 8 12 13 16 18 20 22 24 23 23 22 24 26 29 33 37
9 8 7 6 5 5 5 6 7 7 7 8 8 10 11 12 12 11 10 7 5 4 4 4 4 5 6 7 8 10 13 16 18 20 22 24 24 23 22 23 26 29 31
8 7 6 5 5 3 3 3 3 5 6 6 7 7 9 11 11 10 9 7 5 4 2 1 2 4 5 5 4 7 10 13 15 18 21 22 23 22 22 21 22 25 28
8 6 6 5 5 4 2 2 2 3 3 4 5 6 7 9 9 9 8 6 5 4 2 0 2 2 3 3 3 5 8 10 13 16 19 21 21 21 20 21 20 21 24
8 8 7 7 6 4 3 4 2 1 2 3 3 6 6 7 7 7 5 6 5 4 3 2 1 1 2 3 4 6 6 9 12 15 18 20 21 20 18 18 18 18 19
8 7 8 10 9 7 5 4 4 2 2 2 2 3 5 5 6 7 7 5 5 4 4 3 3 4 5 5 5 6 7 9 12 15 18 21 20 19 17 15 15 16 16
8 7 7 7 8 9 8 8 7 5 4 1 1 3 5 7 7 7 7 6 6 6 5 5 6 6 7 6 6 7 7 9 11 15 18 19 18 16 14 14 14 15 16
8 8 7 6 6 8 8 9 8 7 5 4 3 3 3 6 8 8 8 7 7 8 8 8 8 7 7 7 6 7 6 7 10 13 16 16 15 14 12 12 13 14 14
8 9 9 8 6 7 8 9 8 8 7 7 6 5 4 4 6 8 9 8 7 7 8 8 10 6 5 5 4 6 7 9 10 12 13 13 13 13 12 11 12 12 12
12 11 12 9 9 8 7 8 7 8 9 8 8 7 7 7 6 6 7 8 9 9 8 9 9 6 6 5 5 7 9 10 9 10 11 13 13 11 11 11 10 10 10
11 14 14 12 11 12 11 9 9 9 10 11 10 10 9 9 9 9 8 7 7 8 9 10 10 6 6 4 6 8 9 10 10 10 11 10 10 11 12 11 11 12 12
12 13 14 15 17 14 12 13 12 12 11 12 11 10 11 11 12 12 11 10 9 9 9 9 9 7 6 5 6 8 10 9 8 5 7 8 9 11 13 12 13 14 14
15 14 15 17 16 16 16 17 15 15 14 14 14 14 13 12 13 12 11 12 11 11 10 9 9 8 6 6 7 9 10 8 5 5 7 8 9 10 11 10 10 12 13
21 18 16 15 16 19 18 18 18 17 16 17 18 17 15 14 14 13 12 13 12 13 11 11 11 9 9 8 9 10 8 7 7 5 6 6 8 9 12 10 8 9 10
27 24 21 19 17 18 19 22 21 20 22 21 21 20 18 16 16 16 16 16 15 15 14 14 14 14 11 11 10 11 10 9 7 6 8 4 5 7 10 11 12 11 10
31 29 27 27 23 21 21 22 23 24 24 23 22 22 22 19 21 20 21 20 19 18 18 16 17 17 15 13 13 12 11 11 12 8 10 13 6 6 9 11 12 13 12
31 34 32 31 30 27 27 26 25 26 23 23 27 27 25 26 26 25 24 23 23 22 22 21 21 20 19 16 16 17 16 15 15 16 12 17 17 15 14 13 13 14 15
29 32 36 37 34 32 33 34 31 30 30 30 31 30 30 29 29 28 27 27 26 26 25 24 24 24 24 23 21 21 22 21 20 21 20 19 22 21 22 22 19 18 18
22 26 20 25 35 31 35 39 38 36 34 36 35 34 38 35 36 34 32 32 31 30 30 28 28 28 29 29 28 26 26 25 25 26 27 24 26 27 27 29 28 26 22
21 16 19 22 30 26 34 36 40 39 36 33 36 33 33 37 43 39 37 37 36 35 34 34 34 32 32 33 33 32 31 31 30 30 34 30 29 30 26 30 30 30 27

GFSMA_500_spd_105.txt.gz
Wind_Speed
17 17 18 20 20 21 21 21 20 21 22 21 21 20 19 18 18 19 20 20 19 19 20 21 23 23 23 23 23 25 26 25 22 23 26 27 29 31 34 37 40 38 38
16 19 21 21 20 20 20 21 22 22 21 21 20 19 18 18 18 18 18 18 18 19 20 21 22 22 22 22 22 23 24 25 24 24 24 26 28 31 33 37 41 41 40
18 19 19 19 19 18 18 19 18 18 18 19 18 18 17 17 17 17 16 16 16 17 18 19 19 18 19 19 20 21 23 24 24 22 22 23 25 28 32 36 39 42 43
17 16 16 16 16 16 16 16 16 16 16 18 17 17 16 16 16 17 16 15 16 16 16 15 15 15 16 17 18 19 21 23 23 22 21 21 23 26 30 33 37 41 44
15 14 14 13 12 13 13 12 13 12 13 13 16 15 15 15 15 15 15 14 13 13 12 11 10 10 11 13 15 17 20 22 23 23 22 21 21 24 27 30 34 38 42
12 11 11 11 10 10 9 9 10 11 12 12 11 14 13 13 13 12 12 11 10 9 8 6 6 6 8 9 12 15 17 20 22 23 23 22 22 21 24 27 30 34 39
10 9 8 7 7 8 7 7 7 9 10 10 9 12 13 12 11 10 10 8 8 6 3 4 5 5 5 7 10 12 15 18 20 22 23 22 22 22 21 22 26 29 33
6 6 5 4 4 4 6 5 5 6 8 8 8 8 10 11 10 9 8 6 5 3 0 3 5 6 5 5 7 9 12 14 17 20 21 22 21 21 20 20 21 25 28
5 4 3 2 2 2 3 6 5 4 5 7 6 6 6 10 9 8 7 5 5 4 2 3 4 5 6 6 5 7 10 12 15 18 20 21 20 19 19 19 19 20 23
6 4 2 1 1 0 2 3 4 4 3 5 6 6 8 8 8 6 6 7 6 4 4 4 4 5 6 5 6 8 10 10 13 16 18 18 18 18 17 18 18 17 18
7 5 4 3 1 2 1 1 3 3 3 3 5 5 6 7 7 7 7 6 5 4 5 4 4 6 5 7 8 8 8 10 12 14 16 17 16 16 16 16 16 17 15
5 5 4 5 5 5 3 1 1 2 3 2 1 4 5 3 4 5 6 5 5 4 6 6 7 8 8 9 8 9 9 10 12 14 15 14 14 14 13 14 15 16 15
3 4 4 4 5 5 5 4 2 1 1 1 1 0 2 4 6 6 6 4 11 5 8 11 4 12 10 10 8 9 8 10 12 14 15 15 14 14 13 12 12 13 15
3 3 3 3 3 4 4 5 4 5 4 2 1 0 1 2 4 5 5 7 7 5 8 9 6 10 9 8 8 10 8 10 12 14 14 14 14 14 13 12 10 10 12
7 5 4 3 3 3 2 4 5 6 7 6 4 3 2 3 4 3 4 5 6 7 8 6 8 8 8 8 8 9 10 11 12 12 14 15 14 13 13 12 12 10 9
8 14 9 8 6 4 3 4 4 6 7 7 6 6 6 5 5 6 5 6 7 8 8 11 10 10 10 9 8 9 11 11 13 13 14 14 11 10 10 11 12 11 10
14 15 12 10 10 7 6 6 6 7 6 7 9 9 9 9 8 8 9 8 8 9 10 12 9 10 10 9 10 11 12 12 11 13 10 9 9 9 9 9 11 11 10
14 15 14 13 12 10 9 8 9 10 9 9 10 11 11 11 11 11 11 11 11 12 11 12 11 9 9 10 12 13 14 12 10 8 8 7 9 9 8 8 9 9 10
17 16 16 15 15 12 11 12 11 12 11 11 11 12 12 12 13 12 12 13 12 13 13 12 12 10 9 11 12 14 13 11 8 7 8 8 10 10 10 9 7 7 9
22 21 18 17 16 15 16 15 15 14 13 13 13 13 13 14 14 14 15 14 14 13 13 14 13 11 11 13 15 15 14 8 8 7 9 9 9 11 13 13 12 10 9
28 27 24 21 18 17 17 19 18 17 16 16 16 16 16 16 17 18 18 18 17 16 16 16 16 15 14 14 14 16 15 12 9 6 10 9 9 10 11 10 14 16 14
31 31 30 28 25 21 23 20 19 19 18 19 20 18 18 20 20 21 22 21 21 21 21 20 20 19 17 15 14 15 16 16 16 12 12 14 13 12 12 12 14 12 16
33 32 32 30 31 28 29 26 23 23 22 21 21 21 22 22 23 24 24 24 24 25 24 24 24 24 22 20 19 19 19 18 18 20 19 19 23 20 20 20 19 20 16
36 35 33 32 36 34 34 30 28 28 28 28 26 24 24 24 27 28 29 28 28 27 26 28 27 27 27 27 25 25 24 24 24 24 25 22 24 25 26 28 27 26 27
20 23 24 23 22 27 34 35 33 33 35 35 33 32 29 30 31 31 32 32 33 33 30 30 32 31 32 32 31 30 30 29 29 31 30 30 29 29 30 32 34 30 29
24 26 24 20 23 19 20 26 29 28 33 34 36 35 31 33 31 29 28 29 39 39 37 36 35 37 36 36 35 34 35 35 34 34 34 33 35 34 33 35 35 34 31

GFSMA_500_spd_108.txt.gz
Wind_Speed
21 20 19 22 18 13 19 21 19 19 20 19 18 18 20 19 20 21 21 21 22 21 20 20 19 19 20 21 22 22 22 18 18 20 23 26 28 29 33 36 38 37 36
22 22 26 20 22 19 21 19 20 19 20 21 20 18 19 22 20 19 19 19 19 19 19 17 17 18 18 20 21 22 22 22 18 19 20 24 26 28 32 34 38 40 39
20 18 24 22 20 19 19 17 19 18 18 18 18 19 20 20 20 18 17 17 16 16 16 15 15 16 17 17 19 21 23 22 20 18 19 21 23 26 30 33 37 40 41
19 18 18 19 18 18 15 17 13 17 19 21 19 18 18 18 18 17 16 15 14 12 11 11 11 12 13 15 16 19 21 22 21 20 19 19 21 23 27 31 34 38 40
17 15 15 15 16 15 14 14 13 11 14 16 18 19 17 16 16 15 14 12 11 8 7 6 6 9 9 12 14 16 19 21 22 21 20 20 19 20 23 27 31 35 39
14 13 10 10 14 15 11 12 11 11 10 10 10 17 14 14 14 12 11 9 8 5 3 3 5 5 6 8 11 14 16 18 20 20 20 20 19 19 20 23 27 31 35
11 10 6 5 16 14 9 9 9 6 9 6 8 10 14 12 11 10 8 7 4 2 1 2 2 3 5 7 9 10 13 15 17 18 19 20 19 19 19 20 22 26 31
8 8 6 8 12 7 7 7 6 6 6 7 5 1 10 12 11 9 7 5 4 4 3 4 5 4 4 5 6 10 11 13 16 17 18 19 19 19 19 19 19 22 25
5 5 6 6 6 4 5 4 6 4 3 5 7 7 3 8 10 11 10 7 5 5 6 5 7 8 8 6 5 7 10 12 15 17 18 19 19 18 18 18 18 18 20
3 2 2 4 4 5 4 4 4 4 3 3 4 6 6 14 7 5 5 9 5 5 6 3 4 5 7 5 6 8 9 13 14 16 17 17 18 17 17 17 17 16 15
4 2 2 1 3 3 3 4 4 4 4 4 3 3 6 5 8 11 6 12 4 8 6 3 3 3 7 9 11 9 9 11 13 15 16 16 17 17 17 16 17 16 14
5 4 2 2 2 1 1 3 3 3 4 5 3 4 4 3 5 9 15 5 8 14 9 7 9 3 8 7 11 11 11 12 12 14 14 15 14 15 15 15 15 16 14
7 5 4 2 1 2 1 1 2 2 2 2 3 1 2 3 15 7 2 2 20 16 10 9 7 19 3 8 14 13 13 14 14 15 15 15 14 13 13 14 13 12 13
8 5 4 3 3 2 1 1 1 1 2 1 0 1 2 1 3 2 6 6 9 13 12 22 15 22 15 9 14 14 13 13 14 14 15 16 14 13 13 13 12 10 10
4 1 3 4 3 3 2 2 2 2 3 3 3 3 4 3 3 3 5 7 8 9 13 13 14 20 15 10 11 14 13 13 13 14 15 15 14 13 13 12 12 10 9
4 11 6 7 6 4 3 3 2 2 3 3 3 4 4 4 4 5 5 6 9 10 12 13 12 10 11 12 12 13 13 14 15 16 15 13 12 11 11 12 13 13 10
10 15 12 10 7 6 5 7 5 4 5 4 4 5 5 5 6 7 8 8 9 9 10 12 11 10 10 12 12 12 13 12 14 11 11 11 10 9 10 11 12 12 12
14 14 14 12 10 10 9 10 9 8 8 7 5 5 5 6 7 8 9 10 10 10 10 11 8 8 10 12 14 14 13 11 9 10 10 9 12 11 9 9 9 10 11
16 12 12 12 12 12 14 14 13 11 11 9 8 8 7 7 9 10 10 11 11 11 11 11 11 11 9 9 13 12 14 13 9 8 10 11 12 13 15 12 11 10 12
21 17 16 15 16 18 18 17 17 14 14 13 12 11 11 11 12 12 12 12 11 11 13 12 12 12 11 14 21 11 14 11 9 8 9 8 9 11 14 18 18 18 14
25 24 24 23 21 18 20 20 19 18 18 17 17 16 15 15 14 14 13 14 14 15 14 14 15 15 14 14 15 16 15 14 10 9 12 11 9 10 6 9 13 16 19
30 29 29 28 27 23 25 24 20 19 19 20 20 20 17 18 18 18 18 18 18 18 18 18 19 18 18 17 16 15 16 16 17 14 12 13 15 15 15 12 15 15 16
31 28 27 28 30 32 32 29 27 25 23 22 21 23 21 22 22 22 22 23 23 22 21 21 21 22 21 21 20 21 20 20 20 21 21 21 20 22 23 22 20 20 22
31 29 31 28 33 35 36 35 34 32 31 28 24 25 22 26 26 25 23 25 27 27 26 26 25 25 26 26 25 24 25 27 28 27 25 26 26 26 27 27 26 26 26
27 26 35 32 31 35 28 37 33 37 35 31 30 30 30 30 30 30 31 30 28 33 31 31 32 32 31 30 28 29 30 30 30 32 29 30 31 30 31 32 32 32 31
23 29 28 22 25 27 28 22 23 29 33 36 35 28 32 36 36 34 32 33 29 28 28 32 39 38 37 36 34 35 35 35 35 37 34 34 35 32 33 35 36 35 33

GFSMA_500_spd_111.txt.gz
Wind_Speed
22 21 19 21 17 18 20 21 19 23 25 21 18 19 20 17 17 18 17 16 15 15 15 16 17 18 19 20 21 21 20 17 17 18 19 21 24 27 30 33 36 35 33
24 22 26 25 20 20 22 22 19 20 22 23 21 17 21 20 17 15 15 14 13 12 13 13 14 15 17 18 20 21 21 19 16 15 16 19 22 25 28 32 36 37 37
22 22 23 24 22 21 21 20 18 18 19 21 20 18 18 18 17 14 13 13 11 10 9 10 11 12 13 16 18 19 20 20 18 16 16 17 19 23 26 29 34 38 38
21 20 19 18 20 19 17 16 15 13 13 17 20 18 17 16 14 15 12 11 11 8 7 8 9 10 12 13 14 16 17 19 20 18 18 18 18 21 24 27 31 36 39
18 18 17 15 16 15 16 14 13 10 12 15 19 19 19 15 15 14 12 11 9 6 5 5 6 6 7 9 12 14 15 18 20 21 20 20 19 19 21 24 29 32 36
16 17 15 13 12 13 14 15 9 11 9 11 14 16 18 17 16 14 11 9 5 5 2 2 4 4 6 8 10 12 15 17 20 22 23 22 21 19 19 21 25 29 32
15 13 11 9 10 10 10 10 13 9 8 10 8 7 11 15 15 15 13 10 6 3 2 1 3 5 6 5 8 9 13 16 19 22 23 22 22 21 20 20 21 25 28
12 10 11 11 9 10 9 7 9 10 7 7 8 5 6 10 14 15 12 10 6 5 6 4 2 3 3 4 5 7 10 14 18 21 23 22 21 20 20 20 19 21 25
10 9 9 9 10 9 8 7 7 6 6 4 3 8 7 7 9 10 14 18 15 11 9 7 8 3 3 1 2 4 9 13 17 20 22 22 21 20 19 19 18 18 20
5 6 7 7 7 8 7 7 7 5 3 2 2 5 3 8 13 13 12 12 10 6 6 10 10 2 5 3 5 10 10 11 16 19 21 21 20 19 19 19 18 16 16
3 3 4 5 5 6 5 7 6 3 3 1 1 3 3 10 5 9 12 16 9 6 8 3 7 6 10 6 7 7 9 11 15 18 20 21 19 19 18 18 17 16 15
5 4 5 4 4 4 4 5 6 4 3 2 2 3 6 5 4 3 11 1 1 6 17 12 3 12 5 10 11 9 10 14 15 18 19 19 19 19 18 17 15 14 15
4 4 4 5 5 5 4 3 4 4 3 1 2 1 5 6 4 5 17 8 6 5 12 16 14 25 9 7 8 8 12 18 16 18 20 20 17 18 18 16 13 13 14
4 4 5 4 4 4 5 5 5 5 4 1 0 2 3 6 9 8 7 5 7 7 8 9 11 12 7 1 4 8 17 18 17 18 18 17 16 18 18 18 15 13 13
8 8 7 5 3 3 4 5 4 4 3 2 2 5 3 2 3 5 7 9 10 10 9 8 7 5 3 3 7 15 16 15 16 15 16 16 14 16 15 14 14 13 13
12 15 7 5 4 3 3 3 4 4 4 3 5 6 6 5 6 5 6 7 8 9 10 9 8 8 10 12 13 18 16 15 13 13 14 13 12 13 12 12 12 13 14
6 5 8 5 6 6 6 4 5 5 5 5 6 7 7 7 7 7 6 6 6 8 9 10 11 10 11 12 15 14 13 12 11 11 10 11 12 11 13 14 13 12 13
10 10 12 9 10 9 9 8 9 9 8 7 7 8 7 8 8 8 8 8 9 9 9 9 10 10 10 12 12 11 9 8 9 8 8 11 12 13 12 12 14 15 14
14 13 13 12 12 12 13 14 14 14 11 10 11 11 10 10 10 8 8 7 9 9 9 10 10 9 8 9 8 10 9 6 5 8 9 10 11 12 13 12 13 16 17
19 18 15 15 15 14 16 18 18 16 17 15 14 15 14 15 13 11 11 10 10 10 10 10 10 8 9 9 11 12 13 9 6 5 5 6 8 9 12 14 14 16 16
23 23 23 21 19 19 18 19 19 21 20 20 18 17 17 17 17 17 16 15 15 14 13 14 13 11 11 13 13 14 15 15 8 10 9 9 9 9 9 10 12 14 15
24 27 27 24 24 26 24 24 23 21 19 21 22 21 21 23 20 20 20 20 19 19 19 18 18 19 17 16 15 15 16 17 15 13 14 14 16 16 16 15 16 17 18
26 23 25 28 30 30 30 31 29 26 25 23 24 23 24 26 23 23 23 23 23 24 24 24 24 23 23 20 21 20 19 19 19 19 21 21 21 22 21 20 22 21 21
29 26 24 27 30 29 30 34 32 32 32 32 31 30 27 27 25 24 25 26 25 26 28 30 30 29 27 26 26 26 25 26 25 23 25 25 25 27 26 26 27 25 25
21 23 25 26 33 35 32 33 34 31 33 38 39 38 36 34 31 30 31 31 30 29 30 31 30 32 30 29 32 32 30 29 32 28 29 29 28 30 31 30 30 30 30
21 23 25 28 25 26 32 35 34 35 33 32 35 38 40 38 33 35 36 35 35 32 32 35 30 30 29 30 33 35 37 39 35 35 30 34 33 33 36 37 36 33 33

GFSMA_500_spd_114.txt.gz
Wind_Speed
17 20 20 21 20 21 23 26 27 26 23 21 22 23 20 16 18 19 18 16 15 15 15 14 15 16 16 18 18 19 19 19 18 18 19 21 23 25 29 32 35 36 35
20 22 24 23 21 17 18 19 21 23 23 22 24 23 22 18 16 16 16 14 13 12 12 12 12 13 14 16 17 18 19 20 21 21 20 21 23 25 27 30 35 37 38
24 26 26 24 23 20 21 20 17 17 19 20 21 20 21 21 18 15 14 12 10 8 9 10 11 12 12 13 14 16 18 20 22 22 21 22 23 25 27 29 34 37 38
22 22 21 19 20 21 18 20 19 17 17 17 19 19 19 18 18 16 13 11 7 5 5 5 6 7 9 10 12 13 15 18 21 21 22 22 23 25 27 29 32 36 38
19 17 20 19 14 17 16 14 13 15 14 15 18 18 15 16 15 13 9 6 4 2 2 3 2 2 3 5 7 9 11 15 18 21 22 21 23 24 25 27 30 33 36
15 17 16 17 18 16 16 15 11 11 13 11 11 12 13 15 13 12 9 10 10 9 5 4 8 7 7 8 9 11 12 13 17 20 22 22 23 23 24 24 27 29 33
12 11 15 14 13 13 16 15 11 11 10 9 10 11 12 13 13 13 11 11 8 5 6 8 10 10 8 10 10 11 13 15 18 21 22 22 23 23 23 23 24 26 30
10 11 11 11 10 11 12 13 12 9 10 8 7 8 10 11 9 9 8 10 9 8 8 8 10 13 10 9 10 10 13 13 17 21 22 24 23 23 22 23 22 23 26
8 8 8 7 8 8 9 11 9 8 9 8 6 6 5 8 7 9 10 12 12 13 12 13 14 11 10 5 7 11 10 10 15 20 21 23 24 23 22 21 21 20 22
4 5 8 6 7 6 5 8 9 7 5 8 5 5 4 7 7 9 12 13 11 15 20 12 14 7 10 5 7 9 10 10 14 17 20 23 22 22 21 19 21 20 18
5 1 1 5 6 5 5 5 5 5 3 6 6 4 4 4 5 9 10 10 12 13 10 13 18 3 1 1 5 8 7 12 13 17 18 21 21 21 20 18 19 20 18
6 6 5 4 5 5 5 5 3 3 2 3 6 4 1 2 2 9 12 4 4 6 8 13 7 8 3 4 7 6 9 13 14 16 19 20 20 21 21 18 17 18 19
6 5 4 6 6 6 6 6 5 4 3 1 5 6 4 4 4 4 4 8 2 1 3 5 10 9 1 5 4 5 10 12 12 17 17 19 19 20 20 19 17 17 18
5 6 7 6 6 5 6 7 7 4 4 2 2 4 3 3 3 3 3 3 2 2 2 3 4 4 4 5 5 7 11 9 12 15 17 18 17 18 18 19 18 17 18
2 6 8 7 7 7 8 7 8 9 7 5 6 2 3 2 3 3 4 1 2 2 1 4 5 5 6 4 5 9 8 10 10 17 16 15 16 15 15 16 16 17 17
11 11 10 9 6 5 6 6 6 7 8 9 7 5 5 4 5 4 1 2 3 4 3 3 5 4 4 4 8 7 5 6 11 14 15 15 13 12 12 13 13 14 15
10 12 13 10 8 7 8 8 7 7 7 8 8 8 7 8 7 7 6 6 7 7 6 6 5 5 7 7 5 4 6 8 11 12 13 12 12 11 11 11 12 12 12
10 11 11 10 10 10 11 10 10 9 9 9 9 10 9 10 11 9 7 7 7 8 7 6 5 6 7 6 4 6 7 10 10 8 6 8 9 7 8 10 10 11 13
14 13 13 14 14 12 14 13 13 12 12 12 12 13 13 12 11 11 10 10 8 10 9 7 6 6 4 5 7 9 8 9 8 8 7 7 6 7 7 9 11 13 13
18 19 18 17 16 18 17 17 14 16 17 17 15 15 17 18 16 14 13 12 12 12 11 10 7 9 9 8 8 9 10 8 8 7 10 10 9 11 12 12 12 12 13
22 22 23 23 22 21 18 18 16 19 19 19 19 20 21 21 19 18 17 17 17 15 15 14 12 12 11 12 12 13 14 12 13 11 10 13 16 14 14 15 15 14 16
22 24 25 26 27 27 23 21 20 19 19 20 19 22 25 25 23 22 20 22 22 20 21 18 17 17 15 17 17 16 17 20 18 17 16 18 18 17 19 19 19 18 18
19 26 25 28 29 29 29 27 27 26 25 26 24 25 27 26 24 24 25 23 23 24 24 23 22 22 21 23 24 23 22 22 22 23 22 23 23 22 25 24 23 24 25
24 29 34 34 27 26 29 30 30 31 31 32 33 32 33 32 30 28 28 28 27 27 27 26 27 25 26 27 30 29 28 27 25 25 26 28 32 28 28 28 29 29 29
25 24 25 27 24 26 26 27 31 29 30 33 34 35 36 38 38 36 34 33 32 32 33 32 31 26 26 28 27 26 31 33 31 28 33 30 34 34 32 30 31 32 31
23 24 24 28 29 28 30 32 30 37 33 36 38 36 35 37 38 39 40 39 38 37 37 35 35 33 30 30 31 30 28 28 30 28 32 37 37 34 36 38 37 37 36

GFSMA_500_spd_120.txt.gz
Wind_Speed
19 15 18 22 22 19 19 19 19 17 17 18 17 16 15 11 8 5 6 8 9 11 14 15 15 18 20 21 22 22 24 25 26 25 24 24 23 25 26 32 36 39 36
20 19 22 20 20 19 18 17 16 16 17 16 15 14 13 9 6 3 4 8 11 13 15 14 15 16 17 18 20 22 23 25 26 24 24 23 23 25 27 31 36 38 37
19 21 24 21 16 17 16 14 15 15 13 13 12 11 9 6 4 2 7 9 12 15 15 16 16 17 18 19 19 19 20 24 23 23 23 22 23 25 25 30 35 38 38
18 19 20 19 18 16 14 13 13 13 13 12 11 8 5 4 5 7 8 11 13 14 16 18 18 19 20 20 20 20 19 21 22 20 21 22 22 24 24 28 33 37 39
17 19 18 17 17 15 13 12 10 10 9 9 7 4 3 3 6 7 8 10 12 13 15 17 20 19 19 19 20 19 19 20 20 18 19 20 20 23 23 26 31 36 38
13 15 15 15 15 15 13 11 9 8 7 6 4 0 3 4 6 8 9 12 12 13 15 17 19 22 21 18 17 16 16 17 17 16 18 18 18 22 22 24 30 34 37
13 13 14 11 11 12 13 11 10 7 5 6 2 0 2 3 5 6 9 11 11 13 16 19 25 25 22 16 14 13 13 14 14 15 17 17 17 20 22 23 27 32 34
12 13 12 12 10 9 9 10 11 11 9 7 5 4 4 2 4 7 9 12 12 14 17 19 22 27 21 13 9 9 10 12 12 14 16 16 16 19 21 22 25 28 31
9 10 9 9 8 8 7 6 6 8 9 8 7 7 6 4 5 6 9 13 16 17 18 18 19 22 12 8 7 9 9 10 11 13 15 15 16 19 21 23 23 25 27
8 8 7 6 5 5 4 5 4 5 6 6 7 7 7 7 7 7 9 11 16 15 18 16 16 12 6 7 9 9 10 10 11 15 13 16 17 19 22 23 25 24 24
5 5 7 6 7 5 5 4 4 5 5 5 4 2 3 3 4 3 4 8 8 10 12 15 9 8 6 7 9 8 8 8 10 10 13 16 16 16 21 22 25 26 26
3 2 2 4 5 6 7 6 4 4 4 5 5 4 3 3 4 4 6 8 9 9 13 11 8 7 2 5 5 5 6 6 7 10 12 12 14 15 17 17 19 22 23
3 4 4 5 5 5 5 7 7 5 4 4 4 4 4 4 4 4 4 4 5 6 8 6 6 5 5 4 4 5 4 3 5 7 9 8 10 13 15 15 17 19 20
3 3 4 5 6 7 7 7 7 6 5 5 5 4 4 4 4 6 6 5 6 7 7 5 5 6 5 3 3 4 4 2 2 5 5 6 6 9 10 10 13 15 16
8 4 2 4 5 5 5 5 6 7 8 8 7 6 6 5 5 5 5 4 6 8 8 8 6 4 3 3 4 3 4 2 2 3 3 4 5 9 9 10 13 14 14
9 8 8 8 6 6 6 4 5 7 7 7 7 9 8 8 7 7 7 7 7 8 9 9 8 5 3 1 1 2 2 2 3 3 4 6 6 7 8 10 12 13 14
12 12 13 11 9 8 8 6 6 6 7 7 7 8 9 8 8 7 8 8 7 8 9 10 9 6 5 4 4 4 4 3 2 0 2 3 3 5 6 6 6 7 9
16 14 14 12 10 11 10 10 10 10 9 7 9 10 10 9 8 8 7 6 7 7 8 11 9 7 8 8 6 6 7 6 6 4 1 1 1 1 3 3 6 5 5
19 18 15 13 14 14 14 13 13 14 14 13 12 13 13 12 11 10 9 8 8 7 8 9 9 8 11 11 9 9 10 10 11 10 7 6 6 7 8 9 8 10 11
23 22 20 18 18 17 17 17 18 18 19 20 20 19 18 15 13 12 12 13 12 11 10 11 13 14 14 15 15 13 14 13 13 12 11 10 10 11 12 12 13 15 15
26 25 23 24 23 23 21 19 21 19 19 21 19 20 20 17 17 16 17 17 16 15 15 15 17 17 18 20 19 17 17 19 18 17 16 16 15 16 16 17 17 17 18
28 27 27 28 28 29 29 25 23 24 23 23 23 21 20 17 17 17 19 18 18 18 18 17 18 18 19 20 20 21 21 22 25 25 21 21 21 21 20 20 21 21 22
32 30 31 28 31 33 31 30 28 27 28 27 26 26 22 21 21 23 23 24 22 19 20 19 20 22 23 24 23 22 23 25 26 29 28 27 27 25 25 25 25 25 26
36 33 32 32 29 31 31 33 34 28 24 31 33 32 30 29 28 27 27 28 29 28 28 27 25 24 25 27 27 27 28 29 30 32 35 34 26 26 27 30 30 30 30
33 40 29 40 33 34 32 33 27 33 27 30 32 33 33 32 34 29 26 29 27 30 33 32 32 32 32 32 33 34 33 31 31 35 37 39 34 30 27 28 28 29 31
36 36 45 44 46 35 34 32 27 27 25 21 21 28 30 32 35 30 35 33 32 36 37 36 35 35 36 37 37 39 40 40 38 37 37 36 36 30 31 28 26 28 29

GFSMA_500_spd_123.txt.gz
Wind_Speed
18 19 22 23 21 18 18 19 17 15 15 13 12 11 10 9 9 11 13 13 13 14 14 14 14 16 18 19 19 21 23 25 23 21 21 21 21 23 24 29 31 30 33
20 23 23 22 20 19 18 17 16 16 15 13 11 9 9 8 9 10 11 12 12 13 14 14 15 15 15 16 17 19 21 23 22 20 20 20 20 20 24 28 31 32 34
25 25 21 20 18 17 16 15 15 14 13 12 10 7 5 8 11 11 12 11 11 12 13 15 17 17 15 16 17 16 19 21 21 20 20 20 19 20 24 27 32 34 37
27 25 22 19 17 16 14 12 11 10 9 7 6 5 6 9 10 9 10 11 11 12 13 15 17 19 19 18 16 15 17 20 21 20 19 19 18 19 22 27 32 34 37
19 19 19 18 17 15 13 11 9 7 5 4 4 5 6 6 6 7 8 9 10 13 14 16 20 22 18 14 13 13 15 17 19 19 18 17 17 18 21 27 32 33 35
16 16 16 16 15 15 12 10 9 7 6 4 4 4 3 3 4 5 6 8 10 12 15 17 19 23 21 11 11 12 14 16 17 18 16 16 17 17 19 24 31 34 33
12 14 14 14 14 13 11 11 9 8 7 4 2 0 2 4 5 6 8 10 12 14 14 16 20 24 20 13 10 10 14 16 17 16 15 15 16 17 17 21 27 32 33
12 12 12 12 11 10 9 10 10 8 8 6 4 3 4 5 6 7 9 11 14 16 18 18 17 18 16 9 7 10 13 15 13 13 14 15 15 16 16 17 22 27 31
13 13 11 9 9 8 7 7 7 6 6 5 5 5 4 6 9 9 11 14 16 16 16 16 13 13 11 8 8 11 12 11 11 12 13 14 14 15 16 17 17 21 25
10 10 10 9 9 8 6 5 5 5 4 4 4 4 5 6 10 12 11 13 13 13 14 15 13 9 7 8 9 9 9 9 8 11 12 13 13 14 16 17 18 19 20
7 8 6 5 5 6 5 5 5 5 5 5 4 3 3 4 7 10 10 10 13 13 13 12 11 8 5 7 7 6 7 7 7 8 11 11 10 12 14 15 17 20 18
6 5 5 4 3 4 4 4 4 5 6 6 5 4 4 4 6 8 9 9 10 11 13 8 9 7 7 7 5 5 5 5 6 6 8 10 10 11 14 14 15 17 17
6 6 6 6 5 4 5 5 5 5 5 5 4 3 2 2 2 3 4 5 7 8 9 7 7 6 6 5 5 6 7 6 4 4 6 6 7 9 10 12 14 16 16
7 7 5 5 5 6 7 6 6 6 7 6 3 2 2 1 1 2 3 3 5 7 7 6 6 5 4 4 5 4 5 4 3 3 3 4 5 7 8 9 10 11 12
8 7 6 5 4 5 7 8 9 9 8 8 5 5 6 5 4 4 4 3 5 7 7 6 4 4 4 3 3 3 4 4 2 2 4 4 4 5 8 8 10 12 12
8 9 4 6 7 6 6 8 9 10 11 12 10 9 9 8 7 7 7 6 6 6 7 6 3 4 5 4 3 2 1 1 1 2 1 1 2 5 4 5 7 7 8
9 11 10 9 10 11 9 8 8 10 11 10 11 11 10 9 8 8 8 8 8 7 7 7 6 5 6 6 5 5 5 2 4 5 5 4 3 2 1 2 3 4 5
12 12 12 11 10 13 11 12 12 12 11 11 10 11 11 11 10 9 9 8 8 8 9 9 8 8 9 7 7 8 8 6 7 7 8 10 9 8 8 7 6 5 5
15 13 14 14 12 14 14 14 14 13 13 13 14 13 13 14 13 13 12 11 11 10 9 9 11 13 13 11 10 10 10 10 9 11 12 14 14 13 14 14 13 11 12
20 19 19 18 18 19 20 20 20 17 17 18 17 17 18 18 17 17 15 15 15 14 13 13 13 14 16 17 17 16 14 14 13 13 14 15 16 17 18 18 18 19 18
24 25 24 23 24 24 24 23 22 21 21 20 21 19 20 25 23 21 20 18 18 18 18 18 19 21 20 21 22 21 19 19 18 18 18 19 20 20 21 21 22 22 23
27 28 29 28 28 30 30 28 25 23 24 24 24 22 20 20 25 23 23 20 21 20 21 22 23 24 24 22 22 24 23 22 21 21 22 23 25 26 27 27 25 25 25
31 30 30 30 30 32 31 33 32 31 30 30 27 27 26 25 25 23 21 21 23 26 26 27 27 26 26 26 27 28 29 30 29 25 23 24 25 26 26 29 31 30 30
30 29 33 37 36 36 32 27 29 31 37 36 35 30 31 30 31 29 28 28 28 29 32 33 34 33 33 33 31 32 33 35 37 37 33 29 31 30 28 29 29 30 31
37 31 32 35 33 30 32 34 33 34 36 35 42 39 33 33 38 38 34 31 34 31 32 31 32 34 34 39 40 38 38 37 40 43 43 39 32 35 35 34 32 30 29
26 34 37 36 32 36 40 29 38 35 37 37 39 37 38 37 32 31 33 32 32 32 35 34 34 37 36 37 37 38 38 39 40 41 46 47 46 39 33 31 30 29 29

GFSMA_500_spd_126.txt.gz
Wind_Speed
20 22 22 21 23 18 17 16 15 14 14 13 12 13 14 15 13 13 12 12 12 12 13 12 12 13 14 14 14 16 17 20 20 19 19 18 18 21 25 28 29 30 28
20 22 21 21 18 17 15 14 15 14 13 11 11 11 12 11 11 11 11 11 12 13 12 13 14 13 13 13 13 15 17 18 19 19 19 17 17 19 24 28 28 31 29
22 21 19 18 17 17 15 15 14 13 11 10 9 10 10 10 11 11 11 10 10 11 11 12 14 13 11 9 9 11 15 17 18 20 18 16 15 19 23 28 29 32 33
20 20 19 17 16 16 14 13 12 11 10 9 8 8 8 7 7 8 9 8 7 8 9 12 14 15 11 7 8 11 15 17 19 19 16 15 15 19 23 28 30 32 35
22 20 18 16 14 14 14 13 11 10 10 9 7 6 5 4 4 4 4 6 8 10 11 15 17 16 11 8 9 12 16 18 19 18 15 14 15 17 21 27 30 30 33
19 17 16 14 13 13 14 13 12 11 11 9 7 4 2 1 2 5 7 8 11 13 15 16 17 16 12 10 10 14 15 17 18 16 14 14 16 15 19 24 29 29 29
15 15 14 13 13 13 13 13 11 9 10 8 5 2 1 3 4 7 8 11 13 16 18 17 15 13 11 9 11 13 14 15 15 14 13 13 15 15 15 20 27 29 27
16 15 13 11 10 9 9 8 8 7 6 6 6 5 4 5 6 9 10 13 15 15 14 13 11 11 9 7 10 11 13 13 13 13 11 13 14 15 14 16 20 25 28
14 14 13 12 10 8 7 5 4 4 4 4 5 6 5 7 7 8 10 12 12 13 15 12 11 9 8 7 8 10 11 10 10 12 11 14 15 16 15 14 15 19 23
14 12 11 10 9 8 8 8 7 6 5 4 5 6 6 8 9 9 9 10 13 13 13 10 10 9 7 7 8 9 9 8 7 8 9 13 15 16 16 16 16 15 17
10 11 9 8 7 7 7 7 6 5 5 5 5 5 6 6 7 8 11 11 10 11 10 8 10 9 7 8 7 8 9 6 5 6 9 11 13 14 14 14 15 16 16
11 9 9 9 8 6 6 5 5 5 5 5 5 5 4 5 6 7 7 7 8 8 7 7 8 7 7 7 7 7 7 5 5 5 8 10 11 12 13 13 14 15 16
9 9 7 7 7 7 6 4 4 3 3 4 4 4 3 3 2 3 3 5 5 6 7 7 7 7 6 6 6 6 5 4 4 5 6 8 8 9 10 12 13 13 14
9 8 8 7 8 8 7 7 6 4 4 4 4 4 4 2 2 2 3 3 5 6 5 5 5 6 6 6 7 6 5 5 5 5 5 5 5 7 8 9 11 11 11
7 7 7 7 7 8 9 9 8 8 7 6 5 6 7 5 4 5 5 5 6 7 6 5 6 7 6 5 5 6 6 6 6 6 5 5 5 5 6 6 7 10 11
9 9 5 4 6 7 9 9 10 10 11 10 8 8 9 9 8 7 7 7 7 7 6 5 5 6 7 6 4 4 6 5 6 7 6 6 4 3 3 3 4 5 7
9 11 10 8 8 10 11 10 10 11 11 10 10 10 10 10 10 10 8 7 7 7 7 5 4 6 5 5 5 5 6 6 7 8 9 9 9 9 8 8 8 8 5
14 14 13 11 9 12 15 13 13 13 12 11 11 11 10 10 11 11 12 10 10 10 10 10 9 8 6 7 7 7 7 10 10 10 10 10 12 14 15 15 14 12 12
17 16 16 15 13 11 15 16 17 16 16 15 15 15 14 14 14 15 15 14 13 13 13 15 15 13 12 10 9 10 9 11 12 14 15 15 15 16 18 20 21 20 18
21 20 20 19 18 16 15 18 19 18 18 18 19 20 20 20 19 19 20 18 18 17 17 17 19 19 17 17 16 15 15 13 16 16 17 19 19 20 20 21 23 24 24
25 24 24 24 23 22 22 21 20 20 23 23 23 24 22 23 25 23 26 22 22 21 21 21 22 23 22 23 22 21 21 21 19 21 21 22 23 23 25 25 27 27 28
28 28 29 29 28 28 28 26 26 24 26 28 28 26 25 24 24 27 25 26 25 24 24 23 23 24 26 26 26 25 24 23 25 26 26 26 26 27 27 28 27 28 32
29 25 29 32 31 32 31 29 31 33 32 31 31 31 30 28 30 27 27 28 30 29 26 25 28 29 28 29 29 30 30 29 30 28 29 31 32 32 32 32 33 34 33
34 43 32 30 27 35 35 34 35 32 31 34 33 36 35 35 32 33 33 33 34 33 32 33 33 33 34 34 35 33 33 35 36 36 35 35 39 39 39 38 38 38 37
41 36 41 40 39 31 31 34 37 38 37 32 34 32 36 40 38 38 38 41 38 40 40 38 39 38 38 35 36 37 33 34 29 33 35 37 36 40 42 44 45 44 41
42 48 43 39 41 40 38 37 36 35 34 41 43 35 38 36 40 45 48 43 44 45 47 42 38 38 40 39 38 36 36 39 42 42 40 41 41 39 43 44 42 42 39

GFSMA_500_spd_129.txt.gz
Wind_Speed
18 20 20 18 16 16 16 16 18 17 16 15 14 13 13 12 11 12 12 12 11 10 9 11 12 13 12 12 13 15 17 20 21 22 19 18 18 21 25 27 29 31 31
17 20 20 21 15 15 16 17 17 16 14 14 13 13 12 11 11 10 9 8 8 9 11 13 14 16 13 12 13 15 18 20 22 22 20 19 19 22 27 27 29 33 30
18 18 23 17 16 16 16 16 16 14 13 13 11 11 10 9 8 6 6 7 9 12 13 15 17 15 11 11 13 16 18 20 23 20 19 18 18 23 27 27 28 33 34
21 19 17 19 18 16 13 14 14 14 14 12 9 8 7 6 5 4 5 7 10 11 13 15 15 13 8 8 10 13 17 20 20 18 17 16 16 22 26 28 29 33 35
19 17 20 20 22 18 12 14 15 15 14 11 9 6 4 2 2 4 7 8 10 12 13 14 19 9 6 7 9 14 17 18 18 16 16 15 16 20 25 29 28 32 34
18 16 17 13 5 19 13 13 14 14 13 11 8 4 1 3 5 7 8 10 12 14 18 17 9 5 5 8 10 14 16 17 18 16 16 15 15 18 24 28 29 29 32
16 15 14 12 13 12 13 11 12 12 10 8 5 2 2 2 5 8 10 12 14 14 15 11 8 6 6 8 11 15 16 17 17 17 17 16 16 16 20 25 29 29 29
16 16 13 11 12 12 12 10 9 7 5 4 5 7 8 6 4 11 13 11 10 11 10 8 8 7 6 8 12 13 15 14 16 16 17 16 17 18 19 21 23 28 28
14 13 11 11 11 11 9 8 7 5 7 6 4 2 15 13 10 14 3 9 10 7 7 7 7 6 7 10 12 13 14 13 14 14 15 17 18 18 19 19 19 21 24
13 11 10 10 10 9 9 8 7 7 7 4 4 5 7 7 8 7 13 9 3 6 5 7 8 8 10 11 13 13 13 12 13 14 13 15 16 18 19 20 19 18 17
11 10 9 8 7 7 7 6 6 6 4 3 3 5 6 8 6 4 5 6 5 3 4 7 9 9 10 10 8 10 11 11 11 11 12 12 14 15 17 18 18 18 18
10 9 9 8 7 6 6 6 5 5 4 3 4 5 4 4 3 3 4 4 5 6 6 7 8 10 10 10 11 11 11 9 9 9 9 10 11 12 13 13 15 16 17
8 8 8 7 6 6 6 5 4 3 3 3 3 3 3 2 2 3 3 4 6 7 7 8 8 9 10 10 12 9 11 10 10 9 8 8 9 10 11 11 12 13 14
8 8 8 8 8 7 6 6 5 5 4 3 3 3 3 3 3 4 4 4 5 6 5 6 7 8 8 10 9 2 10 11 10 9 8 8 8 9 9 10 12 12 13
9 9 9 8 7 8 8 9 8 7 7 6 5 5 5 5 6 7 8 8 7 6 4 7 5 7 6 5 11 11 7 8 9 8 8 7 6 7 7 8 11 11 12
10 10 10 9 7 7 8 9 10 10 9 8 7 8 7 6 7 8 10 10 11 9 7 6 6 6 4 4 8 8 8 7 8 8 8 7 7 7 8 8 9 11 12
12 12 11 9 8 9 11 11 11 11 11 9 9 10 10 8 7 8 9 10 11 11 10 9 6 7 9 8 8 9 10 11 10 10 10 10 10 10 10 11 12 12 11
16 16 16 15 14 13 15 16 16 15 12 12 12 11 10 11 9 10 9 11 12 12 12 11 8 8 10 10 11 9 13 13 14 14 14 15 15 16 16 16 16 17 18
19 20 19 18 17 16 16 18 18 18 16 16 16 15 15 14 14 15 15 15 15 15 15 15 15 14 14 14 14 13 13 15 16 17 17 17 18 19 20 20 22 23 23
20 19 19 18 19 19 19 18 20 21 19 19 20 20 20 19 20 21 21 21 20 20 20 19 19 19 18 17 17 18 19 20 21 22 22 22 22 22 22 23 23 24 25
24 24 23 24 24 23 24 22 22 23 24 23 24 25 25 24 24 23 24 24 24 26 23 24 23 21 19 18 21 20 21 22 23 23 24 25 26 27 27 28 28 29 30
28 28 28 29 29 28 26 27 27 27 27 28 28 28 28 28 27 26 27 27 27 25 27 27 28 25 18 27 28 25 23 22 24 27 26 28 28 30 31 32 32 32 33
31 31 31 34 34 32 31 32 30 31 31 30 31 33 34 32 31 30 30 32 31 29 30 32 31 31 29 29 31 32 29 30 29 29 32 28 33 33 33 35 36 38 39
34 38 39 36 38 35 34 34 33 36 34 31 32 34 33 37 36 36 36 36 35 36 37 38 36 36 32 32 35 33 34 32 32 32 34 36 35 35 36 35 38 41 44
40 38 38 39 42 44 34 33 33 32 36 36 35 37 39 36 33 36 36 38 40 39 41 41 44 45 44 44 42 43 43 40 37 33 33 35 30 35 39 40 45 43 45
47 42 44 43 45 43 41 41 40 44 35 34 34 38 40 38 39 38 36 39 42 39 41 46 51 48 47 48 49 45 43 41 40 45 39 45 46 39 39 38 40 43 43